GFSSGP_con_sbcape_000.txt.gz
CAPE
1596 915 675 831 144 0 0 2 0 29 44 68 132 102 83 71 18 0 3 95 210 118 376 588 1832 1142 993 1143 1263 1053 1155 1859 2293 2573 2824 2626 2465 2624 2387 2359 2442 2447 2238 2191 2317 2333 2319 2233 1979
958 878 992 541 0 0 0 0 0 17 127 202 211 187 197 99 154 133 118 412 380 315 338 879 1638 1681 1295 1440 1621 1422 1420 1971 2671 2729 3058 2916 2760 2657 2499 2428 2303 2197 2232 2191 2154 2055 1913 1975 1978
903 511 952 553 0 0 0 0 46 243 321 302 236 278 211 167 220 186 278 636 801 687 776 1059 1714 1741 1773 1965 2001 2414 2501 2642 2563 3007 2839 2871 3023 2647 2325 2212 2211 2251 2118 1933 1844 1834 1878 1815 1920
387 230 67 4 0 0 0 0 218 377 356 268 280 407 444 294 314 357 701 879 912 1081 1131 1827 1905 1847 1977 2085 2180 2246 2678 2862 3057 3197 2845 2883 2397 2044 2019 1920 2039 2063 1931 1826 1725 1714 1762 1880 1845
27 1 0 0 0 90 50 29 134 186 481 424 440 469 409 471 406 560 804 848 1203 1337 1653 1742 2363 2529 2092 2078 2162 2718 2923 2660 3123 3196 2707 2585 2333 2158 2141 2210 2211 2059 1923 1876 1835 1841 1805 1838 1925
0 0 0 0 8 157 44 7 208 619 588 438 380 370 594 429 355 659 730 881 1598 1861 1916 2016 2380 2168 2430 2673 2851 3096 3097 3083 3160 2666 2470 2407 2352 2239 2196 2116 1914 1759 1669 1742 1698 1809 1928 2082 2280
122 0 0 0 114 200 137 433 584 615 507 460 396 337 719 459 545 665 756 1237 1803 1914 2118 2295 2380 2386 2659 3167 3069 3083 2738 2587 2522 2413 2562 2295 2207 2388 2257 2081 1951 1840 1788 1823 1946 1941 2241 2249 2396
0 0 0 0 121 166 241 561 589 374 592 503 304 333 468 579 748 691 820 1306 1878 2016 2183 2246 2299 2239 2348 2896 2451 2281 2431 2250 2325 2429 2391 2351 2254 2105 1863 2087 2372 2143 2135 2322 2148 2002 2111 2106 2197
0 0 0 0 35 25 174 639 554 666 582 490 482 316 498 891 860 831 1000 1436 1691 1675 1892 2007 2051 2106 2499 2681 2193 2216 2101 2224 2025 1960 2349 2604 1772 1624 1836 1632 1845 1710 1774 1906 2263 1907 1827 2004 1755
2 4 1 0 0 100 134 537 677 490 459 568 516 692 973 1060 949 900 836 915 1221 1331 1689 1942 2049 2190 2414 2723 2486 2007 1769 1849 1906 1891 1968 1752 1317 1096 389 1442 1637 1421 1098 2042 2053 1804 2020 1497 1037
0 0 0 0 0 102 87 497 302 266 420 553 489 830 1065 1087 990 993 860 813 995 1375 1761 1858 1981 2021 2257 2605 2277 1921 1865 1555 1707 1766 1687 1481 762 662 1013 548 615 677 1459 1268 1316 1099 917 864 767
0 0 0 0 0 36 69 135 440 219 276 481 473 781 1070 1113 1095 1033 941 1088 1149 1425 1710 1822 1816 1964 1966 1841 2033 1610 1713 1614 1476 1366 1387 1136 547 441 419 584 722 888 902 742 609 614 672 635 557
0 0 0 5 0 0 7 195 382 180 365 563 586 872 951 992 1133 1100 1102 1330 1222 1376 1573 1646 1735 1878 2003 1732 1751 1591 1478 1530 1428 1327 1203 963 689 286 192 679 816 782 678 572 617 573 469 336 412
0 0 3 7 0 0 88 220 317 306 624 845 714 808 880 906 1145 1141 1338 1374 1339 1422 1485 1564 1708 1815 1818 1675 1609 1454 1250 1353 1239 1164 1152 1099 483 481 418 614 541 520 520 386 544 487 307 100 67
0 0 0 1 5 223 135 250 213 352 636 954 1005 998 981 1053 1268 1208 1371 1369 1343 1448 1509 1596 1713 1913 1673 1615 1046 977 1237 1110 1088 1086 917 830 825 458 475 379 321 325 150 220 222 147 0 15 27
0 0 14 2 13 128 50 103 398 347 453 799 1065 1082 1105 1134 1261 1270 1345 1331 1283 1348 1332 1432 1908 1848 1457 1397 1004 944 860 927 886 939 812 720 898 725 379 301 151 162 160 124 172 26 27 41 16
0 0 2 9 0 54 57 70 360 272 317 620 932 916 963 1032 937 1105 1127 1148 1177 1134 1182 1290 1737 1872 1576 964 1117 1100 1013 730 603 583 434 442 538 658 519 176 153 158 170 145 67 15 5 47 45
0 0 0 22 21 47 34 77 311 202 187 314 422 402 625 661 644 587 516 830 948 915 1158 1366 1606 1665 1175 1206 984 716 755 653 558 627 356 481 525 549 511 236 209 223 158 72 16 12 0 9 13
0 0 11 8 6 29 36 75 312 189 138 147 127 156 280 300 297 251 291 488 497 570 965 1264 1412 1486 1274 1244 1196 986 990 760 605 538 524 465 310 530 448 398 207 110 140 102 38 23 47 65 0
0 0 0 0 0 18 43 82 229 199 152 103 94 101 110 171 119 39 132 363 201 336 885 1095 1354 1362 1441 1256 956 1010 879 663 676 540 511 596 589 467 303 242 152 146 113 15 0 16 32 69 76
0 0 0 0 0 10 45 56 77 169 164 122 84 75 65 79 84 34 34 215 221 190 589 907 1024 1322 1490 1149 709 827 864 1078 1008 892 976 949 435 389 346 211 139 20 0 1 0 0 0 58 60
0 0 0 0 2 1 20 0 19 63 107 107 92 73 63 63 99 63 25 70 176 166 359 708 776 1014 1116 1006 995 1222 1259 1352 1072 527 635 649 286 193 43 0 0 0 0 0 0 0 14 11 37
0 0 0 0 0 1 15 0 0 30 43 79 95 73 74 52 66 70 48 55 62 169 301 454 528 573 939 1083 1197 1148 1109 1010 25 0 78 137 0 0 0 0 0 0 0 0 0 0 0 0 14
0 0 0 0 0 0 0 0 0 4 87 125 129 133 129 92 79 64 41 27 88 150 309 477 538 634 906 1059 1102 1128 1127 570 0 0 38 0 0 0 0 0 0 0 0 0 0 0 0 0 17
0 0 0 0 0 0 0 0 0 0 55 99 116 144 176 165 149 89 52 71 126 251 413 664 682 790 1065 1227 1310 1372 1154 340 0 0 0 0 0 0 0 0 0 0 0 0 0 0 0 0 0
0 0 0 0 0 0 0 0 0 0 1 41 46 110 121 180 245 185 107 128 176 383 491 745 876 937 1216 1501 1552 1626 1055 135 0 0 0 0 0 0 0 0 0 0 0 0 0 0 0 0 10
0 0 0 0 0 0 0 0 0 0 0 0 25 66 74 145 267 376 228 200 240 394 596 805 1039 1119 1219 1417 1544 851 399 0 0 0 0 0 0 0 0 0 0 0 0 0 0 0 0 0 0
0 0 0 0 0 0 0 0 0 0 0 0 0 12 39 82 297 333 450 435 411 461 690 887 1085 1240 1246 1149 839 515 59 0 0 0 0 0 0 0 0 0 0 0 0 0 0 0 0 0 0
0 0 0 0 0 0 0 0 0 0 0 0 0 1 2 17 130 224 595 707 634 584 697 949 1172 1331 1278 864 354 164 3 0 0 0 0 0 0 0 0 0 0 0 0 0 0 0 0 0 0
0 0 0 0 0 0 0 0 0 0 0 0 0 0 0 2 90 127 562 773 809 714 738 990 1219 1379 1439 838 179 29 0 0 0 0 0 0 0 0 0 0 0 0 0 0 0 0 0 0 11

GFSSGP_con_sbcape_003.txt.gz
CAPE
1679 1610 1130 1173 131 45 62 74 76 129 118 232 113 80 99 96 9 38 39 132 165 277 424 687 1410 1079 1105 1007 871 1310 1493 2010 2571 2568 2480 2051 1683 2094 2215 2467 2614 2525 2337 2369 2361 2258 2248 2124 2107
852 1088 1474 451 0 20 30 31 125 117 275 297 311 277 132 98 83 83 138 217 208 243 491 512 1210 1325 1138 1221 1149 1406 1934 1897 2293 2728 2478 2110 2145 2179 2239 2468 2399 2400 2388 2349 2187 2020 1937 1975 1982
1171 792 1356 252 0 0 13 32 285 330 335 204 301 272 150 130 113 134 177 251 285 462 659 953 1275 1244 1360 1203 1512 1666 2416 2092 2145 2413 2331 2183 2243 2426 2543 2423 2354 2403 2284 2099 1984 1876 1844 1867 1948
789 595 151 0 0 0 0 105 416 539 408 338 181 161 245 242 151 209 270 401 453 642 757 1227 1471 1645 1586 1670 1574 1906 2506 2250 2564 2678 2520 2411 2599 2227 2183 2129 2236 2290 2172 2058 1940 1927 1956 2008 2031
169 21 0 0 28 94 15 298 632 507 532 328 296 174 219 539 384 301 548 644 709 823 957 1475 2026 1672 1783 1900 2000 2590 2763 2267 2716 2671 2410 2388 2180 2134 2194 2373 2458 2323 2126 1979 1930 1887 1951 2023 2178
64 2 4 12 155 137 69 280 493 716 605 448 260 199 403 687 255 459 690 821 678 833 1296 1455 1882 1888 1977 2055 2120 2352 2876 2678 2872 2623 2466 2396 2299 2346 2383 2359 2194 2042 1895 1881 1928 2098 2271 2362 2388
96 17 20 57 304 212 120 246 548 595 516 398 306 417 608 414 237 528 743 969 1074 1261 1346 1881 1912 2241 2267 2725 2635 2790 3036 2866 2588 2553 2496 2466 2475 2444 2501 2380 2224 2069 2048 2182 2220 2188 2182 2237 2234
27 3 20 50 287 196 292 405 673 468 487 455 442 412 400 385 315 585 750 1086 1228 1369 1550 1907 2047 2040 2270 2052 2828 2218 2684 2455 2298 2312 2469 2533 2339 2397 2241 1977 2272 2275 2297 2060 2382 2197 1956 1952 2135
2 23 21 22 251 251 497 367 696 633 672 516 505 507 288 483 383 540 842 1177 1374 1613 1789 1913 2000 2303 2417 2135 2134 2410 2237 2210 2254 2269 2188 2026 1888 1920 2013 1876 1967 1956 1794 1812 2325 2041 2107 2038 1680
2 41 11 4 99 263 466 498 772 843 595 489 665 684 641 756 471 478 676 921 1127 1243 1642 2026 2145 2101 1997 1952 1887 2140 1763 1438 1600 1919 1941 1913 2096 2130 1899 1503 1804 1831 1518 1953 2020 2016 1738 1435 1486
12 45 14 4 3 277 534 525 696 619 490 493 776 1002 875 887 636 604 558 687 818 1173 1338 1732 2066 2142 2031 2517 2435 2519 2229 2136 1965 2182 2111 2283 1893 1626 1531 1620 1300 798 1660 1651 1467 1515 1478 1604 1375
0 1 10 7 86 260 477 624 499 470 160 359 811 1019 998 914 851 712 638 751 856 1066 1396 1538 1911 2298 2329 3023 2084 2825 2059 2198 1672 1852 2380 2346 1818 1580 1749 1517 1707 2233 1710 1729 1621 1419 1530 1200 924
0 0 0 8 91 177 424 573 501 526 255 610 930 1060 1028 958 940 901 858 848 1091 1128 1581 1859 2118 2336 2409 2297 1875 1800 2467 1598 1546 1988 1950 1812 1697 1965 1918 1646 1882 1929 1692 1506 1450 1427 1339 1086 761
0 0 0 26 71 121 318 429 352 351 749 886 1019 1095 1084 1065 1098 1238 1250 1182 1289 1280 1503 1916 2312 2509 2579 2383 2553 2439 2499 2385 2015 2019 1730 1997 1918 2038 2650 1824 2084 1530 1527 1217 1305 1271 1044 827 805
0 18 31 41 26 171 345 506 469 409 901 903 913 1042 1115 1181 1269 1370 1257 1269 1538 1680 1429 1549 1913 2295 2589 2611 2799 2429 2267 2116 1595 1626 1921 2185 2267 2306 2268 2307 2182 1578 1258 1207 1117 1099 788 633 479
0 26 27 35 162 284 152 71 452 661 907 824 741 904 1057 1098 1193 1360 1432 1437 1843 1869 1762 1530 1370 1695 2129 2227 2732 2117 2169 2069 1898 1950 2207 1887 2095 2277 2465 2546 2185 1350 1241 961 1062 969 806 773 580
0 2 31 48 127 337 210 124 394 675 825 847 824 883 1023 1116 1240 1504 1613 1786 1878 2136 2148 2037 2183 2208 2574 2675 2715 2445 2505 2558 2372 2337 2270 2232 2050 1917 2262 2435 1958 1378 1256 1419 1043 820 955 780 628
0 9 38 90 61 302 204 211 560 575 683 786 970 1020 1123 1257 1516 1695 1804 1801 1984 2071 2268 2357 2251 2561 2866 2870 2892 2888 2835 2984 2294 2254 2167 2121 2023 1611 1814 1767 1527 1362 1397 1105 959 1049 947 878 794
0 24 72 65 45 89 188 160 462 539 512 632 976 1136 1174 1172 1223 1438 1699 1766 1961 2086 2192 2318 2384 2643 2727 2309 2186 2312 1772 2416 2254 2277 2219 1898 2070 1758 2016 1917 1659 1484 1184 1062 1063 952 903 463 590
0 11 52 23 38 67 78 94 238 576 512 507 636 849 938 1042 1235 1398 1509 1479 1663 1967 2097 2320 2541 2778 2780 2595 2735 2371 2376 2317 2153 2269 2329 2092 1919 1998 1974 1722 1373 1139 757 998 860 902 535 496 594
0 0 27 30 6 54 101 75 168 494 516 420 408 491 574 674 874 994 1124 1284 1417 1665 1967 2187 2764 3112 2881 2840 2705 2587 2474 2514 2400 2363 2335 2193 2135 2026 1756 1453 1098 1033 600 164 538 425 637 287 542
0 0 5 65 49 39 60 27 79 269 570 514 486 426 432 484 605 706 818 1009 1247 1404 1617 2174 2568 3050 2935 3027 2580 2694 2304 2131 2225 2594 2452 2374 2272 1661 1473 1351 720 762 311 468 319 291 599 700 223
0 0 0 20 49 5 47 3 4 160 344 619 599 532 455 410 461 573 690 776 958 1215 1344 1687 2519 2873 3357 3116 3161 2726 2627 2427 2558 2342 2041 2478 2104 1525 1004 643 547 576 435 464 187 612 471 398 172
0 0 0 0 0 0 0 4 0 128 210 296 421 473 494 453 454 511 585 613 760 988 1161 1459 2433 2975 2739 2782 2959 2931 2971 2858 2605 2186 1360 1378 1604 885 497 302 498 754 619 322 128 325 289 294 328
0 0 0 0 0 0 0 0 5 17 110 151 191 304 361 410 409 458 603 631 770 1043 1213 1417 2221 2609 2340 2426 2836 2827 2866 3143 3065 2753 1770 1247 1167 717 271 301 444 543 567 166 115 205 207 215 189
0 0 0 0 0 0 0 0 0 40 32 59 137 217 233 272 329 422 661 944 941 1030 1218 1490 1988 2374 2168 2124 2798 3024 3084 2798 2837 2621 1760 1221 1134 833 294 308 373 550 177 17 60 28 9 135 157
0 0 0 0 0 0 0 0 0 0 3 4 58 138 317 366 542 618 659 809 1143 1274 1599 1795 2104 2331 2262 1997 2778 2810 3157 3051 2840 2452 1512 1083 1078 426 296 297 378 244 0 14 95 0 16 117 251
0 0 0 0 0 0 0 0 0 0 13 67 42 134 326 561 674 707 1003 1009 1211 1221 1511 1644 2005 2254 2350 1980 2324 2516 2801 2956 2901 2564 1335 621 670 322 323 311 200 132 32 25 165 15 3 49 11
0 0 0 0 0 0 0 0 0 13 257 77 83 115 294 614 828 1030 1202 1069 1197 1270 1336 1721 1709 2110 2042 2124 2679 2869 2800 2720 2769 1908 1588 334 385 438 338 337 189 169 147 139 204 251 37 5 100
0 0 0 0 0 0 0 0 0 0 0 2 24 43 105 650 997 953 1053 1079 1108 1348 1254 1446 1603 1646 2154 2500 2656 2452 2523 1514 1477 1801 164 304 225 297 354 347 302 295 256 281 286 197 0 80 142

GFSSGP_con_sbcape_006.txt.gz
CAPE
1685 1726 2061 2279 1232 121 160 118 155 259 330 197 36 70 142 127 127 225 273 482 425 544 656 673 930 860 745 760 1233 1586 2083 1793 2445 2142 1636 1596 2035 2271 2479 2552 2390 2318 2316 2310 2046 1863 1895 1892 1875
1863 1766 1911 1518 82 70 232 210 256 342 283 326 266 241 204 162 120 167 415 459 411 353 456 409 1227 1089 832 756 1260 1392 1448 1453 1965 1757 1580 1762 2026 2156 2448 2335 2267 2318 2197 2039 1965 1909 1873 1810 1911
1161 1532 1581 59 4 103 195 300 446 372 220 219 388 337 251 218 220 293 443 419 457 484 362 790 1128 1027 935 972 1403 1868 1922 1974 2112 1774 1782 1848 2027 2461 2499 2266 2246 2205 2073 1923 1780 1682 1787 1906 2031
1435 1250 894 29 0 0 134 420 564 526 368 271 260 325 323 269 353 442 501 505 534 700 677 590 749 1005 1022 1331 1593 1780 1963 2026 2094 1904 1880 2084 2421 2283 2129 2097 2214 2081 1955 1907 1869 1859 1853 1857 2055
987 323 25 3 0 0 53 447 552 528 438 266 228 291 358 571 452 557 711 721 796 809 971 683 1542 1440 1264 1469 1749 2097 1772 2062 2220 2295 2154 2357 2119 2114 2111 2319 2305 1988 1826 1882 1811 1919 2025 2121 2219
454 95 76 29 0 15 75 414 545 614 607 450 328 547 652 550 602 846 971 907 890 1011 967 1342 1697 1869 1875 1958 2179 2421 2129 2248 2406 2313 2285 2272 2188 2259 2270 2259 1991 1911 1816 1839 1972 2078 2018 1975 2060
240 106 89 91 12 7 54 197 349 619 674 380 360 671 838 520 856 1142 1247 1077 908 1089 1269 1458 1492 1981 2221 2222 2325 2349 2218 2085 1971 2187 2286 2204 2222 2196 2169 1911 1736 1931 2095 2186 2026 1995 1763 1844 1843
246 104 62 82 100 32 26 157 308 217 549 404 398 571 774 543 864 1114 1167 1114 1124 1308 1499 1720 1877 1962 1898 2011 2330 2302 2031 1581 1781 2148 2166 2288 2278 2159 2013 1891 1959 2004 1782 1850 2107 1857 1850 1938 1878
150 177 83 74 138 127 141 183 405 370 570 529 543 378 483 394 720 1006 1207 1047 1358 1316 1453 1629 1767 2007 2082 1417 1572 1797 1780 1890 1943 2146 2106 1764 1402 1648 1567 1610 1690 1948 1753 1757 1894 1842 2007 1756 1727
31 205 92 31 70 277 194 199 561 603 538 476 679 462 404 421 795 967 1197 1430 1407 1404 1476 1297 1678 1779 1774 1391 1803 1872 1378 1137 1102 1137 1372 1258 1467 1698 1243 1567 1596 1730 1601 1746 1800 1677 1733 1878 1207
0 81 72 46 23 226 261 291 467 263 440 370 687 676 523 545 803 944 1088 1244 1283 1442 1489 1661 1496 1862 1856 1735 1666 1628 1471 1338 1428 1830 1740 1352 1456 1373 1659 1636 1547 1306 1354 1740 1661 1638 1421 1536 1322
0 0 0 27 43 162 336 345 390 248 175 274 490 709 705 727 716 807 981 1095 1159 1283 1302 1436 1615 1785 1780 3127 1740 1547 1325 1334 1220 1305 1824 1898 1678 1615 1914 1666 1762 1845 1477 1611 1586 1348 1574 1473 1192
0 0 0 0 1 22 344 410 360 358 346 408 659 857 767 775 694 752 774 898 1016 1233 1333 1377 1638 2130 2133 2314 1545 1469 1358 1273 1084 1186 1591 1469 1248 1939 1852 1756 1796 1657 1591 1399 1398 1457 1507 1446 1116
0 0 0 0 0 69 416 527 564 429 283 797 873 985 857 844 845 914 823 874 979 1098 1224 1401 1584 1981 2117 2108 1964 1649 1512 1308 1284 1139 1145 1653 1395 1886 1478 1535 1368 1476 1667 1320 1365 1585 1601 1391 999
0 0 0 1 49 289 379 665 610 538 605 1102 1050 1027 935 922 977 1080 1014 1033 1110 1193 1196 1469 1735 1907 2388 2422 2296 2068 1581 1457 1340 1256 1677 1876 2092 2071 1819 1537 1430 1414 1596 1938 1687 1573 1427 993 582
0 0 19 72 202 399 452 245 541 728 799 1203 1051 1047 948 992 992 1118 1168 1187 1201 1331 1466 1542 1446 1683 2210 2208 2113 1880 1570 1536 1510 1332 1647 2133 2059 1912 1900 1588 1399 1255 1374 1484 1460 1413 1025 547 303
0 1 9 220 264 515 520 203 550 790 831 991 986 825 897 1046 1148 1313 1275 1228 1245 1593 1788 1806 1656 1538 1887 2225 2103 2033 1931 3076 2415 1985 1983 1722 2001 1715 1910 1590 1460 1618 1355 1630 1422 1042 672 260 64
1 0 29 39 287 433 447 270 627 822 766 691 1066 846 811 870 1034 1233 1284 1352 1471 1692 2008 2096 1845 1967 2379 3197 3071 2424 2216 1881 1697 1751 2600 2352 2344 1843 1857 1620 1530 1586 1596 1259 1030 941 402 349 60
3 25 43 46 238 354 258 229 356 849 793 724 930 1018 912 726 839 1084 1409 1533 1522 1819 2213 2472 2415 2587 3167 2479 1687 1728 1514 1662 1721 1740 2283 2176 2038 1945 2011 1554 1673 1680 1515 976 609 298 143 10 67
0 3 36 85 145 204 162 226 256 420 861 648 664 962 1170 966 831 1206 1479 1471 1475 1873 2291 2614 2740 2788 3076 2124 2281 1830 1827 1556 1887 1924 2160 2193 2205 2306 1934 1929 1728 1531 371 577 216 158 22 16 44
0 0 17 88 133 170 119 212 159 144 578 674 564 580 978 1068 957 1074 1240 1398 1451 1741 2340 2648 2950 3077 3192 2743 2298 2442 2310 2605 2056 2194 2421 2609 2533 2436 2352 2136 1196 988 160 2 159 162 33 15 229
0 0 3 41 91 111 145 133 65 136 507 639 807 625 526 984 1041 1077 1095 1279 1384 1606 2034 2674 3053 3327 3241 3333 2960 3234 2219 1651 1266 1698 1361 2005 2482 2299 2176 1775 1094 183 0 59 157 32 85 203 23
0 0 0 3 68 100 136 136 63 89 135 479 796 799 503 353 770 987 1072 1050 1322 1481 1797 2317 3078 3616 3597 3319 3846 3013 2858 1663 1334 1427 1970 2351 2144 2242 1445 1695 531 176 88 308 170 87 164 44 23
0 0 4 16 31 80 91 70 10 21 88 82 267 627 700 307 309 653 832 927 1149 1342 1604 1929 2864 3797 3653 3536 3502 3459 2957 2582 1473 1968 1608 1077 1068 1574 1646 1629 687 192 90 301 214 60 71 60 66
0 0 14 35 40 41 60 58 1 1 12 30 16 147 679 487 324 442 695 892 1130 1324 1514 1841 2619 3447 3429 3471 3343 3419 3368 3086 2771 2497 1696 1242 652 741 1316 1793 869 296 432 260 108 57 6 54 42
0 0 8 40 26 29 13 6 0 16 17 0 3 52 407 639 341 408 602 819 1158 1281 1548 1815 2489 3296 3270 3245 3590 4055 3890 3180 2890 2737 1625 965 608 365 565 1715 732 359 284 263 32 0 8 26 33
0 0 0 27 48 28 2 1 0 1 16 3 29 82 199 623 594 354 598 795 1066 1328 1816 2425 3132 3002 3029 2976 3411 3706 4051 3564 2995 2780 2548 1487 1270 361 1054 1165 699 196 326 82 33 0 10 8 12
0 0 0 7 77 47 8 16 0 16 0 0 13 98 239 555 670 496 571 770 1013 1280 1567 1957 2311 2967 2788 2771 2934 3055 3240 3448 3241 3103 3211 2468 1799 1473 945 848 365 254 190 61 96 9 7 6 0
0 0 0 1 10 17 34 3 0 0 0 0 0 110 150 453 806 787 658 709 1060 1152 1365 1789 2156 2444 2701 2706 3320 3116 2923 3007 3396 3342 3438 3033 2585 1627 1121 881 401 302 225 148 188 129 0 1 2
0 0 0 6 4 12 17 1 2 0 0 0 0 5 9 240 745 962 931 971 1035 1302 1255 1444 1769 2170 2532 3125 3354 2907 2894 2988 3197 3882 3274 2691 2794 1400 1129 751 443 672 218 209 303 189 7 11 0

GFSSGP_con_sbcape_009.txt.gz
CAPE
1297 1342 1577 1475 927 105 142 268 148 226 281 76 73 165 136 118 337 590 323 549 379 209 157 445 751 921 1161 1191 1931 2135 1848 1954 2106 2271 2333 2010 2249 2533 2418 2291 2296 2250 2208 1957 1873 1835 1812 1867 1782
1531 1730 2315 2149 652 139 130 176 150 255 92 98 236 210 180 242 285 404 383 281 272 184 180 383 1201 951 1082 1270 1321 1808 1408 1411 1660 1928 1757 1882 2034 2343 2179 2081 2137 2042 2015 1893 1745 1700 1821 1930 2050
2213 1743 1456 1250 20 82 209 252 343 304 324 246 299 304 256 265 346 481 555 407 306 250 306 667 1150 1028 998 1463 1548 1966 1628 1601 1646 1684 1739 1791 2072 2324 2032 2026 2082 2021 1936 1766 1698 1819 1845 1900 2115
1686 1499 1252 38 37 205 258 268 238 257 252 332 387 366 325 338 372 343 383 252 349 320 596 914 973 970 1116 1543 1969 1886 1969 2145 1943 1682 1763 2077 2298 2041 1838 2094 1986 1866 1807 1777 1799 1798 1899 2026 2113
1520 1003 533 1 4 77 360 290 268 313 321 384 469 512 458 533 485 446 496 267 474 780 535 479 1340 1088 1304 1660 1953 2051 1936 2003 1923 1826 2015 2319 2001 1931 1997 2094 1777 1656 1702 1872 1873 1972 1977 1889 2048
931 142 69 28 0 10 165 297 259 341 427 375 565 517 801 672 616 601 628 474 508 712 626 664 1370 1212 1417 1734 2037 1707 1974 2006 2287 2152 2208 2108 2069 2025 2088 1661 1646 1704 1784 1937 2058 1635 1641 1766 1771
661 437 70 38 6 4 23 80 172 246 354 474 666 869 784 759 784 665 775 583 571 917 994 1170 1230 1697 1965 2080 1915 1984 2014 2164 2209 2200 2155 2003 2041 1994 1785 1383 1359 1818 2008 1988 1964 1727 1667 1770 1749
274 50 79 181 26 0 0 52 23 132 344 421 729 891 855 999 909 893 876 864 690 1189 1199 1230 1421 1474 1806 1969 2145 1886 1943 1754 1632 1962 1883 1871 2028 1914 1428 1248 1838 1773 1635 1763 1893 1677 1764 1759 1803
0 56 178 85 66 12 0 8 8 138 179 241 409 714 797 915 1005 1090 1045 893 886 1158 1262 1206 1263 1937 2035 2050 2174 2179 1880 1363 1612 1824 1893 1714 1572 1590 1857 1849 1498 1827 1732 1746 1743 1726 1781 1715 1862
17 28 49 41 114 86 24 28 15 74 120 244 295 752 824 966 1010 1145 1034 1346 1112 1098 1222 1238 1622 1383 1394 1023 1727 1391 921 850 984 1084 1255 1348 1695 1994 1107 1700 1732 1736 1736 1679 1754 1791 1962 2086 1930
3 156 67 66 48 90 36 53 30 76 76 200 328 634 741 988 1036 1130 1018 1089 906 862 1160 1392 1857 2384 1470 1923 1166 1375 1298 1200 1155 1432 1634 1290 1453 1890 1395 1625 1880 2129 1889 1754 1947 1853 1842 1274 1192
0 6 20 72 10 98 67 89 41 6 57 99 331 483 628 951 1030 1007 1061 1063 1124 1071 1130 1157 1910 2163 2051 1889 1152 1236 1093 985 1020 1280 1809 1938 1733 1746 1414 2087 1943 2143 2146 1741 2343 1973 1298 1289 1295
0 5 5 4 10 23 189 145 35 11 7 97 366 409 542 856 1005 966 918 953 1079 1152 1251 1220 1346 1763 2265 2330 1227 1278 1247 864 879 1093 1574 1613 1341 2690 2086 2459 1524 1979 2025 1933 1765 1796 1509 1349 1610
1 2 0 3 10 5 141 76 135 25 10 202 517 468 526 658 841 967 917 897 947 986 1044 1130 1514 1907 2029 2320 2208 1779 1543 1723 871 962 1233 1856 1681 2447 1685 2884 2086 1908 1718 2675 1997 2328 1555 1944 1382
0 0 1 0 4 3 22 57 5 90 210 268 514 565 486 585 646 843 873 929 925 1027 1079 1162 1309 1759 2066 2072 2543 1725 1268 988 1143 878 1345 1512 1833 1825 2220 2126 2011 1294 2251 2028 2087 1960 2073 1538 329
0 0 16 65 6 6 5 107 136 169 176 233 400 614 536 552 553 772 820 858 955 1041 1216 1251 1099 1301 1780 2110 2403 1819 1449 1966 1536 1406 1730 1880 2085 2304 2352 1788 1734 2009 1698 2096 1918 1795 816 168 46
0 0 7 14 19 103 59 43 215 344 116 280 285 489 564 605 671 837 838 869 932 1196 1375 1426 1448 1350 2056 3380 2325 2051 2533 1605 2131 2261 1487 2384 3182 2649 2130 1873 1955 1908 2117 1318 1563 1312 1462 45 10
4 11 78 194 13 191 79 143 353 471 325 85 167 230 448 519 656 848 951 985 1038 1254 1497 1780 1603 2540 2896 2804 3966 1899 1596 1910 1838 1787 1406 1994 2084 2371 2155 1799 1788 2122 1698 1437 1353 994 202 78 57
12 64 38 60 23 85 163 173 312 529 494 229 176 110 267 398 631 767 1022 1068 1050 1283 1644 2497 2688 3818 2727 1884 2624 2011 1556 1838 1463 1251 3169 2586 2278 2681 1964 2073 2139 1799 2145 1729 441 167 115 16 82
0 27 69 41 30 46 139 195 342 734 491 506 340 186 145 237 370 762 1076 1078 1089 1415 1985 3197 3447 4157 3580 2491 2811 2493 1768 1408 1069 1412 2504 2144 2821 2493 2448 2670 1567 1599 831 495 191 94 15 16 114
0 7 45 79 144 108 155 128 176 246 685 554 405 395 254 180 142 634 915 1113 1208 1505 2277 3219 4163 4317 4152 3641 3483 3089 3014 2196 2296 1781 2301 2194 2408 2183 2470 2213 2187 1462 503 0 266 134 29 7 61
0 0 14 62 44 129 42 170 169 146 208 627 608 510 355 247 235 400 923 1230 1180 1585 1900 3328 4159 4419 4279 4192 3078 3543 2153 1554 847 1099 1027 1884 2719 2164 2247 2300 1169 924 55 542 129 27 88 96 20
0 0 14 35 141 174 63 111 75 74 158 266 571 676 470 286 351 360 750 1082 1162 1354 1641 2768 4273 4552 4515 4302 3799 2562 2637 1340 1206 774 2379 2257 3333 1595 1393 1269 963 348 0 189 320 39 168 205 6
0 0 23 30 70 102 155 112 149 36 142 206 243 572 761 517 370 623 572 907 1067 1215 1526 2534 4302 4700 4650 4583 3883 4090 4059 2792 1404 1442 1486 1620 1409 1611 1425 955 1003 358 34 235 247 168 101 68 159
0 0 16 59 66 40 84 149 145 166 117 88 95 139 459 785 391 491 810 890 1402 1872 2173 2671 4189 4734 4653 4350 4329 4389 4408 4387 3721 2736 1844 2082 678 949 2587 1791 1420 653 475 356 254 218 196 75 39
0 0 0 24 46 47 43 64 79 118 45 86 69 44 94 560 662 289 577 1160 1884 1773 2556 2801 3707 4612 4710 4404 4611 4629 4634 2667 2278 2864 2057 1178 831 919 2825 1735 1309 810 342 410 335 51 13 191 46
0 0 0 29 77 69 62 58 34 41 90 75 45 25 42 175 588 514 373 630 1365 1633 2466 2883 3740 4310 4436 3615 4760 4763 4635 4468 2722 3297 3714 1995 2157 904 880 1505 1203 898 231 401 205 34 337 63 73
0 0 0 13 104 88 78 79 61 71 37 8 40 14 22 52 473 628 459 528 1037 1137 1800 2693 3396 4113 3847 4038 4279 4181 4383 4664 4472 4732 4276 3271 2594 2445 2066 1888 1389 817 759 878 538 444 377 215 41
0 0 0 4 44 69 85 85 69 130 44 14 8 12 38 58 326 684 604 553 733 872 1417 2009 2645 3579 3838 3938 3937 4138 3896 4054 4551 4433 4247 4223 3343 3271 2343 2432 1923 1007 813 759 941 500 174 413 621
0 0 0 23 45 28 120 81 28 22 21 28 12 5 6 49 197 582 724 636 740 1110 1054 1299 1635 1915 2942 3573 4228 4282 4308 4219 4103 4569 4569 4281 3780 3527 2689 2351 1862 1081 588 202 871 548 365 128 175

GFSSGP_con_sbcape_012.txt.gz
CAPE
871 832 875 1148 610 64 171 225 105 99 51 77 58 73 269 406 397 101 297 219 141 151 157 413 1211 1306 1328 1912 2331 2517 2563 2657 2754 2852 2866 2965 3073 2961 2829 2717 2433 2513 2380 2162 1934 1961 1906 1945 1642
670 1131 1477 312 169 198 232 237 266 11 29 215 154 128 251 324 194 236 337 186 123 85 97 279 1611 1674 1812 2199 2225 2174 2268 2237 2538 2555 2607 2857 2986 2799 2425 1984 1916 1888 1937 1743 1694 1801 1820 1944 1884
958 1394 1154 1215 146 85 316 298 212 227 147 299 176 182 259 375 480 438 258 204 55 169 359 647 1709 1856 1912 2005 2283 2250 2218 2124 2386 2437 2428 2727 2782 2460 1933 1938 1852 1731 1674 1666 1702 1781 1780 1808 1933
1822 884 1601 975 200 205 175 173 243 279 368 318 252 117 309 376 336 226 360 248 104 472 353 1146 1798 1613 1992 2231 2150 2150 2413 2276 2277 2193 2365 2595 2318 1754 1984 1861 1581 1507 1537 1638 1824 1771 1796 1753 1851
912 986 989 239 298 215 159 255 150 167 366 304 280 457 355 246 286 304 278 254 320 544 397 712 1882 1971 2093 2380 2477 2179 2249 1994 2214 2188 2244 2006 1802 1675 1998 1599 1407 1465 1646 1828 1921 1514 1604 1487 1631
577 502 364 4 0 87 102 254 176 320 301 348 330 380 339 250 487 339 411 342 490 419 241 564 1610 2024 2243 2307 2367 2492 2076 1955 2098 1956 2062 1833 1705 1759 1708 1348 1395 1525 1753 1962 1821 1471 1529 1513 1380
174 377 141 49 0 12 26 78 75 257 438 329 592 467 376 449 585 374 462 575 485 391 636 901 975 1512 1889 2640 2257 2104 2008 2184 2026 1963 1974 1758 1714 1675 1584 1339 1285 1605 1679 1712 1762 1404 1480 1516 1470
575 220 66 48 2 0 0 27 43 37 476 367 468 334 529 670 788 642 512 557 741 894 863 1341 1501 1301 1701 1726 2102 1913 1924 1795 1823 1849 1733 1542 1699 1737 1779 1619 1813 1527 1407 1568 1619 1440 1455 1410 1625
54 33 120 14 3 0 0 0 72 192 234 577 493 380 534 600 813 718 631 748 950 990 987 1113 1228 2073 2305 1970 1639 2003 1799 1413 1524 1581 1756 2170 1592 1759 2011 1906 1765 1656 1578 1447 1552 1710 1776 1890 2035
96 42 9 2 18 2 11 0 0 0 16 246 604 508 535 713 935 746 687 663 996 736 1100 995 1579 1902 1920 1197 2273 2311 1502 864 1198 1419 1990 1644 1076 1769 1816 1786 1595 1971 1765 252 1135 2163 1747 1842 1994
6 25 1 14 24 10 6 4 0 0 4 79 704 640 556 859 1085 975 821 776 610 969 987 1404 1701 2135 1667 2231 1972 1624 1282 1290 1469 2781 1875 2198 1353 2844 755 1028 1385 1456 948 141 1036 2061 1534 1699 1402
10 5 32 8 98 61 11 20 7 6 22 77 711 784 682 746 960 664 782 675 900 1310 1580 1626 1686 2457 2503 1644 1222 1590 1469 1556 1479 2006 3056 3092 2816 2179 1052 719 1342 503 754 1114 1922 1595 1844 1707 1409
0 24 20 11 9 35 16 11 27 21 30 42 266 701 790 693 625 762 482 775 940 1209 1534 1716 2157 2979 3501 2976 2142 1269 2199 1157 1017 2340 2614 2079 2883 2494 891 2632 2794 1974 1009 2174 2634 1990 2510 2370 1572
0 0 0 1 1 6 147 57 1 5 16 38 167 405 705 720 516 849 823 776 1098 803 1568 2108 2353 3158 3159 3116 3476 3701 1846 1839 1870 1016 2463 3092 3021 3257 3031 3016 2333 1871 2012 2781 2332 2649 2522 2640 1874
0 0 2 0 0 26 9 36 41 4 3 72 80 233 465 657 694 741 756 974 1233 1266 1580 1979 2147 2146 2751 3584 3397 3385 2294 1415 1171 1887 2427 2983 3300 3352 3331 2849 2857 2332 2192 2382 2123 1628 2491 887 1362
0 0 0 0 1 1 2 122 0 35 2 4 133 160 298 418 568 813 695 826 983 1066 1813 2033 1093 2017 2052 2852 3477 2369 1768 1806 1552 2709 1251 2964 3386 3043 3457 2817 1139 2226 1620 2175 1812 1945 1845 499 605
0 0 0 0 1 7 13 40 141 144 56 17 105 164 173 508 578 871 745 1000 928 1605 2276 2164 2193 2253 2396 3140 2563 2810 2495 2282 1693 2174 2572 1797 1925 3353 2662 2769 1675 2534 2693 1926 2040 1749 1723 1119 556
0 0 1 17 37 28 151 114 64 98 85 116 19 104 260 219 370 727 753 818 1093 1538 2225 2214 2266 3416 2915 2903 2799 2846 1945 1869 1862 3626 1397 2281 2920 2968 2680 2722 2816 2871 2732 1120 2082 989 757 629 394
0 1 0 0 45 14 252 3 0 0 186 73 118 85 172 283 439 712 794 828 942 1558 2302 2371 2519 3530 3639 3353 2316 2423 2645 2271 2184 2365 3042 2876 3110 3232 3021 3013 2431 2316 2053 563 962 1057 598 807 536
0 0 5 14 60 65 193 202 40 184 391 139 85 34 52 47 287 692 961 857 977 1612 1984 2710 2785 3784 3468 3258 2963 2420 2373 2426 1765 2342 2971 3328 3216 3685 2642 2717 2936 2207 2093 1783 1108 625 663 517 912
0 0 0 1 25 23 59 123 454 321 180 226 73 67 20 65 73 684 955 938 1189 1548 2269 2792 3190 3456 3271 3333 2869 3070 2732 3246 2748 2724 3277 3083 3397 2827 1899 2737 2535 2539 1312 1300 1307 966 671 339 960
0 0 0 0 34 31 33 28 70 114 434 203 204 110 97 65 107 486 927 1229 1233 1530 2250 2864 3264 3418 3641 3190 2980 2793 2161 2430 2292 2223 2291 2943 3128 3084 3279 3073 2881 2248 1263 1846 1239 847 386 1004 463
0 0 0 0 19 37 189 106 319 333 406 578 240 290 241 220 121 188 816 1161 1216 1591 2130 2650 3537 3631 3475 3455 3024 2944 2776 2057 2330 2030 3380 3040 3229 2962 2743 3084 2585 1758 777 1837 927 858 583 824 701
0 0 0 0 1 9 64 47 84 238 78 35 381 396 440 406 326 346 757 1087 1322 1517 2170 2228 3724 3822 3719 3953 3252 3668 2594 2308 2335 2335 2919 2773 2789 2570 2874 2266 2137 1686 911 1487 1082 938 725 496 862
0 0 0 0 18 6 40 100 185 237 178 61 25 89 595 637 516 540 715 1154 1424 1596 1967 2461 3591 3823 3847 4049 3712 3302 3558 2854 3314 4121 2904 2443 1945 2161 2603 2285 1879 1500 1250 1769 1304 1429 1062 728 554
0 0 0 0 3 12 13 31 96 193 68 42 65 10 424 746 579 656 769 1066 1559 1545 2029 2455 3319 3730 4058 3701 4126 3742 3529 3528 3173 3250 2976 2743 2081 1701 1972 1854 1707 1843 1138 1161 1308 1068 450 748 636
0 0 0 0 1 21 24 29 19 125 144 26 1 48 197 709 716 548 1000 989 1600 1598 1952 2390 3482 3855 4118 4085 4152 4133 3861 3674 3372 3066 2999 3253 2385 2829 1762 1720 2108 1474 1266 1279 1496 440 486 820 1036
0 0 0 0 3 23 18 86 113 132 353 78 94 60 64 43 816 812 680 1206 1500 1735 1903 2471 3005 3860 4202 4173 4109 4062 4133 3678 3188 3223 3425 2469 2968 2328 2327 2116 1883 1536 1180 864 1108 395 910 572 635
0 0 0 0 0 13 38 29 148 417 729 401 163 72 41 32 264 736 790 838 1441 1833 1904 2306 2622 3652 4104 4117 4060 4067 4025 3984 3467 3889 3287 3529 2771 2495 2463 2168 1822 1597 1127 1119 914 601 388 569 541
0 0 0 0 0 0 0 7 29 333 167 266 92 95 53 49 173 444 963 801 1108 1478 1700 2162 2602 3178 3748 3899 3952 3977 4049 4016 3976 3434 3886 3328 3862 3017 2365 2265 2000 1646 752 1123 609 371 213 728 655

GFSSGP_con_sbcape_015.txt.gz
CAPE
754 686 488 354 354 58 109 90 143 28 27 8 69 252 152 109 16 1 28 41 57 109 212 552 1374 1732 1725 2190 2447 2611 2713 3004 3025 3093 3098 3144 2627 2624 2880 2471 2376 2581 2447 1815 1811 1863 1948 1742 1478
566 547 11 30 201 60 63 109 197 60 35 11 225 287 139 35 2 37 46 41 46 68 136 601 1618 1917 2166 2434 2609 2569 2345 2257 2782 2893 3121 3019 2650 2769 2467 2019 1987 1961 2223 1722 1786 1761 1823 1918 1693
768 869 583 166 164 210 135 123 9 222 148 126 165 225 170 69 54 60 15 14 1 31 171 747 1913 2082 2248 2191 2489 2483 2435 2221 2587 2700 3067 2965 2818 2375 1987 1936 1823 1739 2106 1830 1767 1801 1790 1841 1735
557 213 878 443 135 285 150 131 138 59 183 191 181 99 238 326 230 75 37 0 6 136 539 1628 1994 1814 2115 2366 2415 2234 2301 2260 2501 2588 2920 2817 2608 1992 1910 1685 1594 1543 1656 1834 1969 1770 1668 1709 1847
720 568 678 279 186 139 203 338 399 239 222 233 249 252 198 57 85 160 38 214 119 262 703 1273 2225 2506 2476 2366 2365 2509 2101 1984 2481 2671 2772 2712 2529 2028 1786 1539 1402 1477 1628 1820 1752 1451 1661 1507 1626
680 831 435 124 163 182 116 292 223 217 459 294 197 166 68 201 188 85 65 220 133 310 575 957 1970 2405 2729 2259 2129 2726 2360 2079 2558 2697 2586 2507 2513 2528 2058 1614 1379 1521 1707 1764 1667 1527 1581 1620 1550
235 89 58 43 16 207 235 313 285 238 379 383 181 255 186 123 96 153 136 282 125 177 346 875 1104 1591 2164 2814 2324 2367 2507 2477 2505 2718 2563 2305 2023 1922 1630 1423 1417 1550 1527 1657 1695 1454 1595 1713 1996
137 192 15 62 64 37 95 200 464 233 468 335 191 279 179 218 166 229 273 266 36 272 544 623 916 1233 1778 1779 2141 1957 2162 2146 2101 2375 2084 2012 1649 1626 1627 1692 1712 1441 1372 1527 1648 2040 1845 1831 2386
161 122 85 44 55 0 27 380 392 521 482 367 357 246 358 256 263 280 315 305 460 562 588 701 911 1101 1249 1311 1604 2025 1894 1949 2085 1966 2235 2009 1372 1214 1412 721 1686 1601 1633 1633 1144 2591 2378 2471 2910
20 7 26 34 43 0 31 343 345 618 522 382 406 452 440 458 338 324 364 419 628 649 790 845 940 1121 1143 1344 1389 1440 1360 1000 1056 1259 1182 1307 685 666 1628 1103 1409 1530 1554 859 438 1662 2897 2085 1435
0 0 9 3 10 15 3 0 1 338 506 338 342 626 617 555 356 348 459 513 660 557 744 901 1204 1346 1016 960 1147 1334 1077 570 483 739 1030 881 1153 1016 613 264 772 574 68 10 775 1012 1618 1226 665
3 11 5 16 60 16 9 0 0 0 232 445 392 533 625 524 438 361 335 354 565 497 895 857 1133 1096 1101 1173 1063 1221 882 495 556 976 1199 1548 863 416 294 502 852 548 126 151 868 580 704 1197 548
0 6 46 42 57 40 24 12 0 10 510 579 476 429 698 557 538 382 394 302 347 778 848 843 1120 1171 1251 931 578 664 745 730 735 1016 1438 895 1081 525 350 451 681 366 23 619 881 818 1141 1073 903
0 0 26 14 71 61 38 54 32 64 656 619 575 366 623 698 629 595 470 393 305 904 950 932 1208 1479 1685 1524 1455 1091 1167 766 826 1371 1308 1054 1283 1446 964 1322 1022 1147 767 1311 1498 913 871 1210 793
0 0 0 0 0 105 39 15 4 45 219 651 637 566 482 425 574 144 413 429 639 929 960 1158 1246 1747 1521 1836 1420 1664 629 166 94 691 1623 1435 1520 1582 1479 1230 1343 919 1459 1531 593 1015 765 286 342
0 0 0 0 0 1 53 26 25 1 152 416 529 615 624 509 250 295 334 369 490 778 1079 1347 1300 1561 1458 1641 1854 1472 810 789 836 1402 1503 1586 1610 1555 1730 1527 664 870 648 1157 1057 1138 760 483 121
0 0 0 0 0 0 21 0 0 0 12 72 227 329 446 480 343 364 329 299 418 748 1248 1300 1148 1071 1311 1396 1863 1357 1098 1681 933 1325 1306 1766 1707 1718 1237 1638 1114 715 1112 787 615 309 447 23 0
0 0 0 0 0 0 0 0 0 0 0 25 85 81 139 223 329 401 269 413 500 998 1148 1001 1178 967 808 1767 1231 1272 1342 1366 1400 1195 812 1428 1453 1932 1449 1068 1116 1265 1076 653 313 347 58 0 0
0 0 0 0 5 62 29 5 0 0 0 0 59 6 47 63 88 343 345 396 567 1208 1062 1034 1300 1297 1041 1599 1367 1373 1556 1548 770 961 1056 1502 1386 1503 1496 1529 1289 1652 1033 279 479 113 0 0 0
0 0 0 0 1 78 45 27 6 0 0 0 37 37 28 64 45 234 287 308 577 1069 976 883 932 2210 1586 1502 1320 1330 1360 1529 1094 897 1640 1343 1481 1774 1284 1272 1276 1405 823 210 0 0 0 0 18
0 0 0 0 0 24 57 35 0 0 15 9 24 22 27 45 66 179 208 267 302 803 1160 1129 913 2271 2020 1858 1339 1369 1623 1726 1796 1321 2207 1932 1910 1826 1175 1479 1299 703 160 37 0 0 0 0 29
0 0 0 0 0 56 46 55 15 170 278 85 59 0 7 36 72 145 258 295 299 842 1306 1241 1402 2124 1823 1800 1507 1317 1092 1035 1190 1530 1508 2086 2148 1672 1245 1311 1362 577 188 102 6 5 0 38 0
0 0 0 0 0 4 0 0 8 86 8 0 1 0 0 0 14 103 377 316 432 774 1036 1722 1576 1723 1942 1969 1446 1390 1269 959 1264 1517 1391 1996 1976 1743 1714 1537 1194 129 4 189 87 15 10 45 56
0 0 0 0 0 0 0 0 0 6 0 0 39 3 0 0 0 83 270 403 388 880 1385 1825 1963 1911 2248 1652 1868 1675 1561 1451 1025 916 1829 1893 1520 1534 1934 1485 300 47 8 90 51 61 72 50 22
0 0 0 0 0 0 0 0 0 59 6 72 93 17 129 34 4 0 210 509 513 901 1337 1885 2026 2069 2356 1979 1620 2008 1591 1478 1155 1345 1789 1764 1652 1441 1576 946 287 56 27 184 108 110 66 57 19
0 0 0 0 0 0 0 0 0 16 29 75 92 46 16 26 19 2 206 397 666 757 1329 1948 2195 2048 2372 2486 2179 1564 2186 1432 1226 1391 1851 1561 1527 1286 1120 790 286 122 26 514 264 194 68 79 19
0 0 0 0 0 0 0 0 0 8 41 61 24 94 69 4 1 30 103 319 638 736 1495 1581 2576 2416 2559 2584 2642 2203 1896 2205 2042 1893 1792 1572 1018 1009 1094 871 443 196 100 69 312 214 28 114 54
0 0 0 0 0 0 0 0 0 7 40 32 47 19 13 3 3 49 73 340 665 803 1322 1543 2497 2604 2708 2277 2902 2715 2337 2010 2037 2189 1840 2052 1284 1410 921 1089 617 709 187 162 402 57 154 26 108
0 0 0 0 0 0 0 0 0 0 84 44 19 20 42 23 11 87 127 388 794 927 1278 1603 2166 2676 2817 2841 2599 2970 2742 2530 2087 2352 1909 1561 1740 1086 939 1015 1053 598 342 358 385 43 35 148 2
0 0 0 0 0 0 0 0 0 0 137 102 49 15 14 0 55 138 264 347 945 1053 1088 1563 2576 2691 2917 3066 2927 2936 2989 2970 2565 2238 2049 2140 1442 1399 1360 1058 1088 754 455 252 340 69 49 22 125

GFSSGP_con_sbcape_018.txt.gz
CAPE
488 348 223 101 353 69 47 135 78 31 9 27 71 180 2 5 0 0 0 0 9 53 125 566 1396 2024 2189 2415 2771 2849 2915 2666 3086 3176 2706 2218 2252 2323 2289 2085 2040 1981 1847 1824 1870 2115 1920 1682 1535
677 288 109 63 226 71 50 114 109 58 35 82 122 49 11 23 0 10 7 2 66 141 243 795 1829 2090 2030 2451 2713 2788 2445 2339 3099 2999 2689 2318 2270 2252 2027 1957 1862 1795 1810 1871 1840 1809 1947 1921 1732
507 58 18 24 148 85 45 90 79 40 242 191 213 32 6 12 3 0 0 48 61 115 397 931 2059 2236 2159 2323 2539 2659 2553 2062 2605 2667 2159 2059 2083 1961 1856 1785 1722 1749 1808 1830 1830 1805 1824 1895 1731
925 297 204 865 131 122 113 90 88 158 177 67 34 110 45 46 52 26 25 0 1 184 562 1469 2073 1558 1947 2191 2285 2064 2031 2043 2351 2789 2171 2024 2069 1877 1681 1593 1546 1688 1868 1896 1662 1684 1610 1764 1958
408 612 333 248 283 136 105 174 192 183 245 180 134 242 123 92 25 34 0 3 94 381 778 1070 1973 2211 2287 2120 2005 2067 1871 1768 2315 2725 2065 1915 1988 1786 1622 1447 1496 1680 1791 1867 1611 1451 1653 1551 1735
524 626 233 14 2 182 222 268 255 259 302 181 90 40 18 33 32 0 0 57 256 611 951 1235 1938 2316 2259 2009 1807 2062 1734 1730 2150 2387 2217 2104 2052 1902 1492 1421 1500 1681 1859 1834 1628 1520 1666 1767 1523
57 41 22 0 188 261 351 235 337 296 310 155 82 50 64 101 97 66 88 168 235 695 883 1246 1444 1338 1686 2475 2008 1987 1843 1758 1968 2164 2097 2235 1940 1782 1340 1250 1447 1584 1636 1682 1732 1594 1770 1702 1553
50 12 9 0 0 200 312 335 339 291 317 261 214 197 188 166 66 100 125 185 205 509 735 889 1116 1381 1901 1927 2184 2176 2073 1886 1954 2109 1950 1833 1748 1617 1575 1425 1530 1579 1342 1676 1833 1874 2262 1732 1814
299 5 0 0 6 203 238 314 429 371 291 333 348 206 193 143 128 164 182 102 230 362 677 785 984 1224 1475 1421 1589 2113 2148 2045 2038 1982 1999 2113 1286 1118 1467 1119 1506 1544 1697 1097 469 1606 2539 2357 2217
172 0 2 8 20 69 247 344 501 298 269 349 341 251 186 195 198 243 103 167 216 384 432 721 947 1125 1166 1484 1225 1245 1315 1492 1525 1587 1300 1432 754 595 1578 1366 1220 1517 1443 715 1401 1900 2323 1645 789
18 0 0 1 49 147 363 468 429 327 283 382 331 294 234 253 259 294 251 280 380 436 578 629 805 948 996 1081 1021 963 946 722 664 792 669 746 739 987 914 485 711 424 37 0 363 859 742 1020 821
0 0 0 63 55 9 257 532 540 459 444 364 441 345 271 249 238 305 359 406 467 549 712 681 777 857 762 588 1054 969 838 463 198 238 466 509 518 579 484 161 625 546 39 96 493 532 536 817 488
0 0 5 63 41 10 11 256 666 522 424 481 436 438 352 255 177 185 319 355 488 607 710 797 881 896 696 628 617 612 728 401 192 200 697 776 591 286 173 345 637 620 91 161 607 769 975 848 787
0 0 0 5 21 20 1 24 98 354 445 763 620 548 466 321 193 176 221 337 358 555 683 823 912 840 745 796 431 388 503 376 307 465 863 674 519 280 158 229 674 459 232 8 800 772 458 527 221
0 0 0 0 0 0 33 31 489 554 503 843 751 625 527 437 304 212 187 242 308 573 705 738 905 806 848 700 407 373 442 651 550 643 1032 715 783 638 658 891 653 688 798 908 359 721 428 41 23
0 0 0 0 0 0 4 19 519 684 581 542 797 690 526 455 429 318 261 197 226 619 632 725 1029 950 849 934 511 993 611 85 161 622 908 937 954 1197 800 1134 502 688 457 823 600 734 417 21 0
0 0 0 0 0 39 20 7 2 717 606 506 448 714 718 646 525 459 411 265 230 726 689 625 746 926 760 1028 1145 852 356 632 667 876 899 892 1046 1207 1018 922 793 315 796 493 536 160 168 1 0
0 0 0 0 0 11 4 2 0 739 651 611 530 430 438 439 621 357 120 295 363 729 723 817 721 843 812 911 1131 754 529 790 530 690 879 1289 1333 1247 572 862 873 489 623 459 134 82 0 0 0
0 0 0 0 0 2 3 1 0 238 548 608 561 509 446 430 335 240 194 235 438 599 800 936 783 759 780 994 882 651 619 756 699 802 501 1095 1136 1431 862 669 901 834 642 169 56 0 0 0 0
0 0 0 0 0 0 4 2 0 17 109 348 377 405 441 382 310 172 180 266 261 633 908 913 777 578 577 952 940 643 661 834 882 438 543 857 934 1141 943 882 763 842 99 0 0 0 0 0 0
0 0 0 0 0 0 5 42 0 0 0 9 96 155 227 243 161 190 154 335 342 732 775 740 890 735 538 753 783 769 850 1187 1096 708 823 1038 881 1139 1166 799 763 664 250 31 0 0 0 0 0
0 0 0 0 0 0 2 7 34 0 0 0 0 2 80 106 41 121 196 117 370 586 682 633 1092 1031 901 963 945 964 777 1115 941 892 1197 1418 1208 1217 909 823 687 0 49 0 0 0 0 0 0
0 0 0 0 0 0 0 0 0 2 2 0 0 0 35 42 35 8 162 152 141 515 591 559 692 1414 1350 1227 936 911 774 672 558 771 996 1353 1487 1233 920 805 689 12 0 0 0 0 0 3 0
0 0 0 0 0 0 0 0 0 0 3 15 0 34 2 17 29 0 86 113 114 341 684 624 499 1532 1576 1406 1116 865 698 586 463 659 855 1299 1537 1226 1016 992 558 0 0 14 0 0 0 5 16
0 0 0 0 0 0 0 0 0 0 0 0 18 0 0 3 7 0 16 65 84 161 621 838 751 772 1499 1347 1198 994 907 737 569 436 799 1198 1403 1036 1147 856 185 0 0 0 0 0 0 0 0
0 0 0 0 0 0 0 0 0 0 0 0 10 0 0 0 9 3 9 120 93 204 673 1144 990 882 1372 1502 1287 1158 1046 929 918 591 828 1218 1262 1223 1065 687 150 0 0 0 0 0 0 0 0
0 0 0 0 0 0 0 0 0 0 0 0 3 0 0 0 0 0 7 80 170 243 778 1091 1305 1150 1461 1446 1409 1496 1387 1122 1100 717 1200 1064 1204 1048 913 684 140 12 0 83 66 21 0 21 0
0 0 0 0 0 0 0 0 0 0 0 0 13 5 2 1 1 1 0 126 260 217 764 1140 1482 1404 1603 1753 1498 1363 1492 1604 1288 817 1120 1149 1006 1020 815 553 153 53 4 49 67 55 1 0 4
0 0 0 0 0 0 0 0 0 0 0 0 0 25 33 32 6 18 21 76 231 356 780 1317 1521 1464 1701 1930 1864 1716 1404 1279 1647 1586 1479 1306 968 702 791 567 251 115 51 0 130 6 5 0 0
0 0 0 0 0 0 0 0 0 0 0 0 5 33 71 72 27 6 30 44 163 516 813 1252 1791 1675 1740 1996 2051 2038 1970 1719 1509 1577 1776 1448 1277 653 767 663 408 277 164 69 41 31 21 20 0

GFSSGP_con_sbcape_021.txt.gz
CAPE
324 310 152 153 208 5 53 115 34 1 13 66 36 6 17 0 0 0 0 0 13 0 140 558 1254 1877 1990 2336 2600 2435 2482 2285 2406 2246 2100 2004 2111 2132 2062 2013 1937 1856 1806 1797 2161 2008 1833 1669 1560
365 189 80 70 76 8 23 72 38 31 71 67 86 47 22 7 9 12 5 0 0 77 200 649 1361 2203 1866 2233 2412 2579 2247 2268 2231 2137 2200 2156 2159 1985 1895 1830 1744 1786 1845 1820 1830 1905 2054 1753 1596
462 8 13 42 31 28 46 74 47 173 211 259 47 22 4 36 11 2 0 33 8 162 412 730 1577 2218 1800 1986 2240 2448 2644 2117 2024 2031 2077 2117 1979 1822 1733 1675 1708 1774 1797 1864 1887 1841 1831 1735 1627
115 225 151 180 98 109 135 119 108 305 89 47 33 56 52 0 1 1 42 57 70 317 622 1123 1875 1652 1669 1791 1842 1918 2059 2197 2076 1995 2020 2065 1895 1748 1615 1576 1598 1778 1846 1885 1663 1753 1677 1802 1542
407 437 220 162 72 164 71 189 211 169 142 40 101 33 24 32 18 35 89 41 104 404 689 1108 2093 2109 1904 1690 1665 1613 1717 2121 2275 2007 1952 2060 1811 1681 1519 1397 1547 1668 1933 1927 1614 1616 1673 1527 1438
313 310 304 6 0 64 90 252 230 219 177 87 48 32 66 49 35 52 52 24 229 490 768 1200 1655 1777 1787 1684 1740 1646 1620 1920 2181 2054 1930 2017 1943 1629 1524 1462 1541 1760 1776 1827 1682 1626 1660 1404 1423
60 101 12 0 173 242 276 242 247 156 87 45 31 42 69 77 73 39 60 114 282 737 881 1007 986 1156 1597 1845 1685 1695 1596 1770 2089 1981 1975 1921 1997 1673 1452 1258 1489 1405 1598 1663 1755 1678 1549 1483 1514
80 0 0 0 280 114 271 275 250 146 184 68 73 61 67 116 87 72 121 157 398 859 1010 1086 969 882 1237 1392 1678 1692 1643 1691 1912 1917 1916 1863 1749 1607 1616 1289 1490 1622 1417 1751 1845 1725 1692 1553 1462
69 4 0 0 0 254 291 350 289 248 170 104 209 108 74 145 124 134 176 169 450 668 872 923 1039 1033 1463 1498 1606 1916 1873 1735 1836 1842 1862 2079 1324 1114 1427 1336 1370 1553 1697 1205 1018 1181 2090 1846 1564
313 4 15 0 0 323 360 389 334 294 256 264 161 170 194 179 201 162 177 154 298 459 748 893 910 1288 1288 1620 1376 1469 1452 1425 1589 1587 1409 1556 873 666 1375 1364 1603 1526 1807 366 1446 1986 1921 1356 523
253 200 0 1 5 350 429 438 342 345 306 238 155 220 220 145 207 195 163 158 187 373 569 773 919 1146 1153 1323 912 1036 1005 1054 1094 1114 899 890 634 303 1277 494 536 395 30 0 93 508 555 819 526
0 13 12 1 61 346 423 502 375 342 276 279 193 182 164 163 181 198 154 185 157 290 399 636 833 1003 907 673 895 871 795 572 414 401 395 305 495 445 670 144 263 370 83 0 340 392 658 731 438
0 0 0 0 0 318 404 562 528 379 513 339 272 198 187 210 187 218 164 221 267 326 399 495 704 819 815 432 851 670 610 515 153 74 228 368 309 295 279 135 148 343 124 38 182 374 694 765 654
0 0 0 0 0 38 517 612 626 490 533 488 369 248 257 237 239 255 248 254 351 421 540 531 565 589 604 392 302 438 477 330 119 70 189 520 354 186 103 131 253 379 277 1 136 688 424 434 75
0 0 0 0 0 14 417 462 625 561 577 592 472 341 319 260 239 251 311 307 372 459 611 586 619 562 453 384 327 164 220 348 200 178 463 590 498 203 150 74 511 563 439 424 542 206 231 7 0
0 0 0 0 0 0 0 8 571 445 638 599 505 460 369 266 204 169 294 299 342 438 526 629 842 732 513 512 344 301 168 256 333 499 464 624 670 434 322 477 553 229 566 519 269 425 240 0 0
0 0 0 0 0 0 0 0 406 435 701 633 596 575 467 343 249 162 170 227 278 376 522 560 759 725 609 547 433 363 608 279 109 139 409 651 714 763 583 742 286 252 323 386 381 104 57 0 0
0 0 0 0 0 0 0 0 403 439 746 758 697 667 601 461 364 262 166 142 133 372 462 487 670 721 676 574 639 321 256 319 161 461 528 591 766 1027 756 629 620 198 531 319 94 19 0 0 0
0 0 0 0 0 0 0 0 277 444 464 766 732 704 638 477 369 321 239 220 103 386 440 431 604 674 597 617 752 413 478 352 432 420 535 744 858 1025 553 424 645 368 437 232 0 0 0 0 0
0 0 0 0 0 0 0 0 11 394 403 473 621 720 667 628 496 417 256 271 186 373 508 470 458 431 522 561 820 689 316 231 399 514 345 733 1032 1088 670 414 664 612 469 56 0 0 0 0 0
0 0 0 0 0 0 0 0 0 371 411 460 458 450 487 491 336 396 197 96 260 273 516 563 536 438 464 466 576 306 367 620 495 285 354 369 752 865 917 516 570 561 110 0 0 0 0 0 0
0 0 0 0 0 0 0 0 0 0 396 426 434 435 396 284 253 152 168 112 194 306 442 564 603 502 375 371 518 665 608 593 614 582 536 504 630 767 786 677 546 383 283 6 0 0 0 0 0
0 0 0 0 0 0 0 0 0 0 0 29 153 240 313 242 197 178 83 100 132 263 497 633 602 537 384 289 470 524 344 271 448 657 790 832 794 753 765 614 469 24 34 9 0 0 0 0 0
0 0 0 0 0 0 0 0 0 0 0 0 0 24 75 113 158 191 159 130 205 249 479 624 596 603 473 385 443 457 457 281 348 491 715 693 1038 862 771 609 465 41 0 0 0 0 0 0 0
0 0 0 0 0 0 0 0 0 0 0 0 0 0 2 1 51 93 87 123 123 302 551 561 484 754 700 631 593 567 516 281 299 308 607 665 1073 1043 890 714 503 25 0 0 0 0 0 0 0
0 0 0 0 0 0 0 0 0 0 0 0 0 0 0 0 0 12 21 27 91 130 437 509 435 843 948 936 839 672 587 400 350 119 220 525 1073 1114 1087 817 616 60 0 0 0 0 0 0 0
0 0 0 0 0 0 0 0 0 0 0 0 0 0 0 0 0 3 7 4 56 77 217 487 417 553 1177 1174 1053 859 658 555 497 243 233 497 837 1012 851 905 608 59 0 0 0 0 0 0 0
0 0 0 0 0 0 0 0 0 0 0 0 0 0 0 0 0 0 0 15 36 86 90 464 537 467 738 1234 1113 977 856 753 596 446 522 543 824 907 679 876 479 97 0 0 0 0 0 0 0
0 0 0 0 0 0 0 0 0 0 0 0 0 0 0 0 0 0 5 11 26 41 50 359 650 589 570 972 1105 1072 1020 940 739 642 606 808 819 737 718 747 485 129 11 0 0 3 0 0 0
0 0 0 0 0 0 0 0 0 0 0 0 0 0 0 0 0 0 21 13 23 64 80 425 666 779 719 949 1043 1042 1123 1177 1111 943 804 808 897 709 751 620 411 188 54 0 40 20 15 0 0

GFSSGP_con_sbcape_024.txt.gz
CAPE
274 359 159 189 135 13 18 98 22 3 9 30 6 0 18 20 20 0 9 0 0 11 205 440 1229 1917 2240 2452 2674 2422 2214 2057 2362 2371 2100 1947 1910 1919 1931 1865 1779 1711 1720 1895 1871 1735 1603 1527 1479
235 228 17 22 51 2 2 21 0 31 54 32 31 15 20 40 4 16 14 0 0 39 220 350 1027 2231 2152 2265 2548 2529 1878 1907 2063 2179 2197 2093 1949 1825 1763 1712 1725 1887 1879 1804 1753 1611 1651 1538 1410
375 34 15 31 18 17 3 32 108 85 108 151 15 10 8 37 4 2 0 5 12 57 304 466 1669 2311 2051 2062 2436 2712 2330 1910 1984 2029 2088 1934 1823 1694 1631 1669 1773 1792 1876 1844 1739 1692 1358 1500 1222
182 217 192 123 23 43 62 50 140 120 61 16 10 15 0 3 0 1 13 26 54 196 460 1167 1809 1742 1919 2072 2246 2227 1877 1793 1856 1973 1982 1875 1755 1623 1592 1636 1736 1865 1958 1682 1641 1574 1607 1346 1271
556 246 198 239 99 134 53 94 201 93 35 53 40 1 3 17 0 20 29 63 154 418 547 961 2098 2089 1883 1845 2037 2012 2004 1910 1930 1979 2044 1859 1711 1580 1456 1511 1689 1890 1926 1710 1590 1621 1484 1404 1451
201 233 123 13 0 39 189 166 128 147 92 18 0 2 46 13 34 53 31 86 371 505 719 1167 1845 1755 1724 1664 1618 1696 1945 2115 1956 1899 2018 1907 1728 1586 1509 1540 1698 1836 1861 1754 1578 1641 1521 1354 1705
46 133 45 0 57 185 174 135 154 101 68 43 29 66 76 41 66 56 17 136 375 634 778 1023 1071 1436 1653 1615 1559 1531 1690 2001 2019 1976 1887 2005 1872 1548 1389 1379 1602 1525 1720 1731 1613 1596 1506 1476 1533
256 0 1 2 187 194 210 159 141 78 87 40 56 41 105 36 87 63 61 150 432 669 794 772 759 935 1116 1278 1658 1581 1535 1821 1942 1969 1907 1885 1746 1587 1617 1264 1621 1785 1606 1181 1646 1662 1535 1484 1488
162 24 0 0 60 57 210 206 150 88 47 72 93 63 44 93 88 117 119 175 538 779 798 763 687 632 1020 1073 1216 1622 1580 1587 1790 1781 1828 1831 1323 1073 1496 1492 1422 1680 1787 1397 1099 1460 1909 1649 1665
418 2 0 0 0 167 299 294 221 110 50 136 62 47 101 97 117 154 129 144 360 535 809 775 767 765 1130 1468 1310 1230 1185 1177 1207 1453 1311 1525 972 721 1572 1694 1679 1571 1782 88 1417 1966 1727 1191 523
540 489 0 0 0 207 363 332 245 157 106 184 113 109 136 116 142 169 150 136 249 400 739 837 815 924 1124 1375 1083 1075 1089 1112 1140 1191 1086 924 778 304 1196 782 565 591 345 0 294 440 700 919 267
66 4 207 2 83 317 419 303 322 185 213 236 121 134 166 150 160 175 174 123 168 301 577 751 828 1000 963 858 889 847 871 774 771 741 668 408 534 441 846 485 217 415 277 1 533 718 839 750 257
24 3 0 0 0 298 330 402 389 323 366 234 156 201 192 173 168 176 169 137 123 234 419 603 759 945 907 532 712 658 672 694 345 212 210 259 157 237 405 339 154 426 376 180 280 640 860 1067 684
0 0 0 0 0 0 277 404 425 377 298 207 279 221 191 149 216 192 173 176 96 177 266 413 652 763 782 478 467 559 372 352 209 91 72 329 259 256 236 172 239 408 410 203 316 842 656 532 19
0 0 0 0 0 0 185 381 506 360 307 271 268 209 175 136 199 193 181 207 123 170 181 303 468 582 568 462 102 231 280 324 153 82 122 424 402 346 207 129 217 559 561 636 539 458 544 19 0
0 0 0 0 0 0 252 233 519 396 368 384 297 202 202 180 169 185 194 195 186 236 305 341 403 449 389 319 99 48 50 123 170 111 294 536 527 438 242 211 554 552 680 696 391 578 511 20 2
0 0 0 0 0 0 139 45 145 392 429 441 396 253 246 213 175 177 237 229 217 273 374 413 420 377 326 199 110 122 23 10 80 120 238 491 651 690 285 430 643 265 459 415 511 196 116 0 0
0 0 0 0 0 0 75 0 24 355 448 460 468 347 284 235 178 140 194 239 209 271 346 392 503 502 377 235 218 108 172 140 68 50 162 453 595 835 592 597 548 256 450 281 149 80 0 0 0
0 0 0 0 0 0 0 0 200 294 412 469 466 411 331 291 196 114 61 171 176 205 296 373 488 529 437 332 330 259 347 223 180 159 388 459 591 872 789 535 565 240 526 425 90 0 0 0 0
0 0 0 0 0 0 0 0 107 267 431 481 471 452 421 370 305 202 87 76 120 167 250 350 415 510 488 441 461 492 406 79 340 348 359 542 661 823 718 430 528 414 497 160 52 0 0 0 0
0 0 0 0 0 0 0 0 0 223 303 462 453 495 499 458 369 258 162 75 47 96 262 305 374 469 533 453 405 109 82 171 216 207 386 299 785 895 844 398 516 520 419 219 37 0 0 0 0
0 0 0 0 0 0 0 0 0 4 263 294 399 508 516 506 448 262 209 132 85 7 182 286 286 365 439 377 371 533 550 513 361 295 249 342 564 810 879 714 504 511 316 67 12 0 0 0 0
0 0 0 0 0 0 0 0 0 0 206 258 272 283 469 489 445 381 277 195 131 70 48 236 264 308 320 361 395 451 556 481 134 208 325 320 360 521 804 771 585 471 281 146 5 0 0 0 0
0 0 0 0 0 0 0 0 0 0 21 277 308 321 307 256 289 311 184 263 101 91 94 229 296 335 334 310 358 312 400 84 140 266 354 424 581 555 665 674 615 294 55 94 11 0 0 0 0
0 0 0 0 0 0 0 0 0 0 0 3 168 250 253 276 250 197 124 55 113 71 102 230 335 378 358 283 293 298 319 154 115 204 488 425 677 760 705 642 529 230 14 4 0 0 0 0 0
0 0 0 0 0 0 0 0 0 0 0 0 0 0 20 63 166 204 151 47 73 97 114 274 383 405 388 315 276 285 283 248 179 137 322 554 738 922 956 731 684 357 50 11 0 0 0 0 0
0 0 0 0 0 0 0 0 0 0 0 0 0 0 0 0 0 50 118 71 25 80 114 250 410 422 449 434 361 330 325 346 278 198 220 454 622 910 925 888 821 432 54 27 0 0 0 0 0
0 0 0 0 0 0 0 0 0 0 0 0 0 0 0 0 0 0 0 9 14 33 122 251 388 380 486 563 550 529 495 483 418 249 159 239 376 815 936 980 914 433 76 14 0 0 0 0 0
0 0 0 0 0 0 0 0 0 0 0 0 0 0 0 0 0 0 0 2 0 4 35 200 355 392 436 745 753 759 712 637 508 359 346 298 449 630 856 1024 903 547 139 52 5 5 0 0 0
0 0 0 0 0 0 0 0 0 0 0 0 0 0 0 0 0 0 0 0 3 0 10 62 332 373 402 851 969 963 895 792 666 572 571 545 534 598 773 886 906 670 210 110 77 40 31 0 0

GFSSGP_con_sbcape_027.txt.gz
CAPE
320 411 246 123 371 57 81 114 36 23 24 47 19 26 51 93 20 89 32 13 5 83 281 453 1308 1678 1863 2065 2516 2651 2515 2192 2263 2317 2177 1891 1863 1905 1876 1803 1692 1804 1931 1820 1775 1683 1639 1489 1382
499 301 117 70 256 116 113 150 19 40 126 85 79 78 95 30 13 50 30 10 14 102 159 389 1542 2040 1891 2286 2696 2606 1996 1971 2055 2032 1973 1845 1861 1826 1725 1755 1945 2039 1955 1649 1631 1640 1518 1519 1376
360 110 85 169 134 124 117 174 58 164 141 84 97 78 80 37 35 31 30 14 35 129 316 661 1838 2415 2266 2391 2487 2547 2330 1976 2031 2028 1955 1826 1721 1629 1660 1792 1915 2092 1981 1768 1806 1526 1437 1383 1224
311 48 148 253 91 143 148 204 266 230 135 107 78 64 2 32 15 39 39 24 69 182 315 1275 2010 1787 2227 2363 2377 1971 1935 1957 1971 2050 1858 1741 1579 1588 1699 1778 2013 2103 1897 1656 1653 1657 1563 1314 1251
303 504 357 217 61 213 174 266 325 216 145 116 47 2 37 62 34 41 51 33 98 167 515 1230 2139 2312 2342 2335 2252 1876 1780 1890 1995 1980 1897 1797 1588 1525 1550 1718 1889 1962 1805 1654 1652 1530 1494 1505 1649
677 276 155 96 49 213 265 346 303 286 151 45 8 24 85 96 62 81 85 54 153 248 599 1082 1925 2121 2167 2244 1996 1965 1847 1931 1982 2033 1947 1818 1699 1599 1579 1702 1891 1884 1750 1601 1637 1567 1364 1498 1785
291 163 118 52 167 239 311 353 348 304 119 50 49 79 90 82 118 142 136 108 206 374 658 855 1174 1540 1734 1821 1790 1890 1983 1978 1934 1913 1990 1971 1696 1533 1372 1592 1594 1679 1700 1581 1607 1555 1490 1452 1833
431 92 126 65 393 305 428 372 326 211 114 42 53 90 60 143 146 174 223 230 364 545 709 886 917 1069 1200 1416 1530 1601 1819 1936 1981 1908 1816 1839 1677 1578 1678 1267 1791 1576 1427 1384 1599 1462 1387 1412 1460
314 346 127 11 231 92 439 504 227 134 97 74 92 54 78 181 181 209 320 360 592 644 741 750 880 1359 1610 1447 1404 1493 1500 1739 1840 1759 1787 1643 1577 1708 1633 1665 1454 1720 1582 1505 1328 1615 1706 1461 1647
1000 443 114 4 15 62 474 537 366 217 107 125 167 110 131 205 217 235 329 408 495 614 765 701 701 1043 1273 1047 1529 1650 1322 1022 1207 1332 1727 1710 1747 1733 1820 1876 1713 1851 725 566 1537 1653 1712 1360 855
1049 312 231 9 0 100 544 515 407 310 153 201 244 189 205 206 211 173 219 264 279 323 467 672 795 1122 1060 897 1228 1477 1371 1417 1399 1768 1791 1633 1594 1496 1606 1776 1362 1576 593 422 1172 1340 1503 1324 524
492 322 90 11 0 381 573 572 487 302 110 135 301 198 249 262 238 193 196 259 262 318 356 496 697 1086 1131 1115 1120 1320 1381 1363 1269 1227 1852 1621 1371 1621 1782 1822 1396 1556 1237 1078 1531 1525 1781 1519 1395
419 31 0 6 0 0 514 620 619 501 315 337 361 234 228 218 242 232 194 211 261 287 337 523 771 1108 1244 1373 1128 1285 1596 1297 1127 1341 1277 1130 911 1313 1566 1932 1497 1340 1493 1170 1373 2075 1655 1783 1192
0 0 0 0 0 0 274 305 573 637 508 479 364 295 219 207 250 247 246 219 265 291 381 545 804 1030 1206 1256 1364 1369 1531 1259 1355 964 834 1138 1145 1546 1528 1734 1514 1406 1680 1586 1408 1946 1701 514 282
0 0 0 0 0 0 0 123 477 578 549 492 373 367 304 269 205 320 391 481 374 405 544 713 880 1064 1410 1362 1296 1259 1185 994 882 741 954 835 1207 1754 1943 1658 1371 1526 1909 1972 1521 1551 1610 507 16
0 0 0 0 0 0 0 0 75 627 654 631 400 396 398 356 390 483 563 614 628 486 638 756 662 888 1248 1351 1368 1117 872 792 653 595 632 817 1049 1711 1935 1860 1517 1647 1772 2047 1662 2009 1752 1076 22
0 0 0 0 0 0 10 0 19 658 703 743 496 458 471 471 449 584 567 581 654 686 672 715 773 769 1004 1231 1157 1052 728 741 558 607 693 879 1238 1645 1820 1835 1832 2008 1716 1718 1566 1448 1218 398 53
0 0 0 0 0 0 13 1 17 638 702 777 661 529 521 469 430 447 535 544 644 742 816 789 792 860 1059 1004 1024 789 613 389 421 512 619 1215 1496 1717 1967 1782 2069 1890 1520 1588 1436 1522 557 96 141
0 0 0 0 0 0 0 0 53 611 735 800 748 642 573 578 507 483 448 547 603 732 905 1072 1147 1311 1066 929 787 622 477 432 730 1104 1300 1413 1656 1861 2150 1877 2135 1875 1654 1736 1685 1038 612 54 33
0 0 0 0 0 0 0 0 7 448 732 830 855 754 649 688 645 591 559 583 656 780 1029 1389 1454 1647 1471 1132 1178 720 766 513 1189 1649 1767 1705 1753 2013 2117 2140 2056 1910 1582 1815 1611 997 240 32 55
0 0 0 0 0 0 0 0 0 165 468 734 859 834 693 760 779 680 581 537 685 861 1179 1525 1911 2078 1805 1724 1197 1042 1061 1248 1441 1636 1668 1690 1958 2121 2221 2222 2043 2031 1900 1716 1724 937 419 48 161
0 0 0 0 0 0 0 0 0 0 324 510 742 826 844 809 835 772 690 604 594 1097 1041 1616 1766 2097 1674 2058 1614 1813 1117 873 1117 1501 1642 1768 1932 2070 2164 2262 2025 2113 1846 1948 1705 819 414 111 95
0 0 0 0 0 0 0 0 0 0 23 356 606 786 803 823 894 858 804 863 763 751 795 1268 1882 2052 2095 2178 2041 1704 1791 1213 1294 1335 1993 2708 2193 2038 2042 2238 2176 2213 2044 2015 1560 782 487 158 39
0 0 0 0 0 0 0 0 0 0 0 162 459 671 863 834 906 939 896 897 793 679 549 901 1704 1891 2065 1992 2069 2302 2307 1903 1381 1459 1402 1409 1546 1645 1996 2186 2444 2461 2142 2130 1782 1103 752 323 134
0 0 0 0 0 0 0 0 0 0 0 0 120 521 681 860 938 974 976 918 1141 1140 1085 984 1549 1744 1913 1910 1970 2104 2208 2382 2282 2071 1503 1724 1379 1418 1952 2154 2257 2151 2176 2004 1688 1290 780 550 282
0 0 0 0 0 0 0 0 0 0 0 0 0 179 519 659 778 954 1269 1381 1372 1245 1242 1157 1383 1628 1785 1766 1920 2054 2170 1763 1861 1921 1440 1398 1357 1481 2016 2238 2257 2198 2063 1778 1395 1197 829 416 453
0 0 0 0 0 0 0 0 0 0 0 0 0 0 235 603 721 754 1100 1336 1313 1393 1234 1334 1452 1656 1707 1666 1762 1827 1956 1950 1825 2033 2140 1468 2137 1486 1925 2290 2386 2372 2083 1796 1374 938 725 364 422
0 0 0 0 0 0 0 0 0 0 0 0 0 0 0 33 411 667 989 1110 1162 1051 1311 1254 1439 1659 1761 1754 1716 1622 1736 1863 1908 2007 2010 2020 2149 2156 1951 2323 2423 2396 2146 1848 1574 1237 783 535 341
0 0 0 0 0 0 0 0 0 0 0 0 0 0 0 0 55 190 736 1142 1200 842 1068 1191 1422 1687 1821 1827 1812 1766 1727 1754 1900 1921 2001 2089 2255 2320 2319 2321 2303 2305 2183 1860 1684 1540 1022 712 688
0 0 0 0 0 0 0 0 0 0 0 0 0 0 0 22 98 101 170 431 660 1135 986 1194 1325 1550 1746 1832 1931 1888 1912 1872 1832 1903 1973 2081 2215 2194 2522 2465 2357 2231 2190 2003 1736 1659 1199 949 851

GFSSGP_con_sbcape_030.txt.gz
CAPE
132 302 343 537 309 571 225 133 137 70 173 106 138 145 311 190 43 567 115 264 79 87 422 772 1493 1553 1567 2327 2517 2683 2351 2142 2019 1991 2022 1889 1955 1923 1864 1677 1837 1981 1901 1856 1810 1712 1500 1444 1571
293 216 306 238 567 314 308 288 104 281 237 183 170 167 217 34 25 127 161 331 223 317 199 836 1508 1985 1980 2170 2679 2672 2002 1981 2106 2066 1974 1976 1959 1857 1777 1906 1955 1573 1823 1771 1691 1595 1536 1499 1239
610 182 252 582 319 246 247 297 412 318 186 229 348 432 419 67 65 75 169 275 341 58 554 1081 1549 2092 2127 2367 2608 2637 2202 1953 2074 1999 1942 1908 1792 1774 1795 1824 2045 1917 1818 1893 1748 1451 1510 1364 1185
394 172 144 824 207 201 215 290 389 589 357 242 322 348 112 157 161 154 136 189 143 439 597 1320 1898 2006 2233 2266 2188 1965 1970 2010 2070 1956 1831 1705 1688 1793 1827 2126 1997 1986 1728 1753 1688 1652 1535 1376 1130
286 619 724 357 156 283 308 371 496 399 408 408 351 143 47 61 92 97 97 173 432 499 633 1230 2295 2438 2473 2191 2071 2014 2007 2055 2068 1922 1858 1703 1644 1666 1780 2005 1914 1860 1710 1668 1598 1538 1554 1639 1513
1130 457 423 102 113 336 454 470 453 500 509 320 254 198 217 169 125 80 150 234 325 532 490 892 2053 2316 2679 2273 1942 1877 1925 2038 2076 2035 1905 1804 1676 1677 1745 1900 1899 1823 1640 1618 1593 1469 1472 1801 1717
913 408 273 153 245 197 496 508 450 539 408 215 235 323 324 231 165 210 250 238 271 485 328 528 793 1675 2108 2189 1968 1899 1935 2006 2084 2078 1952 1754 1607 1530 1524 1662 1659 1753 1648 1663 1620 1551 1505 1607 1762
996 476 318 288 271 325 576 541 471 409 353 232 258 289 321 220 252 285 287 311 354 443 301 466 682 985 1361 1596 1935 1989 1995 2010 1963 1891 1900 1862 1721 1645 1712 1474 1810 1608 1390 1496 1634 1558 1438 1464 1620
992 754 275 190 254 337 666 648 472 251 248 229 242 301 415 438 315 338 309 374 356 389 276 364 522 836 1109 992 1343 1679 1804 1863 1875 1835 1758 1645 1940 1856 1774 1517 1696 1642 1401 1393 1804 1774 1737 1474 1828
934 535 156 43 10 67 583 655 627 367 261 288 341 374 458 545 370 421 437 595 536 515 303 284 431 648 866 613 1064 1087 749 602 952 994 1381 1793 1960 1987 1640 1796 1650 1881 282 1237 1655 1517 1606 1557 173
614 357 72 9 0 33 582 724 744 373 261 360 592 592 586 598 721 694 611 679 854 777 353 273 490 770 762 687 998 998 852 752 1094 1560 1838 1935 1767 1808 1817 1742 1407 1455 582 1217 1543 1526 1314 495 174
377 115 76 27 0 0 255 687 751 572 198 343 623 610 689 696 731 747 761 778 880 826 517 345 445 782 780 693 755 750 696 736 548 671 1586 1791 1811 1813 1933 1533 1402 1330 1099 1479 1420 1222 1329 878 663
330 23 0 7 0 0 0 366 501 650 490 434 623 598 681 753 756 734 726 709 733 710 674 600 631 938 906 930 566 462 714 689 431 682 1097 1434 1460 1716 1769 1883 1484 1628 1514 1355 1290 1026 1199 1241 1237
0 1 0 0 0 0 0 96 327 463 703 684 700 671 684 695 701 666 591 606 603 573 512 513 679 964 1052 1092 1142 993 1070 766 772 480 485 1274 1435 1804 1721 1618 1470 1488 1609 1615 1783 1194 1337 762 448
0 0 0 0 0 0 0 9 158 283 881 906 762 725 703 724 701 691 619 600 596 503 461 508 724 840 1177 1334 1504 1399 931 868 654 408 685 1105 1570 2171 2527 2149 1604 1486 2021 1470 1549 1123 1024 530 133
0 0 0 0 0 0 0 12 44 280 901 1034 920 728 658 664 611 667 587 510 487 493 581 704 638 801 1176 1309 1469 1097 879 839 469 224 539 1109 1332 2051 2457 1741 1349 1828 2063 1387 1489 1079 784 399 125
0 0 0 0 0 0 0 2 9 202 741 956 1046 797 713 706 674 616 500 449 498 640 797 1031 1045 982 1290 1606 1511 1335 1081 865 326 213 558 1011 1392 1773 2375 2081 1870 2304 1714 1687 1253 1149 1040 269 164
0 0 0 0 0 0 0 0 4 284 464 766 1035 936 900 835 761 674 579 648 904 1001 1037 1286 1281 1347 1592 1580 1732 1316 896 541 337 365 513 912 1520 1718 2383 2010 1625 1604 1532 1446 1373 1094 849 356 166
0 0 0 0 0 0 0 0 0 100 437 645 1055 1027 1012 984 843 701 744 787 898 1066 1250 1373 1430 1829 1695 1602 1374 1048 590 379 287 425 782 1310 1939 2271 2720 2203 1964 2158 1633 1536 1387 1247 1089 226 131
0 0 0 0 0 0 0 0 1 34 478 586 967 1088 1143 1106 927 792 765 797 797 1025 1221 1603 1602 2092 2039 1629 1728 901 585 321 342 552 1237 1932 2149 2544 2654 2738 2092 2072 1721 1985 1903 1449 627 228 2
0 0 0 0 0 0 0 0 0 1 248 522 762 956 1074 1180 986 920 740 741 747 958 1247 1705 2099 2336 2204 2216 1600 1204 755 618 629 932 1737 2324 2504 2523 2890 2515 1792 2301 2338 1833 2165 1792 1161 139 21
0 0 0 0 0 0 0 0 17 6 50 192 504 887 973 1219 1180 1084 863 843 806 1015 1247 1675 2372 2408 2480 2375 2170 2674 992 657 662 1134 1525 1788 2292 2420 2524 2570 2486 2862 2091 2012 2639 1821 1242 1153 12
0 0 0 0 0 0 0 0 0 0 0 0 104 440 853 1041 1190 1252 1072 891 942 1011 1183 1499 2473 3190 3191 2974 2882 2084 2123 930 704 852 2667 3344 2636 2425 2170 2592 2836 2852 2643 2336 2610 2033 1887 1062 54
0 0 0 0 0 0 0 0 0 0 0 0 27 238 764 949 1140 1253 1312 1090 968 1056 1245 1418 2832 3255 3271 2926 2526 3228 3362 2578 1229 1722 1467 1510 1655 2036 2375 2400 2881 2912 2707 2640 2716 2470 1931 1611 515
0 0 0 0 0 0 0 0 0 0 0 0 0 17 643 973 1048 1215 1403 1415 1184 1100 1284 1417 2426 2974 3100 2486 2805 2781 3148 3312 3135 2721 1892 2260 1339 1204 2735 2650 2779 2667 3118 2732 2771 2779 2041 1975 1208
0 0 0 0 0 0 0 0 0 0 0 0 0 0 171 724 1061 1169 1379 1540 1583 1398 1737 1678 2429 2929 2697 2554 3586 3695 3809 2356 2419 2813 1913 1764 1455 1621 1759 2305 2509 2660 2674 2881 2769 2649 2256 1739 1551
0 0 0 0 0 0 0 0 0 0 0 0 0 0 0 349 1048 1242 1312 1481 1693 1870 2404 2520 2899 3420 2990 2477 3596 3910 3667 3487 2300 3333 3196 2102 2851 1737 1832 1992 2521 2496 2683 2794 2892 2525 2378 1488 1526
0 0 0 0 0 0 0 0 0 0 0 0 0 0 0 207 955 1171 1318 1392 1595 1765 1888 2321 2876 3152 3256 2791 3018 2962 3316 3751 3570 3724 3772 3336 2836 2787 2282 2181 2333 2466 2710 3006 3067 2545 2394 2051 1370
0 0 0 0 0 0 0 0 0 0 0 0 0 0 0 94 718 903 1044 1208 1416 1649 1873 1995 2274 2835 2903 3003 3244 3171 2857 3023 3321 3482 3680 3756 3082 3571 3013 3072 2550 2399 2801 3062 3194 3077 2413 2358 1929
0 0 0 0 0 0 0 0 0 0 0 0 0 0 0 22 76 187 545 875 1152 1478 1677 1941 1960 2028 2464 2874 3360 3408 3443 3308 3041 3425 3498 3710 3723 3456 3790 3340 3251 2792 2659 2986 3010 3008 2399 2489 2232

GFSSGP_con_sbcape_033.txt.gz
CAPE
96 216 253 163 473 462 504 321 108 193 167 284 162 464 278 425 560 165 2 25 0 16 244 448 1556 1787 1665 2233 2674 2233 2039 2220 1992 2054 1932 1939 2044 1774 1721 1904 1963 1938 1857 1853 1796 1542 1479 1603 1480
31 393 572 704 395 328 238 149 152 194 331 245 322 321 328 139 199 299 18 0 22 75 218 305 1870 2047 2037 2331 2458 2461 2018 2026 2167 1991 2040 2084 1980 1796 1879 1936 1721 1915 1840 1747 1640 1564 1521 1307 1218
143 415 445 607 910 124 285 267 472 363 322 253 511 478 564 135 181 462 127 228 97 183 646 1064 1752 1930 2151 2235 2270 2260 1923 2074 2000 1926 1978 1870 1852 1681 1764 1677 1880 1834 1911 1824 1494 1547 1415 1207 1044
475 357 294 333 158 254 257 210 628 477 400 414 439 417 404 243 244 386 211 145 474 467 538 1236 1668 1889 2005 2021 2088 1866 1829 2033 1980 1788 1683 1734 1923 1963 1981 1765 1950 1679 1758 1712 1708 1667 1531 1378 1209
491 493 805 580 147 200 268 480 524 317 465 445 631 486 375 165 232 323 229 408 146 645 817 1321 2074 2305 2241 1997 1909 1861 1936 2073 1847 1736 1652 1725 1753 1781 2041 2022 1863 1725 1669 1653 1579 1580 1683 1684 1595
1173 1081 592 168 108 197 295 380 394 476 542 440 700 370 472 293 231 387 286 155 553 545 376 1330 2004 2281 2237 1882 1886 1948 1975 1964 1912 1833 1742 1721 1732 1798 1950 2017 1909 1694 1635 1607 1540 1503 1729 1739 1716
1112 648 284 73 61 95 274 306 291 421 460 537 435 648 393 302 245 241 254 390 494 245 348 879 1161 1639 1895 2063 1794 1826 1885 1950 2010 1919 1809 1681 1617 1584 1697 1735 1833 1770 1724 1696 1651 1545 1566 1787 1694
1027 493 318 242 6 95 44 148 156 395 505 491 643 642 493 429 175 225 315 367 514 303 163 327 593 975 1225 1336 1702 1750 1848 1904 1997 1996 1888 1820 1763 1787 1521 1830 1728 1609 1539 1495 1623 1471 1466 1635 1859
739 605 452 54 27 135 67 12 94 236 408 456 427 715 643 402 261 323 278 340 422 272 140 109 354 770 1120 1037 1563 1767 1778 1821 1784 1755 1825 1740 2325 2056 1937 1847 1588 1396 1378 1440 1712 1789 1692 1684 1858
484 77 320 69 36 109 207 39 28 193 279 399 605 818 562 595 369 382 410 409 551 270 153 164 339 506 693 428 1110 1036 838 821 1073 1303 1398 1279 1971 1783 1653 1458 1661 1760 623 1356 1512 1249 1659 2081 1051
326 255 292 37 17 205 208 144 46 90 249 409 798 870 674 708 608 427 467 477 639 355 251 284 376 557 467 1021 469 640 444 651 1065 1572 1860 1383 1653 1800 770 1099 1052 1438 940 848 1065 1207 1524 303 487
123 175 125 35 9 36 194 236 292 112 57 404 722 843 815 731 718 732 794 788 821 574 278 253 407 760 505 661 486 490 465 522 589 1083 1879 2302 1507 1538 1378 1637 1568 1440 1538 1557 1514 1257 1373 1422 1037
72 138 94 86 24 24 61 329 381 372 105 265 695 876 940 907 864 878 877 945 929 618 357 276 469 1341 1307 923 534 528 465 379 327 766 1503 1669 1957 2001 1822 1624 1754 1614 1741 2019 1795 1352 1444 1093 878
50 62 99 27 31 4 1 182 323 628 426 578 670 856 913 919 968 1056 926 876 905 725 520 400 504 918 1022 1382 1147 645 575 564 440 435 862 1657 1701 1630 1950 1654 1926 1919 2043 1308 1287 1359 1260 1128 750
51 0 14 30 0 0 0 64 254 539 780 741 711 824 884 965 968 954 876 803 787 765 645 634 687 882 1047 1193 1230 1048 711 574 493 446 711 1305 1646 2074 2187 1665 1528 2105 2532 1609 1640 1362 1611 577 251
0 1 0 0 0 0 0 46 74 266 761 945 843 697 774 908 939 895 832 794 721 734 886 758 558 792 1099 1287 1450 1117 758 609 519 318 536 1232 1665 2186 2445 1784 1436 2049 1846 951 2006 740 380 735 29
0 0 0 7 0 0 0 6 37 183 512 858 1008 841 675 819 870 912 793 744 726 793 984 887 779 707 1097 1929 1496 1310 1820 806 514 229 301 1718 1548 1848 2493 1158 1141 2288 1963 1404 653 1077 756 46 48
0 0 4 15 55 1 4 4 10 107 372 588 1016 1021 842 710 769 829 778 691 666 728 807 1369 967 2108 2608 1859 2275 1308 873 794 499 215 209 2150 1614 1804 2390 2334 2091 1592 1901 1831 1370 1262 272 389 18
0 0 1 55 64 25 40 73 42 103 229 409 873 1075 981 856 661 649 711 624 576 658 886 1868 1960 2830 2158 1653 1410 1267 818 890 350 288 909 1117 1398 2003 2487 2324 2759 1864 2488 1684 1351 1306 914 688 25
0 0 1 10 51 17 56 56 66 70 150 301 755 943 1022 1056 890 618 669 542 553 993 1745 2552 2813 3513 2966 1970 2285 1523 1531 418 251 205 1481 1190 1616 2150 2557 2953 2358 2226 1648 1886 1936 1420 1253 37 0
0 0 0 0 11 25 10 26 33 51 88 244 568 972 909 1104 1117 850 654 590 589 1158 2049 2590 3218 3524 3159 2930 2569 2345 1649 1281 389 457 629 1455 1989 2232 3457 2545 2250 2464 2560 3146 2250 1603 1042 265 0
0 0 0 0 1 26 0 12 18 13 40 186 369 865 924 1001 1153 1109 686 648 617 1045 1520 2755 3397 3571 3383 3477 2262 2604 1175 625 406 653 533 1423 2762 2280 2473 2477 2032 2848 2162 2768 2244 1784 1605 1262 60
0 0 0 0 0 1 0 27 28 37 31 60 168 579 746 974 1154 1176 1009 678 643 851 1107 1975 3512 3768 3534 3464 3256 2158 2075 640 470 484 1862 2456 3676 2594 2041 3206 2890 3157 2774 3384 2420 2358 2162 1094 529
0 0 0 0 0 0 0 0 0 18 35 56 64 135 449 630 1039 1241 1240 911 632 677 931 1967 3500 4094 4069 4080 3645 4043 2723 2229 815 907 977 1214 1381 2328 3464 2722 3743 3848 3516 2553 2756 2856 2406 2096 898
0 0 0 0 0 0 0 0 0 1 6 20 26 69 132 424 814 1186 1330 1186 1092 1134 1431 1991 3283 4039 4171 4198 3790 3676 4049 3743 4044 3087 1079 1563 1146 1012 2948 3754 3646 2877 3868 3103 3534 3892 2783 2338 1810
0 0 0 0 0 0 0 0 0 0 0 4 41 37 75 239 812 1119 1329 1454 1609 1639 2075 2248 3171 4022 4154 3999 4109 4011 4292 2773 2367 2769 1536 1275 1167 1141 2760 3858 3465 3433 3530 3310 4009 3024 2711 2842 1998
0 0 0 0 0 0 0 0 0 0 0 0 1 0 25 199 623 931 1279 1489 1998 1884 2412 2567 3137 3788 4039 3666 4080 4260 4188 4034 3007 3303 3564 2521 2690 1331 2928 3542 3601 3579 3578 3862 4082 2681 3537 3026 2374
0 0 0 0 0 0 0 0 0 0 0 0 0 0 0 47 410 867 1173 1416 2002 1792 2254 2678 3004 3598 3841 3477 3820 3960 4210 4301 4018 4118 4237 3249 3415 3617 3627 3149 3271 3471 3765 3927 4317 3227 3633 3546 1986
0 0 0 0 0 0 0 0 0 0 0 0 0 0 0 0 173 722 1153 1344 1673 1773 1806 2386 2836 3499 3829 3763 3768 3859 4000 4060 4269 3952 4196 4174 4186 4402 3761 4087 3664 3708 3792 3985 4382 3978 3703 3624 3309
0 0 0 0 0 0 0 0 0 0 0 0 0 0 0 0 80 657 1153 1137 1320 1684 1809 2082 2503 2528 3662 3785 3880 3864 4021 4010 4049 4225 4028 4308 4407 4201 4405 4284 4201 3972 3808 3980 4255 3998 2588 3707 3201

GFSSGP_con_sbcape_036.txt.gz
CAPE
43 10 98 173 412 426 148 158 50 34 165 294 301 456 210 408 202 193 4 0 0 43 202 657 1659 1675 2290 2496 2498 2450 2642 2414 2552 2436 2315 2514 2179 2357 2403 1927 2057 2072 1930 1799 1556 1548 1645 1578 1549
48 150 481 617 224 155 248 212 180 219 242 416 301 217 201 185 0 4 0 0 0 0 103 397 1827 2177 2195 2482 2483 2468 2086 2157 2464 2102 2587 2495 2093 2305 1944 1797 1934 1785 1730 1680 1607 1544 1373 1270 1446
90 408 342 519 309 52 280 298 233 312 293 386 570 516 242 234 5 0 0 0 0 0 77 1174 2124 2123 2048 2313 2478 2428 2445 2236 2045 2097 2235 2056 2026 2004 1744 1875 1779 1846 1790 1516 1573 1485 1295 1148 1192
182 383 233 127 132 148 399 237 276 471 431 487 435 520 250 170 32 0 0 0 0 54 384 1437 1847 1901 2232 2484 2377 2295 2232 1962 2205 1965 1690 1924 1897 1907 1801 1920 1670 1745 1731 1763 1764 1673 1557 1321 1224
587 600 351 184 167 305 382 511 341 318 330 494 551 227 260 336 0 0 0 0 3 404 863 952 2379 2538 2494 2365 2263 2210 2002 1805 1885 1764 1711 1760 1799 2018 2037 1828 1753 1707 1723 1665 1695 1795 1760 1647 1535
727 68 112 213 102 307 307 248 535 355 582 668 392 139 157 150 62 99 4 119 496 532 688 1064 2100 2380 2388 2166 2176 2325 2004 1680 1713 1653 1669 1688 1831 2047 2097 1962 1768 1694 1657 1612 1579 1686 1768 1752 1575
19 1 17 21 165 296 331 277 319 311 429 535 380 569 218 185 102 32 390 158 367 323 729 1073 1558 1779 2010 2317 1967 1878 1805 1762 1833 1717 1703 1707 1646 1777 1900 2137 2031 1788 1743 1650 1521 1511 1650 1667 1714
729 203 217 393 45 23 142 180 180 481 485 766 467 391 407 371 236 313 213 355 231 174 396 1074 1428 1033 1207 1384 1717 1679 1695 1816 1862 1788 1696 1618 1563 1431 1671 2555 2337 1786 1653 1499 1459 1362 1379 1734 2016
274 230 300 191 40 8 16 115 265 306 447 652 801 380 349 335 206 220 482 584 352 329 305 460 406 1129 1654 1496 1491 1628 1617 1734 1820 1678 1634 1576 2293 2084 1614 2350 2104 1380 1401 1317 1430 1414 1596 2224 2301
226 14 1 119 22 143 17 7 84 177 232 808 624 480 290 275 315 269 291 543 324 26 47 199 422 870 1109 544 1686 1829 1317 1294 1573 1133 101 264 1724 1636 1711 1712 2276 1621 903 1154 1746 1379 1758 2027 1418
128 122 11 22 50 91 13 10 94 57 217 858 677 460 339 313 375 459 450 466 338 96 0 207 748 1138 780 1055 1229 1207 1139 1236 1234 419 257 146 984 1149 2026 1350 1399 1880 1326 933 11 268 1153 1643 1353
132 34 70 35 49 48 27 14 26 54 164 873 715 485 474 402 485 479 443 512 478 115 161 226 790 1331 1087 1000 516 900 728 795 1456 1285 621 793 852 807 921 2024 2033 1790 987 664 751 1093 1635 822 737
42 78 92 17 64 199 25 117 110 105 370 658 766 625 589 612 582 546 528 516 664 359 302 428 860 1585 2295 2119 708 728 1321 932 1108 2023 2555 304 1219 1446 1364 1787 683 1838 1385 866 1351 1862 1301 2121 1047
45 135 75 91 104 16 48 118 48 34 126 470 764 708 667 598 602 971 828 769 762 684 413 964 1065 1541 2524 2352 2923 1843 2169 845 1289 948 1916 2759 1781 1985 2290 2711 1655 1834 1436 880 1844 2934 2029 510 1099
10 31 70 70 43 30 2 46 240 140 213 400 692 806 773 644 906 916 1141 1148 914 795 630 973 1166 1201 2252 2274 2157 2281 2028 490 1039 1429 2483 2231 2543 3019 1369 2646 2426 2483 3008 2891 2671 794 1087 772 255
7 24 39 55 65 17 0 0 87 366 446 474 556 661 877 821 579 937 1140 1076 1237 715 977 914 307 908 1298 1751 2206 2037 1273 1543 1645 1557 1743 2270 2299 2951 3494 2381 1653 963 1699 2694 1027 2237 1101 1207 1030
15 11 37 65 27 5 0 0 19 377 412 662 560 516 610 976 827 1010 662 905 796 1000 1344 1275 999 1065 1245 2075 1944 1631 1903 2081 1865 1874 1726 2589 2762 2748 2950 2211 947 2343 2656 2239 2099 1878 1093 1212 709
2 0 10 21 16 1 2 0 34 27 364 690 851 622 675 690 831 935 730 765 860 1390 1574 1577 1303 1999 1846 1760 2012 1764 1494 1840 1697 1873 1665 2519 2691 2739 3205 2303 2520 3000 2759 1740 1726 2341 1569 1044 696
0 0 0 10 13 8 0 0 34 49 54 442 884 903 713 677 781 981 835 783 911 1287 1636 1499 1859 2435 1938 1705 1685 1749 1244 1592 1701 1840 2216 2906 2769 2991 3644 2161 1025 2410 2550 2692 2530 2014 1330 891 276
0 0 0 0 25 19 34 24 53 56 52 18 620 963 869 615 652 947 888 767 772 1097 1547 1703 1810 2429 2297 1925 1898 1706 1990 1461 1311 1393 2457 2532 2448 3187 3365 2908 2527 2614 1142 2680 2188 2155 1666 1113 328
0 0 0 1 2 10 12 40 96 63 41 110 487 834 945 892 732 868 897 787 723 1204 1517 1758 1943 2739 2631 2292 2534 2835 2739 2771 1581 1150 1650 1897 2528 2958 3077 2890 2845 2636 2619 2227 2270 2434 2551 1069 271
0 0 0 0 12 29 65 69 99 56 52 103 133 702 796 1042 1045 827 964 898 782 1092 1373 1947 2185 2498 2782 2774 2229 2557 1499 1188 1152 1089 1279 1614 2079 2820 2861 2891 3504 3389 2579 2717 2893 3121 2718 1987 320
0 0 0 0 0 3 4 35 62 41 44 67 216 569 720 996 1079 1044 860 909 805 1029 1637 2049 2436 2614 2915 2258 2983 2265 2039 1404 1099 1519 1917 2305 2635 3006 3050 3031 3322 3690 3350 2962 2500 3222 2920 2675 1846
0 0 0 0 0 0 0 7 34 35 35 72 109 246 883 914 1127 1393 1056 993 862 1081 1785 2124 2741 2717 3026 2931 2407 3322 2186 2018 1176 1183 1735 2144 2801 2708 3467 3234 3162 3598 3343 3478 2953 3417 3512 3115 2751
0 0 0 0 0 0 0 0 0 1 37 48 54 270 850 951 1107 1499 1408 1126 982 1149 1587 1938 2957 2912 2852 3025 2472 2288 3456 2133 2829 2925 1071 1518 1638 2388 2802 3464 3419 3040 3172 3412 3647 3457 3754 3250 2900
0 0 0 0 0 0 0 0 0 0 0 2 60 110 324 700 791 1417 1630 1382 1159 1144 1452 1786 2778 2930 3018 2964 3079 2446 3268 2685 1733 3106 1533 1198 1643 1714 2952 2781 3180 3075 2954 3206 3919 3747 3302 3148 2792
0 0 0 0 0 0 0 0 0 0 0 0 11 95 174 341 541 1258 1650 1638 1385 1177 1438 1725 2405 2944 3179 2854 3391 3291 2441 3351 2558 2353 2794 2568 1997 2227 3502 2905 3130 2856 3265 3519 3810 2997 3453 3547 2871
0 0 0 0 0 0 0 0 0 0 0 0 0 8 82 218 488 1099 1527 1832 1648 1366 1431 1651 2315 2792 3214 3325 3138 3296 2841 3051 3165 2680 2955 2248 2984 2420 3742 3135 3026 3194 3068 3677 3509 3338 3479 3261 2893
0 0 0 0 0 0 0 0 26 0 0 0 0 0 62 230 479 903 1572 1742 2009 1682 1658 1679 1931 2804 3220 3281 3249 3218 3330 2828 2931 3051 3115 3763 2763 4141 2962 3801 3214 3270 3295 3313 3603 3117 3012 3577 3044
0 0 0 0 0 0 0 13 0 0 0 0 0 0 8 206 678 830 1351 1683 2024 2091 1892 1960 2046 2469 3060 3534 3438 3144 3238 3512 3341 2906 3175 3483 4098 3182 4257 3687 3381 3411 3162 3294 3285 3316 2545 3323 3051

GFSSGP_con_sbcape_039.txt.gz
CAPE
39 0 20 155 606 98 93 69 130 109 148 261 38 389 216 69 94 0 1 0 0 12 445 1456 2113 2320 2129 2498 2536 2345 2478 2273 2436 2697 2452 2192 2098 2333 1903 2032 1991 2056 1756 1654 1723 1794 1683 1697 1376
34 17 263 181 215 97 171 172 119 150 299 162 201 197 140 0 0 8 0 0 12 25 278 1264 2098 2298 2415 2492 2749 2463 2126 1743 2325 2802 2525 2283 2356 2333 1966 1953 1887 1819 1828 1731 1645 1501 1431 1578 1608
59 259 228 210 242 44 160 235 216 294 204 269 284 126 177 1 7 0 0 0 0 9 376 1168 2324 2454 2405 2594 2530 2638 2464 2014 2545 2639 2314 2305 2568 2056 1858 1885 1974 1810 1880 1732 1600 1418 1307 1262 1259
64 328 264 194 44 94 47 221 334 362 579 306 161 114 41 0 0 0 0 0 0 69 868 1994 2195 1889 2405 2241 2260 2134 1889 2033 2286 2354 2377 2260 2561 1953 1840 1832 1891 1887 1924 1884 1764 1643 1356 1238 1202
328 327 243 87 51 53 71 237 436 447 488 378 185 158 24 0 0 0 0 0 0 567 982 1471 2542 2509 2584 2149 2020 2266 1907 1717 2132 2396 2107 2074 2136 2046 1883 1850 1876 1880 1805 1819 1850 1779 1694 1582 1247
81 4 18 83 56 80 252 229 486 415 239 242 191 147 38 0 0 0 0 0 31 502 772 1450 2293 2391 2517 1859 1810 2350 1737 1716 2198 2319 1827 1881 2108 2565 2146 1913 1857 1811 1739 1679 1768 1837 1719 1552 1315
0 68 25 62 98 126 191 258 632 544 333 128 141 201 0 0 0 0 0 0 301 479 828 1394 1549 1549 1800 2296 1882 1987 1704 1876 2044 2086 1906 1882 1802 1890 2137 2201 2411 1831 1786 1681 1630 1688 1777 1620 1522
70 0 0 13 119 53 116 111 263 570 526 302 189 145 1 0 0 0 0 160 397 610 875 1200 1257 1147 1383 1618 1843 1729 1707 1910 1833 1790 1702 1626 1489 1556 1771 2224 2426 1920 1757 1643 1628 1816 1558 1757 1615
99 41 88 5 33 27 68 332 539 596 418 427 348 212 25 4 22 97 45 80 172 440 709 978 963 800 881 1081 1332 1645 1720 1868 1948 1881 1072 164 373 1116 1353 1872 2239 1586 1510 1457 2002 2253 1940 2041 1798
158 65 13 18 19 10 40 265 369 573 391 347 380 249 98 27 123 137 113 166 144 315 479 594 481 523 690 907 1047 1130 1240 1381 1451 298 2 0 0 222 1394 1691 2164 1656 1165 1548 1777 1415 1361 1223 1378
120 88 4 23 20 24 28 75 144 550 374 277 264 262 309 162 79 159 248 290 40 123 177 56 334 525 453 744 845 984 833 875 775 137 0 0 61 330 609 830 1314 1238 1075 733 32 147 715 1135 810
98 101 63 57 38 8 4 7 32 685 531 356 360 333 267 206 203 219 254 146 20 13 0 0 345 511 321 405 526 710 622 636 558 159 0 58 7 490 517 924 964 1079 440 367 469 400 624 421 579
28 176 168 69 20 23 21 11 452 713 571 411 277 262 202 298 192 243 268 229 30 0 0 0 302 355 428 160 55 239 275 330 823 391 0 226 151 687 814 1139 517 627 565 499 918 670 807 551 443
4 64 101 25 48 79 51 80 146 718 473 390 329 206 213 243 206 237 220 291 66 2 0 133 251 614 237 282 86 20 712 222 1180 1027 527 303 385 930 889 1380 1102 927 517 306 400 988 965 339 363
0 29 169 125 67 45 47 31 23 669 577 427 420 278 241 240 226 250 164 175 140 108 0 118 143 791 488 728 692 909 628 131 233 994 1361 1182 1138 834 790 658 1153 912 793 530 1156 38 630 378 231
0 0 4 36 8 39 59 109 110 349 618 480 524 416 410 337 233 225 158 184 145 169 211 186 167 786 798 827 574 943 549 692 510 955 922 1014 1161 1787 852 986 830 840 1197 1439 1161 991 193 394 170
0 0 0 10 29 61 0 3 65 91 409 552 523 523 442 410 342 283 199 244 124 55 279 265 190 428 880 680 841 570 712 798 822 945 760 828 1033 1734 1324 778 780 781 1371 1013 561 1019 322 260 260
0 0 0 0 30 30 0 0 146 100 341 343 481 592 499 446 381 472 429 352 157 90 237 144 263 215 422 751 1054 477 413 776 737 641 689 1027 1163 1548 1554 1032 790 1265 911 901 406 285 84 92 8
0 0 0 0 2 14 8 0 230 314 254 368 310 397 631 522 340 425 518 413 311 349 249 114 406 476 272 1017 738 997 464 635 583 347 1123 1297 1388 1588 1482 1400 860 1218 880 986 977 386 458 96 0
0 0 0 0 0 1 0 0 2 218 399 360 461 390 348 557 401 356 91 198 370 472 499 331 745 807 483 806 485 673 907 575 681 314 1314 1479 1556 1623 1505 1425 902 1308 1081 1234 1089 800 510 360 0
0 0 0 0 0 0 2 0 5 204 154 168 360 718 631 470 442 361 170 95 373 522 478 595 553 1072 710 786 811 903 962 592 690 391 312 1484 1333 1878 1638 1388 1425 1333 584 957 1151 893 917 0 0
0 0 0 0 0 0 2 0 0 57 115 303 292 114 376 341 343 390 254 182 203 659 599 486 725 1496 986 1030 1079 915 762 841 766 266 184 784 1224 1399 1761 1533 1312 1496 1275 999 998 1146 903 24 0
0 0 0 0 0 0 0 2 2 3 61 68 138 9 418 211 245 404 319 316 179 524 755 608 712 1254 1376 1187 1078 1210 1023 833 304 242 223 751 728 1196 2109 1615 1771 1537 1640 1064 1063 1748 796 618 145
0 0 0 0 0 0 0 1 0 0 0 5 70 320 467 443 308 323 396 308 266 583 818 864 765 956 1372 1283 1413 1050 1182 618 737 229 182 1083 1036 1380 1892 1865 1816 1673 1712 1396 1420 1648 1196 945 1165
0 0 0 0 0 0 0 0 0 0 1 6 25 220 570 579 428 331 446 290 328 587 648 1032 996 998 1538 1254 1035 1527 1093 982 566 478 316 818 1672 1518 1886 1935 1804 1889 1982 1977 1399 1851 1956 1378 1240
0 0 0 0 0 0 0 0 0 0 0 1 22 171 491 563 408 456 426 356 343 347 740 1231 1255 1279 1570 1762 1188 870 1634 1356 852 1380 491 539 1023 1479 1412 2179 1738 1820 1744 1788 1986 1944 2028 1751 1209
0 0 0 0 0 0 0 0 0 0 0 0 0 27 497 563 654 633 452 441 315 402 1003 1112 1591 1384 1550 1813 1752 1191 1104 2149 1035 571 1514 177 693 938 1582 1818 2276 1813 1672 1633 1953 2234 1915 2016 1613
0 0 0 0 0 0 0 0 0 0 0 0 0 0 241 479 654 906 612 540 400 386 872 1201 1753 1711 1710 1722 1912 1811 1185 1101 1967 795 738 1723 369 670 1498 1789 2030 1960 1871 1881 1998 2362 2323 1986 1877
0 0 0 0 0 0 0 0 0 0 0 0 0 0 15 466 656 1094 919 725 572 462 789 1059 1466 1942 1930 1911 1747 1990 1760 1194 1673 1765 888 1785 1247 1544 1292 1985 1990 1950 2072 2269 2191 2038 2032 2376 2083
0 0 0 0 0 0 0 0 0 0 0 0 0 0 0 174 252 1197 1152 998 817 606 745 984 1191 1905 2023 2129 1903 1961 2179 1944 1383 1942 1999 920 2179 1376 2290 2362 2105 2232 2044 1965 2499 2105 2202 1898 2171

GFSSGP_con_sbcape_042.txt.gz
CAPE
17 2 20 92 310 39 70 11 140 173 209 101 8 44 42 2 32 0 1 0 0 165 1051 1550 2241 2335 1991 2082 2412 2502 1996 2018 2415 2237 2472 2535 2066 2213 2271 2337 1957 1820 1889 1938 2039 1932 1878 1131 1491
0 4 198 183 190 76 37 2 149 215 222 205 191 114 48 1 3 11 0 0 40 360 955 1303 2339 2343 2209 2272 2342 2481 1993 2342 2233 2207 2539 2415 2151 2419 2003 2044 1983 1959 1870 1861 1785 1755 1848 1628 1006
5 139 145 89 62 37 93 29 133 194 206 202 96 117 40 4 5 0 0 0 77 256 1050 1377 2407 2402 2385 1981 2297 2118 2141 2005 2056 2026 2137 2516 2337 2020 2168 1984 1902 1926 1845 1759 1649 1596 1521 1500 1245
57 316 260 182 36 76 188 262 287 298 325 144 99 36 0 0 0 0 0 0 7 643 972 2137 2348 1857 2006 1863 2181 1814 1902 1834 2076 2151 2303 2435 2249 1947 2038 2019 2001 2000 1909 1769 1708 1457 1371 1404 1253
115 198 99 59 52 69 67 81 146 339 347 151 109 2 0 0 0 0 0 0 107 718 1320 1719 2471 2576 1982 1961 1725 1786 1720 1703 2000 2218 2158 2361 2101 2000 2055 2080 2008 1982 1954 1928 1821 1721 1590 1362 1364
14 0 6 1 17 47 26 166 108 381 278 132 10 4 0 0 0 0 0 0 446 867 1371 1655 2362 2466 1988 1632 2014 1712 1623 1763 1933 1986 2078 2336 2266 2106 2051 1998 1969 1901 1844 1856 1826 1747 1501 1382 1417
0 8 0 4 0 48 81 223 279 233 180 106 65 0 0 0 0 0 0 384 595 931 1306 1574 1669 1522 1629 1876 1994 1686 1732 1797 1902 1899 1947 2013 2059 2050 2034 2108 1984 1891 1792 1696 1639 1629 1670 1599 1282
0 0 10 65 71 61 58 267 322 251 188 147 0 0 0 0 0 0 0 374 412 902 1279 1202 1080 1065 1411 1511 1911 1700 1883 1812 1854 1801 1710 1659 1674 1749 1928 2185 2266 1919 1734 1658 1602 1556 1619 1573 1264
0 0 72 22 10 5 36 304 512 275 163 162 143 0 0 0 0 0 13 420 588 965 1181 1051 895 996 1092 1237 1409 1614 1921 1824 1844 1768 1832 526 188 756 1362 1710 1925 1664 1461 1590 1804 1960 2067 1770 1481
175 90 60 25 1 16 23 183 446 345 396 253 10 0 0 0 0 7 154 483 554 764 1020 930 741 718 810 1311 1085 1001 1352 1455 1266 81 0 0 0 349 1177 1614 1745 1539 1044 1475 1083 1069 1657 1344 1255
248 102 22 9 24 50 3 573 401 463 341 186 25 44 5 0 61 142 248 357 516 638 946 688 508 446 635 786 771 750 888 973 741 19 0 0 7 287 580 787 1164 910 807 467 0 106 567 742 788
51 225 51 0 16 64 21 42 479 470 375 258 97 100 73 105 241 205 230 198 424 549 722 418 266 420 187 551 575 574 595 553 428 11 0 0 0 310 399 284 516 918 257 239 173 320 522 524 255
9 11 28 22 0 1 2 28 444 496 406 266 143 102 126 235 249 187 285 141 218 270 253 161 170 304 120 203 157 378 333 371 409 67 0 0 21 233 421 641 722 557 433 264 474 528 594 499 45
0 0 21 1 0 1 0 88 592 404 340 346 280 138 183 197 216 304 326 60 67 45 30 32 205 151 196 46 0 13 73 133 430 198 0 43 0 336 531 564 222 322 274 278 165 615 473 117 44
0 0 26 0 4 10 4 103 607 424 384 372 339 262 236 239 289 352 358 48 12 0 0 25 178 158 124 0 0 0 59 18 550 382 145 165 42 659 624 710 721 343 305 192 103 162 131 21 46
0 0 6 6 5 37 7 103 656 372 341 323 294 258 284 315 291 329 339 181 8 0 0 24 205 301 5 325 122 453 37 0 378 787 579 407 462 577 657 647 679 605 848 685 744 369 77 89 75
0 0 0 12 62 43 12 75 631 375 271 267 249 211 253 246 221 245 253 137 72 0 0 36 38 500 3 405 103 272 318 320 262 530 579 672 1115 991 472 471 678 471 645 776 197 610 178 151 138
0 0 0 0 0 34 40 130 549 441 368 358 296 218 239 247 194 205 203 120 108 24 7 14 0 503 66 295 58 63 93 119 344 539 310 378 950 1221 922 439 211 494 628 502 381 62 33 54 66
0 0 0 0 0 0 13 245 615 526 409 449 415 323 293 302 225 152 181 86 103 79 40 11 0 298 225 340 245 43 20 38 200 174 368 434 711 1039 1078 910 899 851 802 709 70 70 45 5 0
0 0 0 0 0 0 0 170 222 397 514 474 519 532 503 380 302 187 130 84 93 96 71 30 0 51 290 180 235 211 24 31 172 5 451 609 822 1073 975 865 618 679 809 666 584 269 101 3 0
0 0 0 0 0 0 0 33 128 225 411 148 208 641 609 514 391 268 228 156 95 110 104 56 21 0 35 231 68 303 442 227 272 109 519 754 926 1131 1091 913 724 775 590 701 620 467 65 0 0
0 0 0 0 0 0 0 0 117 255 203 30 145 394 504 461 411 319 324 301 202 147 88 77 123 87 33 284 130 278 433 730 369 174 2 814 917 1139 1202 969 911 1080 531 380 641 540 355 0 0
0 0 0 0 0 0 0 0 17 184 176 190 99 184 304 354 413 278 346 359 332 216 194 101 383 228 194 449 277 177 210 360 279 113 21 400 786 950 1152 1117 923 895 1018 580 506 989 622 0 0
0 0 0 0 0 0 0 0 0 102 286 211 42 3 30 155 401 325 216 102 350 353 301 200 594 444 373 519 424 338 256 305 260 133 3 58 450 583 1117 1175 1047 1123 1092 968 563 891 554 551 0
0 0 0 0 0 0 0 0 0 1 159 156 74 111 138 77 341 379 217 106 284 419 337 330 395 806 619 547 643 522 489 384 389 88 7 58 398 395 889 1511 1084 1174 1162 880 755 988 953 374 734
0 0 0 0 0 0 0 0 0 0 3 35 104 351 113 69 306 333 323 180 128 521 498 370 399 574 912 734 621 628 551 651 443 179 1 7 481 588 744 1391 1368 1331 1185 1204 992 971 1358 812 663
0 0 0 0 0 0 0 0 0 0 0 0 0 169 64 299 410 296 374 253 218 423 622 575 416 391 876 933 858 878 835 712 739 351 200 0 315 1024 830 1340 1382 1316 1250 1292 1336 1172 1172 1444 723
0 0 0 0 0 0 0 0 0 0 0 0 0 3 25 555 480 348 337 328 304 379 579 710 604 464 593 1057 853 672 769 1435 968 543 488 777 24 823 1081 1113 1739 1394 1288 1099 1215 1765 1369 1481 1276
0 0 0 0 0 0 0 0 0 0 0 0 0 8 252 525 529 424 334 419 354 335 589 834 809 702 779 951 1203 1038 687 604 1441 936 229 365 735 86 755 1171 1445 1728 1483 1226 1109 1348 1875 1372 1522
0 0 0 0 0 0 0 0 0 0 0 0 0 0 270 660 625 520 411 492 414 364 638 722 1108 969 996 1113 1293 1386 1249 828 628 1462 828 397 536 773 101 1267 1341 1671 1679 1463 1406 1325 1745 1992 1626

GFSSGP_con_sbcape_045.txt.gz
CAPE
68 38 30 106 585 96 105 29 79 167 47 94 1 19 37 47 28 0 0 0 103 496 1048 1655 2144 1842 1931 2093 2277 2114 2430 2273 2372 2457 2251 2130 2109 2196 2008 1815 1975 2052 2103 2024 1888 1482 1261 1604 1356
22 21 126 196 185 107 35 2 254 325 174 66 45 68 10 16 2 19 1 42 397 822 1077 1701 2179 2277 1839 2073 2025 2190 1869 1971 2198 2280 2280 2135 2123 2048 2029 1958 1887 1953 2026 2044 1872 1741 1218 1285 1140
8 101 100 54 6 54 117 0 177 134 258 164 161 64 1 2 5 3 0 215 620 897 1066 1600 2266 2389 1763 1904 2005 2374 2142 1892 2230 2299 2321 2214 2383 2027 2005 2041 1973 1957 1858 1622 1629 1623 1412 1039 1216
19 258 241 133 53 69 75 169 127 191 246 188 36 0 0 1 2 0 30 371 806 1062 1049 2015 1868 1983 1734 1891 2099 2316 1886 1908 2127 2659 2228 2216 2076 2153 2113 2020 2052 2026 1874 1771 1578 1401 1406 1339 1101
112 289 108 25 21 71 61 151 216 271 308 154 11 1 7 0 0 0 93 258 678 889 1350 1496 2324 2173 2123 1778 1871 1981 1847 2090 2346 2573 2194 2276 2117 2118 2248 2253 2204 2081 1994 1913 1743 1666 1403 1394 1191
14 1 10 1 3 54 121 181 408 417 154 0 0 0 0 1 0 7 19 266 713 1172 1479 1538 2088 1832 2067 1677 1775 1735 1891 2139 2109 2267 2410 2257 2222 2240 2250 2195 2056 1957 1957 1974 1713 1578 1296 1411 1393
0 0 2 15 38 20 121 228 290 311 182 46 0 0 0 3 0 0 2 405 952 1278 1373 1521 1610 1299 1715 1944 1712 1687 1947 2010 2047 2144 2343 2255 2238 2188 2027 2123 2030 1917 1823 1737 1763 1313 1265 1139 1275
2 0 4 87 35 66 51 145 318 227 175 8 0 0 0 0 0 0 257 440 833 1248 1361 1328 1207 1000 1315 1705 1693 1788 1924 1996 1969 1935 1924 1922 2014 2090 1836 2492 2398 1884 1771 1684 1659 1559 1667 1488 1439
0 0 6 58 39 64 86 135 447 222 113 108 7 0 0 0 0 50 309 367 815 1211 1162 917 878 1076 1089 1306 1376 1773 1897 1947 1888 1736 2057 1215 608 960 1407 1825 1978 1612 1622 1801 1982 1811 1811 1814 1838
85 5 6 22 19 11 55 394 401 188 218 2 0 0 0 0 0 155 311 374 601 823 1157 787 789 910 1005 1466 1129 1238 1454 1426 1325 773 105 98 146 660 1276 1542 1722 1485 1240 1765 457 1358 1547 1357 664
281 31 0 2 5 12 14 437 353 237 239 11 0 0 0 0 0 125 369 404 469 769 1130 797 676 655 884 1143 850 837 1044 1153 920 1 0 0 28 290 551 722 1111 747 760 330 59 154 514 561 833
142 153 266 14 6 67 28 427 438 380 322 30 0 0 0 0 0 77 396 472 552 779 924 714 505 485 555 509 717 690 786 772 640 100 0 0 84 331 499 327 357 574 145 148 50 207 656 168 324
38 46 57 301 281 19 1 362 440 357 243 0 0 0 0 0 1 128 300 478 512 619 749 565 306 336 301 308 430 449 500 588 457 22 0 0 17 212 311 443 371 454 371 164 277 217 340 128 37
0 0 0 2 2 0 0 4 388 332 79 4 0 0 0 0 43 113 175 336 394 472 505 311 150 224 76 152 39 200 246 299 409 157 0 0 3 262 276 323 269 270 210 108 78 355 254 54 32
0 0 0 0 0 0 51 368 446 274 80 77 16 1 0 18 141 94 150 181 274 226 198 71 25 115 41 57 0 2 98 117 265 307 58 9 3 315 475 374 435 205 182 164 6 6 27 16 12
0 0 0 0 12 0 1 0 392 221 124 88 52 41 14 86 133 109 93 46 72 46 24 0 107 113 27 22 0 0 0 37 86 303 260 60 59 372 451 522 569 255 329 351 606 250 43 33 15
0 0 0 0 0 11 3 241 371 240 208 154 79 62 102 61 72 150 124 13 2 0 0 0 24 68 7 0 0 0 0 0 48 398 454 205 233 533 436 583 660 428 350 318 480 325 80 93 63
0 0 0 0 0 12 1 45 394 266 246 237 185 122 134 119 62 133 135 31 0 0 0 0 0 36 0 22 0 16 60 152 42 338 454 435 693 837 249 266 327 306 588 321 189 70 30 52 29
0 0 0 0 0 4 25 21 491 281 201 222 196 162 179 175 146 85 138 108 0 0 0 0 0 11 6 60 13 0 0 23 184 193 341 364 677 893 568 273 235 537 314 373 24 31 0 0 0
0 0 0 0 0 0 0 0 530 341 197 220 234 184 177 180 152 110 79 98 22 0 0 0 0 0 62 24 140 0 0 0 40 37 220 264 441 857 824 637 607 577 455 308 210 20 13 0 0
0 0 0 0 0 0 1 48 288 471 293 220 205 191 159 180 168 124 106 104 23 0 0 0 0 0 120 30 0 45 17 0 10 9 230 267 479 809 784 647 359 492 419 454 245 124 0 0 0
0 0 0 0 0 0 0 5 339 468 382 284 330 252 190 196 203 146 129 107 98 0 0 0 0 0 38 2 11 89 35 4 0 0 3 407 556 732 854 613 398 501 326 151 319 158 20 0 0
0 0 0 0 0 0 0 0 5 155 277 343 385 406 372 297 248 198 142 109 120 28 2 0 0 0 0 2 10 5 0 0 15 0 0 311 516 685 935 751 580 699 624 256 315 276 113 0 0
0 0 0 0 0 0 0 0 0 11 73 326 238 192 269 469 399 303 210 163 153 100 43 4 0 0 0 3 4 0 0 20 151 78 0 5 414 496 776 854 619 522 654 591 259 339 232 9 0
0 0 0 0 0 0 0 0 0 0 4 157 174 137 94 323 484 392 296 251 268 163 110 27 17 12 3 1 39 0 0 1 82 59 1 0 80 227 544 795 726 652 660 715 454 346 602 264 25
0 0 0 0 0 0 0 0 0 0 7 87 106 134 129 233 426 475 311 292 293 296 164 55 67 72 29 58 95 65 16 0 10 30 1 0 5 170 404 742 798 702 789 784 450 480 663 242 382
0 0 0 0 0 0 0 0 0 0 0 12 107 146 114 57 75 182 433 249 210 335 264 162 70 168 128 130 167 171 102 103 69 23 0 0 0 109 162 432 1048 1005 902 907 725 544 750 965 370
0 0 0 0 0 0 0 0 0 0 0 0 116 144 125 88 59 84 314 255 145 341 337 274 153 223 281 233 247 311 272 264 237 104 0 0 0 246 402 480 663 900 1080 919 919 773 701 929 962
0 0 0 0 0 0 0 0 0 0 0 0 0 31 63 176 92 56 164 286 197 345 460 302 255 209 301 433 380 404 425 411 404 378 156 204 0 101 609 577 856 970 983 878 867 1120 1172 934 1096
0 0 0 0 0 0 0 0 0 0 0 0 0 0 0 142 174 110 161 254 266 193 422 456 303 236 221 484 519 520 572 680 826 627 243 144 455 0 233 690 798 1140 1174 992 938 915 1265 1417 1213

GFSSGP_con_sbcape_048.txt.gz
CAPE
61 33 9 65 249 9 57 25 56 49 60 14 0 0 3 37 0 0 0 0 32 287 1028 1330 2007 2007 2057 1803 2330 2025 2171 2163 2168 2129 2010 1995 2006 1871 2032 1936 1817 2010 2052 1734 1357 1558 1419 1085 1278
40 24 80 157 89 51 48 2 83 192 149 0 3 54 26 25 0 10 0 23 302 673 1070 1240 1905 2240 1841 1898 2335 2073 2216 2215 2279 1894 1722 1872 1956 1983 1714 1951 2018 1541 1602 1795 1453 1294 1269 1270 1324
27 30 155 78 31 53 83 31 17 229 213 0 79 9 0 3 3 0 0 248 594 788 1228 1196 1935 2235 1742 2110 2233 1868 2159 2207 2119 1967 2114 1981 2053 2029 2057 1956 1970 1655 1686 1234 1531 1364 1145 916 1023
19 140 184 118 57 92 157 156 364 90 273 145 1 0 0 2 0 0 236 490 676 906 1194 1687 1950 1597 1672 2123 2043 1795 2041 2086 2082 2136 1973 2040 2113 2001 2054 1977 1890 1767 1836 1679 1427 1425 1214 1260 1316
104 302 163 76 65 107 132 156 372 213 241 90 0 2 5 1 0 69 381 630 679 775 1080 1210 2209 2062 1574 2087 2032 1718 1844 1866 2148 2097 2251 2209 1944 1905 2139 2187 2078 1971 1901 1693 1385 1338 1101 1152 1155
79 5 15 11 34 89 192 180 287 399 98 0 0 3 2 19 4 146 453 564 609 941 1076 1298 1704 2034 1657 1754 1782 1715 2048 1838 2157 2200 2354 2301 2309 2127 2113 1995 1970 1885 1753 1558 1272 1120 1090 1231 1145
21 0 6 30 60 174 117 12 0 338 88 1 0 0 4 21 25 123 291 522 903 1185 1118 1237 1030 1788 1434 1557 1524 1774 1972 2004 2258 2151 2325 2301 2221 2205 2056 1975 1825 1776 1661 1379 1042 1104 1091 1256 1208
0 0 2 77 34 123 117 85 396 401 215 0 0 0 13 19 34 47 361 716 978 1138 1168 1195 869 901 1247 1163 1486 1513 1870 1920 2070 2141 2164 2183 2110 2063 2033 1601 1850 1582 1636 1421 1006 1205 1524 1354 1392
0 0 1 63 53 146 178 239 386 192 14 0 0 0 0 8 4 200 329 695 987 1104 1066 955 739 819 1010 1022 1274 1649 1884 1882 1879 1790 1950 1249 871 1169 1522 1852 1724 1519 1587 1624 1597 1543 2040 1883 1481
4 0 0 41 58 13 140 262 450 162 62 0 0 0 0 0 59 95 101 189 458 917 1035 737 696 808 915 1396 1075 1189 1488 1185 1316 1097 317 267 359 714 1175 1690 1664 1334 1613 889 1538 1665 1563 1068 1053
156 55 5 15 11 55 50 410 247 137 122 0 0 0 1 0 49 55 55 147 334 470 1072 639 678 699 882 1123 764 929 1020 1041 676 152 0 37 121 365 637 807 1043 590 717 236 289 480 736 791 913
177 186 201 52 45 27 35 395 318 189 262 0 0 0 0 0 55 56 53 118 325 456 740 636 549 585 621 625 654 702 855 863 630 18 0 0 58 305 486 602 443 636 199 179 316 475 687 75 717
111 168 72 170 246 200 46 144 349 248 0 0 0 0 0 0 59 133 162 231 385 416 765 652 403 394 403 356 522 498 606 683 544 162 0 0 11 316 512 429 178 495 401 208 476 643 459 113 48
0 8 8 0 0 3 28 30 352 59 0 0 0 0 0 0 6 259 350 316 337 455 625 514 335 219 159 112 315 309 312 411 369 44 0 0 5 187 256 219 346 224 317 216 324 749 306 68 35
0 0 0 0 0 0 1 210 239 0 0 0 0 0 0 0 1 155 354 372 283 268 449 308 178 36 34 0 9 79 132 213 307 315 61 0 45 183 388 399 362 182 252 185 191 1 31 45 41
0 0 0 0 0 0 6 0 351 0 0 0 0 0 0 0 2 62 159 329 273 252 217 119 206 17 3 0 0 0 0 89 118 271 246 59 167 96 494 614 631 330 470 468 569 240 63 63 55
0 0 0 0 0 14 0 106 310 45 2 0 0 0 0 0 0 25 89 165 221 123 52 0 10 0 0 0 0 0 0 0 3 139 259 186 235 389 524 506 711 582 606 584 745 425 92 108 80
0 0 0 0 0 9 13 63 268 102 36 4 0 0 0 0 1 23 56 22 78 4 0 0 0 0 0 0 0 0 0 2 0 118 338 297 339 645 360 526 419 511 804 661 303 154 55 85 38
0 0 0 0 0 0 20 74 331 190 91 29 13 1 0 0 33 37 35 0 0 0 0 0 0 0 0 0 0 0 0 0 52 72 403 419 557 930 275 348 336 738 521 594 143 59 20 12 9
0 0 0 0 0 0 0 1 341 226 179 127 69 32 32 41 42 42 39 1 0 0 0 0 0 0 0 0 0 0 0 0 28 48 235 377 603 1035 714 393 540 764 583 186 138 70 73 2 0
0 0 0 0 0 0 0 0 120 282 148 125 122 51 21 44 63 61 39 46 0 0 0 0 0 0 0 0 0 0 0 0 7 5 78 208 441 931 943 672 603 601 283 323 364 165 14 0 8
0 0 0 0 0 0 0 0 0 257 194 125 75 86 83 85 94 87 60 45 15 0 0 0 0 0 0 0 0 24 3 17 0 4 6 174 380 596 845 746 444 591 363 524 525 247 0 0 0
0 0 0 0 0 0 0 0 0 129 189 160 100 71 76 103 106 104 98 68 39 0 0 0 0 0 0 0 0 0 15 0 0 0 0 84 279 472 876 787 562 569 669 359 448 416 138 0 0
0 0 0 0 0 0 0 0 0 2 272 273 230 151 113 107 122 110 87 88 58 27 0 0 0 0 0 0 0 0 0 0 0 0 0 3 211 393 665 919 664 588 814 716 355 504 214 3 0
0 0 0 0 0 0 0 0 0 0 5 179 318 259 241 177 131 119 108 92 89 60 0 0 0 0 0 0 0 0 0 0 0 0 0 0 18 268 461 724 717 619 623 840 631 520 604 299 2
0 0 0 0 0 0 0 0 0 0 0 49 156 319 277 266 230 184 155 137 111 95 51 12 0 0 0 0 0 0 0 0 0 0 0 0 0 130 424 570 796 763 794 784 729 616 666 531 553
0 0 0 0 0 0 0 0 0 0 0 0 61 119 183 155 143 344 311 205 155 132 84 47 23 0 0 0 0 0 0 0 0 0 0 0 0 42 255 513 844 827 854 918 810 688 795 994 561
0 0 0 0 0 0 0 0 0 0 0 0 3 61 96 161 60 135 347 276 229 178 151 62 35 4 4 0 0 0 0 0 0 0 0 0 0 41 165 304 732 951 991 969 941 902 728 1017 1132
0 0 0 0 0 0 0 0 0 0 0 0 0 55 123 158 111 150 295 370 245 230 220 98 45 30 34 42 55 72 66 41 44 17 8 0 0 0 180 315 486 671 944 1089 1104 1193 1122 974 1125
0 0 0 0 0 0 0 0 0 0 0 0 0 0 127 192 165 91 92 156 267 187 236 245 89 47 78 108 131 149 161 166 152 150 74 40 0 0 211 435 539 781 883 1011 1112 1255 1489 1336 1284

GFSSGP_con_sbcape_051.txt.gz
CAPE
37 20 29 116 153 21 56 89 71 50 123 0 0 0 4 35 35 34 4 0 0 643 827 1529 2208 2231 2179 2248 2437 2324 2350 2390 2213 2156 2068 2095 2105 2087 1845 1624 1885 2042 1561 1381 1733 1163 1035 1584 1759
31 22 53 140 126 128 93 22 161 54 101 2 29 13 65 24 0 6 9 22 65 601 573 1312 2275 2272 1848 2181 2460 2573 2205 2175 2226 2129 2099 2018 1961 2072 1838 1671 1416 1620 1857 1522 1396 1426 1408 1375 1392
32 17 208 95 77 176 87 33 70 306 8 16 143 36 20 7 2 0 1 82 193 766 732 1345 2277 1929 2068 2014 2159 2427 2310 2243 1852 1900 1955 1892 1941 1738 1870 1633 1343 1582 1220 1577 1486 1215 1131 1192 1280
29 211 175 170 50 71 89 160 348 289 30 0 83 11 3 5 2 1 64 222 222 887 608 1479 2062 1540 2090 2032 2094 2194 2063 1878 1999 2068 1670 1977 2009 1817 1892 1707 1729 1824 1639 1361 1396 1365 1426 1214 1040
135 259 275 145 62 101 39 116 267 252 121 104 0 0 9 7 8 31 145 221 408 489 896 1393 2154 1968 1935 2011 1840 2160 2018 1855 1936 2017 2020 2152 2130 2024 1873 1978 1892 1906 1665 1341 1300 1279 1213 1206 1307
361 4 54 28 51 102 231 166 379 391 83 0 0 1 5 27 39 87 110 285 461 334 733 1246 1838 1847 1759 2044 1703 2033 2057 1925 2123 2089 2483 2571 1956 2219 2106 1901 1837 1626 1243 1204 996 1184 1310 1211 1400
73 34 18 36 66 258 249 45 14 502 105 23 0 0 17 34 61 103 146 379 482 377 940 1048 1586 1378 1776 1815 1717 1871 1990 1970 1927 2306 2442 2276 2212 2086 2043 1784 1739 1519 1274 1054 1017 1206 1342 1330 1489
96 13 16 128 111 85 153 11 206 410 27 0 0 0 16 24 112 202 214 338 630 392 1017 932 1656 874 1042 1272 1705 1867 1893 2085 2207 2322 2234 2172 2134 1981 1882 1938 1771 1579 1140 1039 1168 1275 1299 1475 1776
16 6 9 58 115 90 70 268 434 272 0 0 0 0 0 35 126 265 163 256 777 523 1071 660 1405 1105 1411 1241 1427 1281 1792 1957 1996 2152 2262 2079 1877 1641 1345 1761 1606 1340 1407 1299 1061 1219 1461 1613 1650
27 86 31 30 50 75 163 329 451 232 31 0 0 0 5 39 162 144 69 108 409 459 1015 627 971 1193 1118 962 1606 1750 1632 1478 1682 1862 1730 1699 1700 1807 1380 1564 1626 1557 1368 1415 1685 1299 1513 1163 1114
212 122 54 57 41 122 94 290 664 428 221 7 0 6 8 56 79 51 1 126 297 417 845 964 931 1442 1135 1254 1426 1554 1621 1649 1784 1330 1166 1338 1576 1815 1373 1495 1699 1359 1076 876 1059 1305 899 886 859
233 254 235 126 35 32 173 425 578 438 395 122 0 0 2 24 13 13 0 170 372 591 828 1144 931 1210 1241 1384 1359 1461 1390 1383 1134 983 854 1253 1331 1560 1747 1205 1391 1470 1158 1364 1323 1244 1341 1166 1197
166 311 225 200 165 140 152 138 210 471 71 1 0 0 4 5 2 1 23 182 287 362 519 1112 1048 1070 1372 1537 1264 1343 1408 1303 1112 739 297 883 1122 1466 1268 1121 1205 1641 1467 1499 1591 1576 1187 1066 1233
8 37 145 33 24 49 31 32 275 225 0 0 0 0 1 0 0 3 66 180 333 333 570 1020 1078 928 1162 1132 1444 1323 1334 1200 1185 1052 243 350 630 1350 1471 1556 1576 1551 1388 1381 1667 1723 871 618 448
0 0 0 0 0 1 4 63 393 41 0 0 0 0 0 0 0 9 65 124 297 425 612 925 973 793 1005 1004 1197 1005 1037 959 973 591 286 290 567 1274 1478 1500 1488 1364 1457 1369 1409 1109 661 392 663
0 0 0 1 0 0 7 128 524 0 0 0 0 0 0 0 0 8 85 142 209 307 704 824 582 531 639 598 663 611 604 838 1139 1296 1316 877 730 1106 1725 1596 1556 1539 1568 1657 1309 913 491 466 599
0 0 0 4 2 37 64 95 641 14 9 0 0 0 0 0 1 46 121 278 372 470 576 788 721 498 408 510 462 356 462 713 901 1029 1140 1394 1060 1117 1561 1772 1702 1778 1808 1688 1544 1439 625 435 356
0 0 0 46 28 37 122 132 584 124 35 0 0 0 0 0 0 16 142 314 490 547 496 599 642 566 556 455 638 324 164 487 790 910 1028 1304 1335 1205 1622 1953 1974 1716 1973 1636 1288 1667 261 775 414
0 0 0 0 12 28 181 197 677 436 234 32 0 0 0 0 0 0 69 197 533 659 603 579 617 658 446 354 331 381 339 508 784 1020 1254 1480 1441 1483 1859 1523 1740 1602 2492 2159 1316 828 610 106 178
0 0 0 0 0 0 17 106 454 609 496 275 26 0 0 0 0 0 65 111 269 582 628 646 590 644 576 332 718 474 797 835 1157 1321 1375 1596 1524 1881 1948 1691 1521 1999 1729 1723 1488 1287 246 95 108
0 0 0 0 0 0 0 1 99 633 582 442 230 67 10 6 0 4 12 118 187 362 492 569 660 652 703 716 631 664 835 827 970 1265 1400 1574 1665 1955 2192 1907 1610 1991 2365 1600 1741 1342 939 62 172
0 0 0 0 0 1 0 38 8 206 639 594 490 338 169 64 16 22 69 86 108 336 330 474 702 736 620 773 772 1210 754 718 863 1204 1391 1629 1722 1829 2252 2335 2001 2006 1879 1970 1846 1561 1048 322 188
0 0 0 0 0 0 0 0 7 95 321 617 641 580 425 220 136 98 182 199 172 181 212 246 703 1058 1070 929 1157 879 1097 797 915 875 1457 1751 1847 1778 1746 2132 2042 1873 1938 2148 1854 2023 1831 563 135
0 0 0 0 0 0 0 0 0 11 180 520 627 611 606 480 280 275 251 225 299 308 128 109 696 971 1121 1039 1153 1580 1663 1264 848 955 893 1082 1325 1529 1713 1831 2046 2030 1872 2120 1975 1991 1906 1154 124
0 0 0 0 0 0 0 0 0 0 22 194 560 659 658 634 502 374 357 323 405 633 423 402 553 805 949 998 1187 1353 1601 1784 1515 1241 827 994 934 1274 1573 1943 2116 1999 2223 2181 2224 2257 2021 1661 1091
0 0 0 0 0 0 0 0 0 0 0 0 142 488 570 614 571 510 422 493 752 680 773 566 621 762 814 928 1226 1395 1541 777 750 1190 667 650 588 860 1497 1915 1973 2096 2188 2154 2288 2166 2146 1996 1706
0 0 0 0 0 0 0 0 0 0 0 0 1 192 509 657 650 580 511 627 765 809 855 795 888 842 829 527 1108 1297 1382 1357 953 1403 1268 723 1169 522 1140 1654 1832 1971 2100 2222 2355 2164 2392 2359 2324
0 0 0 0 0 0 0 0 0 0 0 0 0 34 315 647 745 699 613 649 837 674 860 832 905 895 873 841 980 983 1201 1331 1347 1374 1397 1386 915 812 728 1534 1738 1935 2022 2243 2448 2074 2382 2531 2260
0 0 0 0 0 0 0 0 0 0 0 0 0 2 85 489 750 809 864 849 805 661 812 886 869 995 974 883 932 1083 955 838 818 962 1147 1481 1093 1110 1319 1616 1732 1880 1999 2127 2374 2297 2240 2570 2585
0 0 0 11 0 0 0 0 0 0 0 0 0 0 29 209 620 731 802 886 844 1028 939 809 897 698 934 976 1033 1031 1227 1144 922 1278 1048 1384 1617 1178 1343 1585 1801 1824 1815 1941 2171 2100 1746 2352 2660

GFSSGP_con_sbcape_054.txt.gz
CAPE
8 0 12 125 77 320 298 396 256 479 204 116 27 2 146 260 315 553 234 19 249 143 941 1402 2220 2259 2217 2429 2531 2332 2081 2109 2004 1936 2102 2225 2334 2078 1662 1832 2089 1605 1496 1815 1131 1126 1609 1619 1655
5 0 43 325 475 393 562 238 497 358 298 87 24 35 128 250 79 118 71 264 110 137 747 804 2012 2226 2289 2399 2422 2473 2454 2345 2316 2285 2259 2211 2142 2035 1780 1496 1478 1843 1601 1532 1648 1539 1381 1574 1731
2 2 220 96 201 310 473 465 471 314 56 97 215 226 369 298 45 108 130 145 79 184 624 1430 1955 2460 2132 2393 2313 2346 2331 2280 2303 2278 1978 2069 2121 1741 1572 1514 1575 1408 1776 1637 1370 1356 1425 1180 1616
6 120 190 384 91 128 140 568 419 242 87 167 306 398 144 76 87 131 24 45 67 225 542 1799 1846 1856 2056 2234 2315 2283 2275 2059 1985 1957 1829 1959 1962 1812 1681 1656 1811 1647 1415 1558 1496 1508 1191 1131 1402
188 607 468 591 166 103 180 303 458 416 20 109 352 350 12 16 36 77 13 23 103 190 609 1421 2200 2035 1925 2083 2120 2134 1949 2000 2135 2116 2076 1910 1917 1930 2029 1926 1942 1732 1486 1398 1388 1340 1272 1217 1194
496 371 396 254 45 215 43 56 361 298 197 172 297 188 8 17 75 115 23 34 63 253 529 845 1758 1916 2155 1999 2073 2071 1840 2007 2080 2032 1935 2078 2146 2109 1980 1759 1546 1280 1271 1194 1309 1294 1282 1339 1640
552 454 238 247 70 248 340 521 594 680 400 209 346 411 58 99 103 95 52 66 69 313 415 638 1394 1767 1752 1800 2057 2113 1841 1905 1989 2257 2193 2266 2181 2002 1794 1635 1294 1237 1122 1010 1251 1271 1330 1533 1824
588 245 236 366 100 544 304 2 56 720 395 299 204 425 169 116 75 97 86 105 79 289 360 704 734 1545 1078 1370 1984 2135 1998 1828 1753 2013 2315 2221 1996 1500 1013 1780 1497 1146 1095 1050 1094 1260 1465 1483 1914
232 52 212 299 174 344 192 180 429 428 70 94 116 157 206 131 97 59 125 137 119 333 382 870 526 740 1085 1228 1743 1963 2051 2196 2285 2261 2290 2050 1062 884 1228 1681 1376 1285 1077 1032 1095 1205 1553 1706 1701
257 248 188 63 98 29 159 471 865 754 223 74 22 58 132 126 84 62 103 191 82 199 246 689 512 737 887 917 1397 1470 1641 1488 1515 1449 1637 1120 1279 1375 1116 1363 1487 1429 1401 1479 1107 1331 1433 1734 1153
442 208 178 49 25 128 293 487 924 828 532 252 168 98 150 195 248 48 41 158 43 111 139 346 551 864 737 1195 1288 1410 1298 1497 1731 1800 1552 1288 1138 941 1170 1389 1529 1290 1392 1100 1237 1363 970 744 800
124 181 357 81 141 98 119 422 724 746 824 626 242 139 204 155 97 18 21 38 24 67 191 222 559 1005 824 1176 1052 1088 1013 1097 1060 1092 1612 1644 1219 1193 1122 1155 1366 1283 1210 1440 1282 1048 1227 1133 1196
27 184 257 214 134 264 261 333 325 605 659 380 270 144 137 123 63 18 2 4 7 31 240 231 519 1071 1132 1271 984 894 934 829 716 1071 1237 992 962 1271 1207 1370 1287 1231 1194 1201 1251 1265 1286 1528 1057
0 10 518 227 179 230 331 265 153 575 549 466 310 185 112 87 52 12 3 3 85 10 189 333 499 855 1139 1226 1338 1236 1159 1159 958 678 776 1428 1034 1482 1500 1353 1332 1296 962 932 997 1230 630 363 459
0 0 4 40 49 27 157 165 253 680 553 575 435 255 76 94 37 8 14 3 83 96 155 432 543 580 1048 1213 1459 1237 1121 991 1063 1013 1056 1029 1337 2043 1642 1651 1752 1381 1672 1554 1329 988 649 137 250
0 0 17 180 0 8 101 224 572 573 676 649 486 263 105 104 20 14 34 0 44 45 164 444 277 290 749 953 1203 827 847 851 839 829 967 1103 1551 1854 1621 1627 1288 1536 1097 548 576 305 139 151 95
0 0 0 114 69 101 204 348 819 493 624 597 514 299 167 135 39 24 32 0 42 131 274 501 367 269 477 824 852 830 938 1136 1262 1275 1428 1921 1630 1619 1232 1173 1238 1866 789 520 267 115 89 117 72
0 0 0 0 308 331 313 366 762 475 524 620 540 339 204 137 62 24 24 0 4 157 379 502 413 392 526 523 738 682 920 1159 1220 1237 1266 1914 1752 1684 1267 1390 1221 1247 755 614 345 380 482 136 93
0 0 0 64 200 315 355 362 840 653 582 620 536 398 243 164 96 44 43 70 59 231 366 566 514 603 595 396 490 718 761 903 1126 1129 1484 1853 1729 1847 1544 1265 1354 945 918 1179 1453 1082 1179 221 265
0 0 0 7 30 210 312 361 441 932 771 619 510 410 273 198 103 73 140 116 123 391 492 617 718 773 803 234 485 508 704 809 1022 1345 1773 1988 1880 2106 1952 1734 1495 947 701 1201 1265 1155 436 273 250
0 0 0 0 0 1 186 298 291 766 942 863 488 357 256 228 148 62 156 138 130 371 611 744 976 1000 872 606 298 669 984 1252 1544 1664 1608 1971 2003 2082 2257 2187 1657 1473 1318 798 1054 1555 830 285 396
0 0 0 0 0 15 125 228 212 347 1028 1008 955 519 291 160 190 112 101 214 114 283 746 888 1183 1233 1002 920 773 1818 1114 886 742 1175 1017 1442 2094 2034 2194 2383 2129 1665 1131 1415 1077 1543 1023 931 177
0 0 0 0 0 0 1 126 117 208 581 992 1020 900 639 305 138 147 117 317 253 197 370 902 1421 1868 1656 1598 1410 855 1469 438 566 802 1534 2013 2439 2205 1990 2446 2382 2220 1235 1428 1627 1639 1643 744 348
0 0 0 0 0 0 0 21 63 98 187 529 874 844 844 755 416 202 166 268 386 380 360 655 1604 2081 1803 1418 921 1853 1994 1421 672 1299 1208 1230 1286 1944 2255 2205 2503 2384 1637 1652 1668 1765 1867 1616 930
0 0 0 0 0 0 0 0 6 54 105 145 463 793 844 905 849 578 309 407 444 461 444 539 1531 1954 1752 1302 1121 1331 1664 1969 1649 1427 1150 1545 789 962 1675 2424 2601 2238 2602 2222 2663 2200 2207 2387 1312
0 0 0 0 0 0 0 0 0 1 0 39 162 532 753 890 1011 916 749 558 687 672 604 625 1390 1898 1823 1483 1984 2288 2142 899 1091 1411 1015 879 701 730 1065 2180 2259 2417 2288 2268 2440 2225 1985 2255 1880
1 0 0 0 0 0 0 0 0 0 0 0 1 88 482 716 990 1087 1003 873 743 862 1382 1354 1877 1724 1807 1344 2274 2467 2399 2155 1349 2331 1429 1052 1678 671 887 1388 2090 2052 2212 2399 2406 2047 2478 2289 2424
0 0 5 0 0 0 0 0 0 0 0 0 0 9 111 483 822 930 1158 1073 977 827 907 1002 1103 1717 1777 1378 1584 1587 1631 1946 2137 1705 2217 1819 1186 1396 975 1274 1554 1533 1876 2297 2596 2059 2320 2647 2268
0 1 33 15 1 0 0 0 0 0 0 0 0 0 27 293 782 874 1084 1166 1118 974 901 1047 1066 1286 1379 1713 1855 1815 1557 1543 1598 1609 1686 1860 1745 1598 1840 1443 1324 1332 2032 2236 2527 2323 1999 2719 2805
1 50 1 64 23 0 0 7 0 0 0 0 0 0 10 71 447 837 953 1023 1172 1198 1051 1037 1057 1110 1217 1806 2303 2039 1999 2136 1537 1806 1743 1891 2036 1852 2000 1879 1676 1481 1745 2244 2561 2438 1748 2229 2552

GFSSGP_con_sbcape_057.txt.gz
CAPE
0 0 42 24 135 437 476 430 592 394 128 125 65 132 212 244 514 777 283 472 450 291 1000 1512 2118 2107 2038 2015 2013 2097 2191 2123 2028 2022 2042 2272 2276 1724 1901 1825 1733 1655 1687 1184 1354 1538 1401 1772 1841
4 0 28 534 472 703 522 473 419 335 245 119 89 183 376 437 373 275 327 669 286 191 200 789 2388 2344 2271 2532 2374 2042 2056 2072 2010 2189 2267 2263 2075 1838 1614 1526 1762 1698 1765 1767 1661 1482 1791 1772 1773
1 0 442 134 530 569 329 660 539 269 250 183 182 308 481 235 314 390 383 274 185 100 355 1650 1945 2312 2238 2282 2433 2209 2342 2321 2276 2302 2141 2190 1985 1719 1698 1615 1585 1973 1660 1490 1587 1243 1290 1638 1716
12 17 446 675 366 189 219 770 375 151 372 205 429 532 391 297 192 232 212 146 218 138 596 1758 2105 1982 2145 2196 2292 2232 2106 2263 2262 2058 2116 1917 1906 1741 1682 1804 1593 1434 1681 1632 1486 1203 1269 1381 1511
16 548 588 636 491 185 217 583 627 242 182 326 471 598 329 128 142 298 215 66 270 304 699 1161 2088 2076 2193 2247 2158 2114 2213 2106 1964 1970 2074 2049 1963 1937 1943 2015 1852 1531 1513 1550 1328 1303 1270 1215 1360
483 715 663 383 475 483 572 283 552 109 89 257 597 361 290 209 80 210 198 106 218 145 306 1146 1939 1999 2103 2115 2120 1915 1992 2135 2196 2054 1967 1992 2038 2016 1791 1547 1380 1387 1348 1497 1402 1294 1406 1659 1586
547 655 471 404 236 38 101 312 385 348 546 353 544 743 235 201 58 58 127 68 147 197 311 1140 1555 1730 1979 1960 2015 1896 2008 2052 2001 2080 2016 2131 2000 1779 1550 1404 1404 1273 1212 1331 1151 1291 1406 1591 1632
580 644 380 299 311 440 522 408 684 723 442 585 679 661 331 270 66 30 89 81 151 263 187 800 1270 1053 1215 1785 2077 1942 1931 1962 1868 2099 2161 1908 1442 1038 1060 1912 1614 1197 1071 1203 1267 1457 1507 1765 1756
525 688 351 148 77 605 188 106 176 353 455 443 505 635 362 230 81 37 85 73 291 99 88 239 660 687 897 1742 1989 1958 1899 1875 2263 2122 1974 2060 851 1199 1072 1688 1321 1168 1119 1074 1126 1437 1475 1719 1663
443 626 150 326 186 364 291 350 607 464 516 575 387 587 191 172 74 48 107 70 197 116 138 64 245 498 669 783 1662 1808 1718 1574 1322 826 1880 1840 1679 1766 1080 1305 1463 1329 1238 1127 1173 1400 1436 1730 1228
439 407 294 73 184 56 191 453 580 731 467 441 516 409 125 228 148 155 76 43 114 117 73 98 247 452 503 1033 1127 1017 1273 1516 1580 1286 1231 883 827 849 1055 1231 1382 1379 1542 923 940 1036 1491 1438 1265
64 116 156 18 223 75 291 494 545 687 423 460 542 280 208 223 131 119 104 40 59 51 47 102 350 536 955 605 874 1739 1063 1129 792 1115 1121 1104 2145 1593 1564 1285 1643 1375 1473 1236 1445 580 1321 1423 755
14 37 443 310 232 45 18 0 97 691 586 623 551 278 226 196 114 63 139 36 25 37 26 136 427 778 1044 2223 1675 1360 811 566 725 1199 1211 1064 1399 1495 1595 1588 1079 982 1034 489 937 1553 1525 476 808
2 1 394 260 467 467 154 118 124 427 620 640 538 369 325 252 110 56 128 57 16 29 26 138 397 817 877 1680 1710 1352 865 1078 417 506 916 1102 2097 1853 1995 1184 1448 2142 1966 1826 1729 1960 1051 969 504
0 0 90 487 371 472 229 291 177 647 762 765 593 567 407 254 151 57 68 50 10 12 21 180 468 693 979 1451 1033 1205 1533 617 1197 549 1238 1080 1738 1656 2292 1070 1630 1953 1567 1312 841 242 98 81 639
0 0 136 345 346 276 94 102 140 780 888 942 766 523 444 309 226 82 61 47 71 9 18 285 271 557 822 1029 1250 1040 1384 1081 1446 878 1024 1332 1694 1873 1907 1639 1460 875 1121 1068 514 581 1090 84 795
0 0 2 233 123 120 96 187 210 710 873 1000 947 519 402 358 267 117 53 40 92 15 92 306 332 438 754 1142 1117 969 1197 1404 1359 1207 1712 1679 1750 1628 1754 1489 1486 1641 1100 933 730 1591 337 59 277
0 0 0 103 371 171 136 243 331 636 732 871 912 548 437 314 317 163 61 32 40 13 75 312 346 1093 1576 1182 1181 819 895 1095 1803 1308 1922 2128 2014 1437 1861 1797 1066 1585 1434 420 1412 275 1390 521 383
0 0 0 16 191 213 136 190 342 654 676 964 899 626 522 389 333 180 73 62 22 71 130 443 882 2151 1161 944 865 878 846 1219 1343 1684 1703 1930 2054 1544 1864 2089 1464 1478 1890 587 800 96 500 69 34
0 0 0 0 81 235 249 193 401 624 603 931 1007 657 532 502 343 242 125 69 24 148 249 1160 1307 2332 1436 952 1465 1275 1441 683 746 790 1880 1687 1523 1916 1572 1648 1425 1494 1435 1352 927 1025 671 198 306
0 0 0 3 79 374 239 214 317 450 577 787 952 705 378 532 393 292 197 123 45 166 419 1341 1964 2259 1867 1686 1320 1422 1459 1309 794 1577 1387 1838 1758 1748 1947 1609 2222 1558 1929 1145 1376 1361 2657 919 50
0 0 0 0 15 75 180 163 320 163 658 801 837 875 441 427 452 360 286 200 164 168 431 1432 1743 2390 1911 2072 981 2104 1037 751 667 1261 1079 1699 1929 1781 1903 1876 1722 2119 2096 2619 1828 1683 2207 2232 367
0 0 0 0 0 9 9 180 302 278 449 751 941 765 708 466 428 387 362 360 272 213 485 590 2097 2555 2285 2079 1832 1232 1671 693 647 607 3079 2954 3361 2064 1683 2257 1818 2052 1626 1786 1819 1790 1900 1024 1422
0 0 0 0 0 0 0 78 144 62 402 488 802 901 745 581 466 408 346 414 384 255 426 898 2333 2883 2804 2509 2039 2504 1802 1802 501 889 1551 979 1700 1919 2287 2047 2817 2112 1903 1970 1976 1949 1709 2681 1573
0 0 0 0 0 0 0 3 54 165 144 164 456 796 931 685 538 478 391 345 601 649 724 1310 2464 3022 2938 2492 1847 2007 2567 2652 3089 2544 917 1324 599 763 3142 3271 3022 2492 2556 2241 1934 2361 1972 2101 1500
0 0 0 0 0 0 0 0 1 12 216 80 19 445 735 857 729 550 467 423 859 954 1247 1290 2312 3048 3094 2627 2508 2022 2646 954 852 1645 932 655 461 601 3613 2623 2217 2365 2424 2352 2895 2150 1989 3036 1948
0 2 0 0 0 0 0 0 0 0 6 59 1 208 421 844 835 889 682 517 859 1123 1589 1544 2124 2782 2935 2116 2739 2711 2405 1889 694 1604 2556 1360 1697 817 1105 2124 2258 2118 2057 2666 2926 1816 3020 2518 2431
0 1 0 0 2 0 3 0 0 0 0 4 24 44 309 474 759 883 1063 856 692 747 953 1520 1967 2600 2514 2409 2807 2659 2529 2625 2182 2366 3325 2303 2464 2622 1450 1960 1651 2122 2630 2736 3675 2594 2768 3134 2309
0 0 8 38 5 0 9 0 1 0 0 0 1 2 42 313 576 789 1155 1171 1016 904 870 1041 1416 2159 2269 2428 2604 2323 2367 2248 2316 2995 3125 3334 2862 3267 3041 2668 2304 2271 2357 2785 3881 3639 2641 2746 3285
0 4 0 96 63 5 9 20 13 5 0 0 0 12 2 16 370 728 809 1093 1208 1194 1093 1149 1152 1160 1850 2270 2768 2484 2676 2249 2098 2314 2909 3319 3400 3029 3488 3141 2931 2432 2099 2970 3568 2624 2300 2691 2782

GFSSGP_con_sbcape_060.txt.gz
CAPE
0 0 0 25 38 70 493 242 131 194 130 91 118 217 156 355 276 192 233 477 537 703 1226 1646 2178 1983 2006 1991 2282 2399 2481 2396 2579 2450 2348 2320 1687 2036 1833 1794 1761 1470 1592 1578 1597 1581 1937 1992 1768
0 1 61 633 341 455 337 108 232 146 148 100 191 187 282 284 171 160 440 302 252 725 1152 1210 2320 2605 2078 2080 2206 2344 2216 2136 2245 2463 2371 2294 1863 1714 1652 1614 1703 1956 1929 1847 1737 1707 1650 1779 2037
18 1 279 295 355 385 1 239 221 100 85 177 304 454 185 169 78 243 264 85 22 130 597 1528 2393 2685 2397 2314 2644 2404 2363 2225 2378 2254 2283 2113 2084 2064 1765 1775 1877 1590 1727 1604 1244 1678 1516 1880 1861
3 5 411 512 40 170 302 476 113 134 142 247 296 235 136 93 72 193 205 26 0 373 828 1834 2533 2400 2372 2254 2311 2378 2410 2340 2250 2203 2132 2059 2008 1802 1786 1463 1574 1704 1673 1471 1290 1272 1403 1423 1337
16 401 438 622 465 302 265 638 340 157 156 363 353 147 83 111 121 121 22 26 50 630 947 1429 2573 2290 2407 2124 2567 2300 2313 2231 2024 2218 2423 2201 1858 1916 2036 1949 1484 1703 1515 1261 1309 1279 1253 1282 1493
337 399 600 463 216 424 536 575 195 217 423 264 282 164 85 96 99 39 52 38 333 309 521 1119 1972 2032 2036 2213 2275 2238 2300 2141 2364 2267 2233 2080 2334 2169 1756 1416 1449 1431 1478 1377 1308 1498 1394 1315 1356
68 546 475 301 245 429 429 513 180 91 367 277 247 231 144 80 77 29 79 30 33 120 686 843 1127 1905 2029 2123 2194 2294 2309 2360 2688 2546 2449 2566 2222 1786 1654 1825 1572 1425 1375 1240 1331 1335 1515 1526 1307
398 590 428 207 206 251 290 196 343 363 321 419 509 299 138 47 120 54 68 33 87 138 413 1015 929 1409 1559 1751 2007 2106 2293 2537 1989 2103 2477 2263 1986 1240 1369 2176 1908 1195 1246 1270 1430 1518 1564 1560 1292
40 482 268 82 129 90 171 105 319 633 566 629 514 252 146 14 50 33 63 45 112 79 424 449 502 1258 2007 1941 1924 2028 2039 2047 2217 2027 2025 1835 993 1305 1230 1906 1926 1122 1101 1188 1221 1287 1818 1565 1148
38 436 144 95 171 453 608 255 623 372 313 354 545 481 131 9 49 39 47 46 7 8 82 188 530 929 1429 868 2091 2138 1795 1702 1573 1533 1310 1805 2033 1717 938 1439 2065 1476 1247 1154 1225 1364 1386 1310 1189
31 201 262 172 129 238 110 155 262 338 458 383 560 298 115 9 20 52 57 93 25 20 31 272 874 799 1186 1311 1967 1778 1712 1916 1664 2037 956 1724 1911 1645 449 1546 1119 1374 1577 901 1265 1440 1743 1054 1207
29 53 149 53 58 70 349 0 1 72 590 400 474 210 123 34 7 37 39 153 38 59 12 147 367 1727 976 1196 1627 590 1678 1567 1235 1377 1752 2790 1715 925 130 1071 1622 612 1554 1454 249 1138 962 139 278
15 45 47 41 99 63 153 76 95 433 251 248 374 150 123 35 10 63 47 74 30 20 45 181 428 1587 1150 1779 1767 1124 627 1216 1419 1400 1884 531 1420 826 778 1118 674 751 1121 523 726 999 1555 452 843
11 5 20 303 154 82 27 89 127 250 77 502 256 156 110 56 89 101 71 61 94 19 159 503 588 1344 1455 1641 1384 639 1339 999 1132 1022 1319 471 1508 1070 1436 1016 1019 235 608 1541 1655 1059 1327 245 863
0 0 6 185 173 233 167 11 33 138 464 482 196 181 188 138 87 87 117 79 101 34 218 415 591 812 1966 1404 2317 2495 1499 1218 1031 1695 2124 1809 1400 1680 2489 1236 2281 2274 138 2191 1006 1510 1177 886 888
0 0 0 66 390 207 409 164 261 374 430 498 262 189 242 122 53 43 121 55 65 45 504 233 56 538 1194 1225 2271 822 1562 1245 1797 1883 1789 1931 2513 2642 923 808 210 1210 2463 113 102 1283 640 910 347
0 0 0 3 480 388 116 203 51 88 539 502 351 267 241 205 115 58 75 75 39 317 717 387 885 796 1080 2244 1689 353 1447 1760 699 1754 1695 2608 2554 2499 603 86 490 2387 517 1527 736 1558 1077 52 893
0 0 0 0 188 263 154 290 283 63 100 567 369 407 434 112 118 62 54 50 40 330 554 530 1064 1533 1708 2153 2625 1794 1332 1341 2462 2216 1787 2824 2611 2297 2201 1719 2672 2785 583 1390 1973 409 989 1067 210
0 0 0 0 157 307 124 12 33 0 51 239 526 534 555 358 199 92 44 15 155 262 360 1100 1539 1943 1432 1624 1531 1131 1306 487 1937 1398 1549 3020 2865 2473 3326 2578 2218 1696 170 625 1915 1459 670 858 467
0 0 0 0 83 358 294 68 24 1 7 100 422 364 470 344 226 148 65 12 77 274 384 1111 1575 1910 1379 1659 1852 2134 958 559 126 1772 1990 2578 2687 2857 2992 2735 2557 1441 860 1729 1934 393 712 1662 954
0 0 0 0 23 164 105 153 0 0 47 348 404 354 416 431 381 252 108 69 54 338 439 841 1581 1770 1485 2044 1638 2619 2871 2047 912 2115 2354 2733 2914 2770 2698 2867 2639 2405 2072 2359 2006 1311 2207 1602 641
0 0 0 0 0 28 172 206 194 17 45 181 318 289 268 389 544 371 172 183 52 425 565 885 1607 2069 1440 2233 1432 2381 1967 2029 1365 2113 1602 2423 3066 2854 3035 2972 2966 2698 897 2396 2441 2123 1913 444 1385
0 0 0 0 0 0 0 44 237 581 242 19 0 218 166 476 457 447 255 231 93 472 555 885 1368 2145 1430 1529 2104 1830 2151 1593 2085 1427 1544 2669 3473 3287 2645 2893 3187 2765 2785 2833 2453 2104 2307 2433 1387
0 0 0 0 0 0 0 0 4 166 15 0 98 53 544 389 527 554 435 318 257 346 458 917 1304 1741 1786 1443 1619 2367 1594 2404 2047 2046 1731 2327 2555 2983 3213 2896 3243 3433 2611 2404 2854 3064 2753 2760 2999
0 0 0 0 0 0 0 0 0 67 314 92 1 39 868 587 595 639 620 495 388 342 573 871 1251 1462 1732 1556 1159 2159 1887 1847 2596 3175 1799 1732 2078 1918 2851 3535 3201 2987 3515 3164 2899 3167 3072 3189 3240
0 0 0 0 0 0 0 0 0 0 50 278 303 308 351 655 533 650 668 684 563 524 577 854 1405 1484 1604 2116 1153 1342 2278 1354 1443 2613 1520 2539 1552 1653 2639 3180 2848 3231 3261 3084 2920 3150 3083 2981 3158
0 0 0 0 0 0 0 0 0 0 0 188 190 229 64 3 12 737 793 676 861 774 674 1023 1457 1683 1894 1611 1897 1042 1767 1812 1033 2262 2547 2026 2391 2276 2731 2970 3421 3150 3328 3116 3164 2597 2764 2640 3181
0 0 1 0 0 0 0 0 0 0 0 32 103 69 19 4 1 86 921 777 927 876 1010 945 1602 1835 2086 1907 2009 1681 828 1663 1646 1114 2621 1882 2604 2317 2983 3218 3005 3182 3518 3661 3541 2905 3118 3051 2578
0 0 0 1 10 0 0 0 0 37 0 2 216 188 6 6 48 138 325 922 840 964 1155 1075 1141 2127 2345 2311 1979 1904 1572 1194 1126 1603 940 2342 2002 3990 3306 3733 3274 3062 3062 3650 3645 3077 3174 3116 3141
2 0 0 7 1 6 2 0 0 14 12 0 0 71 352 371 422 170 8 1 929 928 1060 1378 1246 1545 2167 2327 2144 2053 1996 1443 1339 797 1924 2188 2620 2608 3728 3292 3877 2998 3074 3135 3235 3240 2037 3053 3151

GFSSGP_con_sbcape_063.txt.gz
CAPE
0 0 0 4 3 3 90 148 102 187 111 52 68 128 227 238 127 19 17 166 367 632 1282 1735 2102 1909 1933 2336 2270 2365 2460 2040 2441 2517 2535 1925 2165 2022 1884 1938 1500 1455 1829 1554 1722 1891 1966 1837 2052
0 0 2 41 21 124 52 335 243 153 120 120 101 183 183 71 42 39 124 273 754 968 1237 1413 2263 2209 1946 2284 2643 2810 2185 2115 2483 2478 2639 2328 1880 1837 1785 1823 1891 1926 2178 1802 1649 1768 1869 1995 2259
0 0 43 65 100 129 0 19 83 148 202 168 193 136 140 25 53 160 202 450 571 988 1049 1380 2600 2555 2007 2028 2280 2482 2451 2185 2406 2345 2336 1958 1951 1810 2013 1739 1528 1850 1540 1671 1754 1668 1778 1853 1896
15 0 30 162 102 52 0 10 81 199 302 133 72 20 0 7 121 49 142 238 499 970 1394 2350 2548 2294 2217 2286 2423 2187 2318 2421 2278 2404 2052 1963 1940 1662 1482 1803 1623 1606 1437 1342 1321 1596 1379 1588 1664
13 26 190 112 361 184 238 138 243 377 345 181 26 5 1 4 0 6 0 181 574 961 1492 1969 2684 2586 2270 2172 2310 2230 2310 2116 2079 2455 1933 1917 1823 1986 1664 1438 1658 1421 1329 1317 1189 1175 1298 1321 1222
4 87 71 135 255 222 476 412 318 253 162 185 73 2 12 15 8 8 14 383 657 852 1332 1572 2178 2265 2149 2197 2042 2337 2016 2062 2153 2300 1892 2038 2113 1727 1504 1332 1513 1399 1349 1322 1370 1271 1184 1180 1062
7 160 101 227 235 361 374 98 189 300 103 70 49 7 11 28 15 16 165 208 325 591 966 1405 1516 1778 1968 2271 2130 2082 2139 1986 2095 1980 1990 1938 1623 1585 1408 1504 1434 1359 1243 1229 1220 1236 1218 1258 1026
202 269 187 152 41 131 288 134 341 314 201 269 105 24 15 14 5 40 21 32 488 609 731 854 1277 1349 1376 1670 2037 2093 2229 2185 2028 2074 1865 1750 1534 1409 1348 2171 1992 1257 1210 1264 1301 1265 1349 1159 1080
100 52 178 88 51 0 81 25 76 641 329 299 183 53 13 0 5 7 2 36 287 217 203 694 990 970 1184 1357 1716 2174 2107 1891 2045 1984 1683 1305 627 770 1076 1589 1737 1240 1215 1261 1293 1438 1477 1507 1365
5 151 41 7 68 4 90 32 18 30 70 417 89 30 16 0 5 5 14 0 14 231 209 241 716 951 1059 1385 1423 1362 1436 1564 1476 1296 1054 802 643 380 942 1462 1894 1084 1182 1256 1359 1477 1521 1262 846
0 13 269 185 84 67 242 170 80 172 235 437 58 34 5 4 4 10 18 0 0 92 135 23 622 740 524 1036 1274 1279 1037 1138 721 655 664 699 834 293 668 916 881 728 1188 795 1336 877 363 624 805
0 5 336 208 186 39 205 7 1 89 275 381 77 6 0 2 6 0 1 0 6 0 32 167 274 592 359 957 1086 1035 967 1073 719 307 533 858 296 2 0 492 884 522 666 373 168 745 833 762 463
7 26 191 165 87 80 8 4 72 13 69 339 101 2 0 2 4 0 9 8 0 19 53 7 259 342 699 871 432 316 499 769 624 403 135 343 423 45 102 493 234 277 566 571 178 568 461 53 191
0 5 77 80 183 238 193 107 53 0 18 412 128 11 8 0 0 6 23 22 7 17 15 92 59 134 551 191 575 200 212 424 386 210 24 9 288 247 382 274 365 193 66 264 111 585 852 501 387
0 0 0 202 210 216 81 255 16 203 179 313 166 36 17 0 0 17 17 1 0 9 15 92 0 80 703 356 463 184 483 469 175 357 234 228 589 25 703 732 420 253 505 1068 247 686 232 243 296
0 0 0 0 307 298 196 103 15 28 122 255 191 96 31 2 2 22 14 1 5 10 3 11 216 554 589 488 1080 312 225 649 691 617 608 772 1044 401 457 59 309 352 756 215 57 399 135 523 303
0 0 0 0 164 353 250 281 221 0 274 337 145 136 49 33 54 21 12 5 0 0 0 0 3 209 115 336 572 91 283 510 148 497 743 1010 1250 405 35 0 168 943 49 131 272 150 280 71 77
0 0 0 0 109 337 172 602 563 426 208 260 169 229 94 69 11 20 18 1 18 0 0 9 57 146 181 454 521 202 189 677 1134 898 786 1594 1005 637 522 232 0 270 191 193 1078 83 99 126 61
0 0 0 0 0 272 210 495 589 0 0 0 109 231 98 22 9 17 7 0 35 0 0 49 193 158 668 802 684 720 539 146 971 858 1332 1451 1091 1436 580 1029 1016 305 6 72 1077 349 501 63 66
0 0 0 0 0 236 202 380 237 0 36 106 9 165 147 65 16 9 6 0 0 20 0 86 325 297 589 555 690 450 638 229 329 953 531 1714 1263 1449 1048 598 1178 757 93 363 284 58 51 591 30
0 0 0 0 0 189 119 103 82 115 82 193 5 76 161 93 10 1 0 0 0 0 37 150 588 351 541 391 430 1168 525 136 115 933 920 1426 1557 1317 1594 1019 1055 284 1031 910 629 411 996 580 279
0 0 0 0 0 0 196 166 48 102 141 283 235 60 21 89 18 0 0 0 10 0 21 417 683 428 449 594 297 616 736 397 278 851 1168 1519 1552 1332 1390 1580 1252 927 363 1074 792 1067 819 109 132
0 0 0 0 0 0 0 0 259 86 38 90 162 170 100 90 31 10 0 0 27 0 0 400 839 534 284 724 304 396 744 974 516 769 1159 1459 1716 1633 1396 1410 1676 1244 634 907 1094 904 1116 1085 1210
0 0 0 0 0 0 0 0 0 6 18 45 44 6 111 30 160 33 7 2 4 21 4 218 938 459 313 369 1043 282 729 693 828 619 1295 1491 1824 1626 2011 1304 1528 1166 1244 1082 1201 1576 1164 1019 1546
0 0 0 0 0 0 0 0 0 28 93 0 27 126 233 6 296 165 40 20 3 131 61 132 576 842 353 269 324 1186 495 392 1035 1012 841 1266 1460 1729 1881 1453 1721 1727 1201 1411 1383 1398 1847 1463 1617
0 0 0 0 0 0 0 0 0 60 475 46 65 157 26 7 12 291 118 61 54 180 173 253 296 649 605 260 224 388 1262 237 570 1033 923 1133 1290 1220 1348 1537 1512 1580 1887 1369 1531 1292 1700 1336 1903
0 0 0 0 0 0 0 0 0 0 329 433 162 0 2 491 289 333 253 150 100 139 155 307 363 322 711 554 78 296 940 484 313 517 944 834 796 1016 1363 2014 1534 1567 1757 1647 1527 1372 1849 1683 1747
0 0 0 0 0 0 0 0 0 0 0 285 217 134 413 419 507 290 150 255 175 156 214 207 463 436 677 698 438 67 355 956 327 289 750 986 376 1227 1347 2097 1585 1937 1751 1445 1597 1104 1513 1493 1144
0 0 0 0 0 0 0 0 0 0 0 348 318 351 490 173 237 232 255 56 136 41 151 291 621 510 628 563 872 321 58 573 660 455 145 910 671 1360 1984 1883 2132 2062 1850 2015 1900 1290 1715 1444 1270
0 0 0 0 0 0 0 0 0 0 0 2 402 326 433 154 65 205 118 7 22 5 330 241 518 788 764 807 693 949 324 87 621 442 492 124 803 870 1844 2041 2031 1881 1804 2101 2046 1802 1563 1729 1768

GFSSGP_con_sbcape_066.txt.gz
CAPE
0 0 0 0 0 0 13 21 55 202 81 27 14 18 153 175 274 0 47 300 735 969 1351 1867 2447 2137 2326 2398 2472 2309 2066 1849 2329 2285 1979 2129 1965 1924 1890 1310 1611 1909 1446 1868 1879 1957 2083 2151 2359
0 0 0 12 0 70 61 84 115 172 85 43 170 210 197 111 54 28 149 324 570 1133 1416 1691 2417 2558 2267 2165 2421 2542 2060 2078 2397 2042 2221 2052 1881 1953 2069 1908 2092 1884 1757 1930 2057 1844 2078 2266 2076
0 0 43 51 14 64 3 37 15 128 181 182 176 134 107 34 46 50 303 671 921 1197 1283 1598 2418 2621 2107 2406 2484 2517 2238 2209 2200 2018 2074 1905 1829 1976 1596 1755 1791 1793 1785 1773 1944 1926 1887 2048 1904
2 0 5 45 76 21 0 13 12 83 162 62 27 10 0 83 93 181 611 835 897 1078 1195 2278 2305 1935 2031 2247 2223 2246 2228 2388 2277 2141 2101 1923 1767 1810 1644 1571 1584 1355 1469 1888 1681 1592 1753 1763 2063
14 0 50 101 160 10 16 102 162 192 61 31 0 0 14 16 130 428 500 740 904 1214 1664 2001 2761 2683 2384 2202 2251 2256 2137 2279 2185 2032 1925 1896 1750 1461 1807 1674 1417 1338 1212 1171 1228 1328 1463 1758 1981
1 6 94 58 176 130 136 184 371 177 166 30 0 0 0 17 194 210 566 754 878 1310 1688 1841 2433 2427 2452 2338 2301 2155 2164 2059 2149 2083 1842 1955 1949 1739 1557 1565 1421 1378 1424 1327 1219 1171 1312 1388 1509
0 81 11 152 218 206 296 261 160 54 76 31 9 0 0 4 2 259 469 578 1076 1343 1327 1471 1720 1975 2141 2404 2126 2050 2068 2160 2093 1879 2158 1684 1529 1457 1393 1583 1482 1314 1309 1195 1101 1139 1120 1160 1325
26 120 163 104 108 203 219 152 343 152 124 62 0 0 0 5 83 230 275 506 736 1000 1193 1171 1326 1364 1611 1846 2097 2099 2029 2063 1971 1864 1618 1660 1684 1446 1556 1974 1858 1337 1293 1223 1208 1322 1338 1282 1151
77 22 107 18 51 171 300 150 474 597 177 134 195 5 0 26 44 36 225 349 468 873 935 1094 1088 1084 1179 1415 1805 2251 2129 1982 1906 1725 1474 1565 628 832 855 1457 1746 1353 1358 1321 1284 1389 1349 1574 1335
130 87 146 40 157 147 203 109 483 365 176 212 110 30 6 39 23 61 203 205 207 303 711 784 796 929 1123 1574 1492 1297 1455 1295 1185 1076 853 327 312 524 861 1102 1462 1295 1289 1372 1420 1499 1358 1048 672
107 54 153 149 216 164 239 253 132 129 321 545 94 1 0 1 4 58 104 75 2 52 540 578 726 845 934 1278 1037 962 1012 1071 778 517 373 440 271 625 602 822 847 672 1082 797 908 415 459 225 639
0 0 9 237 314 366 27 97 46 367 453 326 284 10 0 0 0 3 1 43 26 42 178 425 696 547 582 938 876 853 796 806 364 100 346 220 27 17 262 442 561 389 515 329 450 467 618 794 528
0 0 5 138 327 384 94 106 107 36 114 312 123 23 0 0 1 0 0 0 77 76 5 325 438 294 392 817 607 698 578 652 221 128 253 121 0 0 205 299 202 226 412 154 4 47 319 336 115
0 0 0 212 347 280 150 114 51 0 97 297 334 16 15 0 0 0 0 0 11 32 0 154 241 148 452 538 316 141 230 429 62 0 50 35 42 0 231 79 129 90 78 251 56 82 492 341 224
0 0 0 205 259 355 318 219 151 140 529 534 211 32 12 0 0 0 0 0 0 0 0 87 174 333 424 149 198 0 34 162 49 0 0 33 147 100 380 4 85 40 5 191 25 123 462 226 63
0 0 0 151 235 285 213 208 155 101 257 419 229 52 11 1 0 3 19 0 27 0 8 43 296 330 108 114 46 191 146 175 38 71 0 400 52 19 257 88 178 233 475 121 31 205 111 103 108
0 0 0 0 283 225 244 217 125 351 349 278 241 25 16 2 9 19 7 0 0 0 0 0 79 269 97 654 41 127 163 167 161 137 184 740 297 339 0 1 0 376 119 9 9 126 97 82 87
0 0 0 0 86 260 284 481 71 225 536 453 301 43 36 5 6 7 6 4 0 4 0 0 194 133 73 274 72 0 114 106 93 126 422 781 553 28 40 0 14 10 19 99 359 19 27 29 35
0 0 0 0 0 315 274 513 166 346 82 203 202 178 46 1 9 5 0 0 0 0 0 0 90 10 170 96 312 82 192 414 544 338 543 648 666 580 427 391 366 79 24 120 91 38 160 36 22
0 0 0 0 14 51 388 533 127 431 54 139 235 145 122 78 55 2 0 6 12 0 0 0 78 14 335 123 193 208 154 138 517 475 919 788 821 780 421 559 543 99 2 375 51 22 70 158 14
0 0 0 0 44 370 375 470 497 336 19 207 321 344 244 98 53 8 6 19 0 0 15 31 98 36 395 161 312 460 103 13 235 429 322 1187 839 1072 596 675 598 113 42 204 90 128 242 68 39
0 0 0 0 0 15 169 92 76 10 9 386 483 364 140 59 53 4 0 23 0 0 0 54 156 77 324 167 204 653 326 46 4 478 558 822 1153 968 1141 803 441 219 168 466 360 833 111 17 35
0 0 0 0 0 0 0 0 0 14 54 390 550 345 254 159 101 1 0 27 0 0 0 236 170 131 220 176 81 255 333 151 1 423 653 806 1123 823 968 1122 776 325 126 366 488 475 739 469 580
0 0 0 0 0 0 0 0 0 54 33 386 466 111 232 183 142 27 0 0 0 0 0 391 201 132 212 226 60 66 316 443 338 276 676 843 1244 958 930 919 966 551 286 529 709 701 605 588 848
0 0 0 0 0 0 0 0 0 59 150 178 549 400 351 177 193 52 11 0 0 0 36 390 282 144 109 219 479 61 143 242 440 358 659 881 1273 1109 1230 833 1007 624 629 656 715 995 1159 547 929
0 0 0 0 0 0 0 0 0 0 180 221 479 262 71 128 87 114 3 0 16 0 0 290 364 197 79 140 137 515 142 76 263 479 614 849 1164 1150 1187 960 977 1113 730 944 789 745 955 908 1114
0 0 0 0 0 0 0 0 0 0 43 113 140 138 159 224 70 218 43 15 36 9 0 9 390 216 85 48 0 75 510 480 114 496 448 718 758 791 1004 1070 968 1047 1226 727 926 920 962 1259 940
0 0 0 0 0 0 0 0 0 0 0 199 68 221 270 174 346 352 124 67 70 92 14 0 74 293 242 80 0 0 109 517 79 205 397 754 617 765 819 1505 1094 959 1112 1038 816 743 882 1193 846
0 0 0 0 0 0 0 0 0 0 0 6 175 160 87 310 332 317 235 157 77 182 180 78 34 107 439 336 104 0 5 133 517 49 91 314 413 561 783 1411 1220 1084 1156 888 1107 683 614 1075 977
0 0 0 0 0 0 0 0 0 0 0 0 168 84 50 324 277 218 278 178 114 50 203 196 198 165 162 443 325 94 0 34 312 427 87 26 382 522 1071 1314 1484 1294 1281 1220 1175 1042 997 1134 1071

GFSSGP_con_sbcape_069.txt.gz
CAPE
11 0 0 0 0 1 1 131 108 204 129 0 0 0 22 166 250 0 8 336 149 493 1375 1879 2437 2081 2282 2499 2296 2103 1662 2253 2152 2025 2018 1795 1985 1622 1720 1584 1490 1878 2044 1870 1990 2187 2366 2505 2333
0 0 0 32 0 91 67 2 51 212 245 0 36 85 203 124 62 101 276 523 459 979 1358 1791 2581 2647 2430 2427 2354 2028 1917 2503 2003 2213 2134 2007 2163 1817 1635 1905 1805 1591 1829 1943 1972 1981 2211 2158 2011
4 0 34 59 15 82 49 41 137 158 113 71 125 100 118 100 57 75 406 508 689 1121 1374 1586 2323 2523 2328 2299 2283 2143 2060 2396 1953 2315 1884 1923 1938 1980 1870 1879 1704 1672 1576 1732 1863 1986 2115 1986 1922
0 2 0 36 72 19 10 34 17 53 153 61 48 37 70 53 33 266 406 684 1033 1152 1242 2096 2090 2021 2272 2355 2253 2211 2103 2134 1960 2026 1927 1869 1852 1440 1770 1467 1529 1703 1554 1682 1677 1742 1859 1959 1874
2 0 32 136 130 1 1 0 0 118 121 43 30 9 13 75 376 486 589 805 907 1013 1453 1669 2405 2175 2322 2278 2272 2173 2111 2097 1994 1753 1846 1616 1861 1746 1682 1504 1323 1202 1289 1337 1361 1667 1852 1785 1708
2 12 67 136 171 26 64 133 129 296 100 56 16 16 9 322 425 593 651 748 989 1358 1605 1891 2236 1997 1961 1965 2115 2114 1983 1981 1985 1791 1869 1801 1459 1700 1529 1498 1377 1315 1112 1104 1406 1511 1722 1820 1847
0 78 11 149 35 42 281 278 95 34 44 36 12 5 182 269 386 571 646 808 1216 1467 1475 1649 1822 1941 1969 2068 2070 2076 2003 2017 1885 1759 1807 1758 1714 1518 1622 1420 1354 1163 1188 1170 1212 1296 1492 1628 1723
66 166 110 37 95 247 323 280 199 92 77 16 2 25 149 140 411 485 516 870 1168 1215 1249 1295 1509 1604 1649 1784 2028 2046 2053 2112 1815 1823 1517 1581 1326 1504 1624 1821 1737 1285 1147 1253 1307 1366 1481 1294 1622
133 137 19 4 71 232 176 190 394 355 37 0 200 10 20 178 282 301 503 560 974 1062 1016 1052 1125 1308 1408 1486 1613 1736 1979 1788 1637 1496 1722 1342 539 947 1047 1504 1497 1397 1308 1127 1209 1178 1322 1438 1414
237 157 59 37 150 284 267 259 394 126 150 174 5 12 87 157 137 191 260 312 523 776 969 889 895 1054 1222 1678 1625 1412 1413 1283 1206 945 476 363 478 452 832 1305 1419 1366 1385 1413 1476 1235 1545 1084 663
123 78 56 89 228 334 280 368 202 170 168 132 7 46 70 74 110 109 143 288 492 683 1038 720 752 904 1117 1297 1103 974 985 907 839 573 301 355 284 677 696 738 656 660 1058 809 685 850 520 390 701
19 14 149 56 410 300 258 204 241 240 468 161 125 35 31 49 94 101 45 62 162 415 603 648 735 784 732 1005 925 793 880 774 385 246 166 187 171 248 392 421 363 422 347 341 300 209 529 673 381
6 5 0 0 290 287 49 55 227 383 607 410 97 23 26 10 114 120 40 15 42 227 392 538 617 447 489 905 671 665 602 712 352 60 282 75 21 36 118 334 444 215 367 224 36 56 252 161 217
0 0 0 0 309 200 143 110 68 114 196 429 453 1 1 0 7 49 34 68 60 86 166 370 399 201 334 609 457 528 418 535 182 99 177 44 0 11 209 187 125 128 62 350 78 56 233 434 282
0 0 0 242 335 366 165 104 146 63 64 312 196 8 0 0 0 2 5 116 93 35 3 293 209 133 364 546 377 249 198 303 115 74 21 52 0 6 133 19 23 26 19 244 88 25 351 505 117
0 0 0 292 345 299 257 269 104 314 73 75 131 16 43 2 0 0 5 91 90 40 26 123 345 243 287 222 196 87 57 143 64 20 0 167 127 115 322 0 39 89 141 156 143 25 214 111 46
0 0 0 144 168 335 230 222 189 333 451 286 107 19 22 1 1 0 0 0 20 35 61 107 255 238 171 120 76 125 47 116 42 33 25 240 77 119 257 39 67 110 215 214 23 109 28 56 75
0 0 0 0 179 255 230 198 248 348 412 435 175 36 7 0 0 0 0 1 12 19 60 104 178 204 94 268 0 25 159 48 71 85 94 538 261 261 2 0 52 54 29 40 45 20 18 10 29
0 0 0 0 0 221 179 338 102 304 379 422 260 54 39 2 0 0 0 5 7 50 31 51 168 46 123 73 10 67 222 107 105 88 281 485 406 56 0 0 39 0 5 101 54 17 41 4 0
0 0 0 0 3 0 7 316 102 342 444 428 282 67 28 1 0 0 0 1 5 43 35 75 129 0 113 77 115 89 136 224 279 173 331 384 553 523 270 289 468 0 12 35 28 15 75 16 0
0 0 0 0 1 289 340 217 80 190 136 57 118 213 60 0 0 0 0 0 0 0 0 82 54 0 85 84 125 87 54 79 404 341 542 832 592 650 564 417 480 145 2 26 0 31 40 16 8
0 0 0 0 0 0 21 19 345 194 286 37 93 325 129 31 0 0 0 0 0 0 0 29 0 0 96 63 180 207 177 135 127 424 194 866 864 953 568 553 289 113 38 160 254 348 45 4 19
0 0 0 0 0 0 0 0 0 71 93 117 149 282 313 84 82 0 0 0 0 0 0 0 0 0 85 52 103 222 134 52 0 236 309 498 913 804 1022 667 375 205 48 105 234 362 285 162 101
0 0 0 0 0 0 0 0 0 39 70 113 110 379 303 180 63 0 0 0 0 0 0 0 0 0 48 69 31 133 249 167 74 56 236 389 653 833 626 848 641 338 69 203 247 235 457 510 570
0 0 0 0 0 0 0 0 0 5 119 77 113 396 401 225 117 17 0 0 0 0 0 0 0 0 18 89 10 13 86 127 157 52 184 446 706 896 856 686 786 455 262 209 383 618 491 298 685
0 0 0 0 0 0 0 0 0 0 0 43 57 188 464 252 151 127 0 0 0 0 0 58 15 0 0 66 80 0 0 48 96 182 65 414 638 990 885 750 627 697 386 481 416 566 808 763 597
0 0 0 0 0 0 0 0 0 0 0 12 53 240 399 196 99 171 16 0 0 0 0 68 59 20 0 33 45 100 6 0 21 214 102 360 512 889 793 944 721 800 730 598 612 635 599 776 615
0 0 0 0 0 0 0 0 0 0 0 42 7 166 332 272 46 68 60 0 10 7 8 71 126 70 24 0 28 62 168 164 0 0 395 270 418 493 701 1030 785 816 879 777 540 688 664 793 778
0 0 0 0 0 0 0 0 0 0 0 0 0 0 37 15 34 49 73 3 20 31 6 2 140 172 113 47 23 28 35 93 181 0 17 311 409 393 537 977 1051 914 860 904 778 538 537 789 876
0 0 0 0 0 0 0 0 0 0 0 0 50 24 0 34 92 148 115 11 0 19 28 0 49 191 173 126 44 0 0 0 161 132 0 0 94 159 487 570 1145 1018 908 826 819 866 869 557 731

GFSSGP_con_sbcape_072.txt.gz
CAPE
5 0 0 0 0 0 0 68 89 114 34 0 0 0 0 27 85 0 0 0 0 458 1223 1825 2393 2327 2477 2109 2011 1575 2316 2148 2135 2078 1851 1695 1680 2302 1912 1433 2111 2099 1993 2069 2170 2263 2217 2233 2162
0 0 0 19 0 40 79 19 142 210 159 0 0 57 117 113 82 7 194 2 24 831 1363 1776 2527 2624 2422 2250 2071 1707 2214 2107 2151 2119 2090 2224 1744 1548 2050 1838 1551 1802 1926 1915 1820 2044 2120 2272 2273
2 0 25 78 5 44 26 44 130 121 17 0 90 63 114 27 14 16 112 0 496 1133 1313 1591 2248 2596 2277 2194 2056 1894 2260 1918 2172 2104 2011 2081 2054 1889 1816 1758 1679 1502 1709 1911 1996 1958 2105 1976 1895
0 0 0 17 52 93 22 45 96 99 180 165 132 78 46 54 3 187 139 258 764 1137 1242 2158 2268 2227 2230 2174 2071 2050 2244 1864 2073 1873 1861 1735 1605 1859 1574 1778 1572 1643 1634 1730 1817 1989 1872 1900 1989
10 0 10 84 92 16 4 12 21 207 134 119 68 31 8 235 202 229 291 452 808 964 1264 1675 2404 2230 2270 2254 2159 1936 2019 1989 2008 1899 1846 1683 1567 1647 1530 1373 1542 1545 1420 1546 1508 1842 1788 1888 1849
15 4 30 38 87 61 85 6 11 163 110 42 0 8 147 223 210 279 393 517 756 1091 1271 1493 1946 2191 2205 2175 2150 1858 1998 1843 1809 1666 1755 1507 1724 1511 1327 1298 1067 1042 1250 1469 1724 1621 1798 1956 2059
4 27 0 59 37 10 165 247 212 76 56 20 15 38 261 231 286 330 445 657 1002 1283 1419 1470 1388 1584 1906 1955 1877 1821 1921 1785 1722 1857 1760 1606 1475 1478 1475 1451 1254 1115 1117 1424 1524 1753 1916 2023 2068
27 108 95 46 106 27 117 175 92 117 26 0 0 23 217 208 345 378 631 832 995 1133 1239 1312 1331 1188 1296 1578 1815 1910 1843 1847 1688 1694 1531 1470 1306 1250 1459 1500 1679 1187 1193 1417 1548 1732 1621 1979 2135
115 186 38 3 23 204 242 73 265 223 2 21 133 30 112 393 330 346 619 672 747 972 895 924 1117 1133 1235 1306 1584 1806 2041 1553 1657 1419 1440 990 692 1119 1192 1485 1408 1241 1261 1446 1592 1608 1620 1768 1773
165 151 4 25 19 216 360 155 148 65 14 1 29 107 294 296 175 146 107 78 201 599 780 760 886 969 1148 1663 1056 1044 1255 1045 1043 774 384 406 496 593 1069 1464 1475 1335 1179 1178 1191 1337 1763 1165 993
257 89 47 57 314 307 291 246 344 156 252 17 60 158 115 91 83 92 31 22 158 379 896 596 674 807 1002 1166 946 882 834 792 695 354 229 312 306 628 703 698 667 907 1290 1382 1005 791 738 754 1012
42 24 8 111 335 291 295 217 278 205 329 8 42 131 138 97 84 80 85 112 173 198 657 493 535 666 725 893 825 685 713 553 357 244 170 260 286 384 435 508 547 601 521 644 590 539 796 937 599
17 1 0 0 288 336 298 241 268 388 93 40 75 73 88 100 32 15 38 74 145 223 422 414 437 467 561 778 522 510 603 526 211 111 189 147 141 179 182 325 482 337 539 385 162 419 508 469 556
0 0 0 0 10 159 70 201 202 597 157 88 83 33 42 79 23 0 0 0 15 157 198 262 348 217 348 549 405 381 338 495 296 111 226 105 0 46 217 375 369 361 201 448 261 322 406 736 454
0 0 0 280 205 113 149 157 86 358 567 460 176 48 5 47 52 6 16 0 11 51 103 203 207 68 224 376 282 187 226 371 253 123 106 189 5 57 226 200 171 156 145 407 388 238 541 579 329
0 0 0 249 287 226 153 132 134 257 168 357 120 16 3 38 38 10 6 17 6 0 2 146 372 88 152 243 186 142 121 170 141 44 0 99 171 81 219 163 126 154 248 367 493 205 557 361 280
0 0 0 78 273 302 134 162 182 394 108 212 182 12 0 26 10 8 9 27 21 8 0 105 153 93 133 145 108 76 24 29 48 23 0 106 295 220 162 59 170 324 518 380 144 272 260 297 326
0 0 0 0 207 312 266 149 187 542 474 132 69 11 0 0 16 0 0 38 35 19 24 49 107 94 47 75 10 23 23 0 0 36 36 215 225 153 119 77 213 435 222 112 74 156 59 189 252
0 0 0 0 0 213 174 125 175 272 581 336 17 14 0 0 5 0 0 0 28 22 22 17 64 61 44 68 0 0 116 0 57 63 156 476 340 305 0 23 157 83 108 136 175 47 180 132 21
0 0 0 0 0 0 0 165 79 319 402 452 277 30 13 0 0 0 0 0 6 19 19 0 8 0 77 129 0 23 33 97 116 57 200 496 513 76 35 20 443 29 91 138 85 57 217 92 7
0 0 0 0 0 245 202 194 164 97 307 31 114 124 4 0 0 0 0 0 0 1 6 0 0 0 56 37 0 7 30 91 227 179 215 611 530 584 216 365 461 5 37 56 24 47 119 84 28
0 0 0 0 0 0 48 51 78 134 212 52 25 104 108 0 0 0 0 0 0 0 0 6 3 0 1 7 72 68 107 172 194 241 209 645 601 783 765 240 298 180 32 150 101 308 117 22 75
0 0 0 0 0 0 0 0 0 145 108 118 98 41 130 65 0 0 0 0 0 0 0 0 0 0 0 15 93 58 56 70 49 153 201 336 711 765 699 507 338 289 150 274 545 582 320 262 74
0 0 0 0 0 0 0 0 0 1 0 23 66 102 72 163 32 0 0 0 0 0 0 0 0 0 0 0 9 61 74 36 34 89 210 224 449 762 722 830 717 375 286 349 348 446 593 783 743
0 0 0 0 0 0 0 0 0 0 0 0 5 62 105 141 161 23 0 0 0 0 0 0 0 0 0 0 0 47 47 50 38 16 86 217 437 660 799 724 843 326 353 372 479 554 622 529 849
0 0 0 0 0 0 0 0 0 0 0 0 0 56 200 188 169 106 0 0 0 0 0 0 0 0 0 0 0 0 37 67 58 33 34 146 423 651 814 793 691 795 318 406 551 582 869 886 637
0 0 0 0 0 0 0 0 0 0 0 0 0 19 92 334 176 66 0 0 0 0 0 0 0 0 0 0 0 0 0 27 76 83 60 113 371 705 950 915 749 772 614 593 616 670 827 929 859
0 0 0 0 0 0 0 0 0 0 0 0 0 0 2 298 132 75 16 0 0 0 0 0 25 4 0 0 13 14 0 0 0 51 162 187 336 457 912 980 943 865 796 869 797 823 761 828 968
0 0 0 0 0 0 0 0 0 0 0 0 0 0 32 11 207 65 64 0 0 0 0 0 46 65 4 1 41 56 34 0 0 0 110 317 325 403 617 988 1126 930 752 931 561 698 829 930 1046
0 0 0 0 0 0 0 0 0 0 2 0 3 0 4 55 68 109 59 0 0 0 0 0 0 0 36 14 5 1 1 56 104 0 0 72 363 327 538 668 1095 1156 1058 929 1162 1076 1065 842 883

GFSSGP_con_sbcape_075.txt.gz
CAPE
3 0 0 0 0 15 38 145 110 171 32 0 0 0 0 0 146 174 13 64 156 805 1195 1665 2697 2219 2120 1760 1646 2374 1984 2371 1957 1610 1446 1719 2352 1602 1582 2078 1953 2052 2202 2055 2282 2106 2311 2462 2306
1 0 0 116 4 93 76 66 109 220 24 0 0 0 149 161 143 8 79 34 325 773 1073 1549 2567 2849 2077 1945 1690 2293 1968 2219 2073 2139 2018 1602 1513 1778 1572 1770 1945 1900 2020 1995 2219 2122 2413 2231 2131
0 0 133 295 81 46 1 74 136 135 0 5 135 106 252 99 36 0 39 74 451 950 1196 1698 2201 2523 2247 2128 1843 2314 1973 1990 1978 1665 1454 1668 1787 1693 1733 1714 1738 1917 1961 2194 2192 2185 2189 1938 1980
0 0 12 84 83 57 32 45 136 0 69 199 170 225 40 39 0 85 0 196 557 997 1136 1862 2136 2186 2153 2091 1950 2188 1891 1998 1790 1852 1742 1754 1649 1666 1788 1677 1598 1659 1907 2068 2097 2011 1925 1875 2056
13 3 102 117 119 60 13 18 101 95 229 183 133 61 19 58 263 0 26 250 548 932 1321 1758 2559 2265 2074 1979 1955 2041 1737 1938 1765 1686 1702 1609 1702 1487 1570 1631 1626 1613 1637 1698 1864 1887 1911 2147 2480
33 29 62 68 68 48 103 13 54 265 194 71 38 105 246 257 18 0 35 282 563 913 1188 1541 2129 2194 2196 2045 1851 1875 1849 1698 1673 1616 1593 1608 1603 1323 1322 1087 1277 1357 1599 1785 1774 1773 1944 2294 2432
24 150 21 52 9 31 139 132 63 143 134 78 25 166 102 111 1 0 74 457 696 972 1145 1368 1612 2140 2091 1934 1830 1782 1739 1635 1662 1702 1681 1598 1436 1373 1373 1276 1273 1275 1733 1785 1876 2075 2144 2313 2362
99 206 158 72 23 0 187 196 206 101 64 28 77 98 40 69 59 47 222 544 813 927 967 861 1140 1648 1495 1566 1718 1737 1709 1634 1738 1431 1577 1401 1388 1152 1282 1460 1714 1359 1630 1770 1885 1840 2212 2238 2232
202 265 92 31 130 197 148 77 216 198 28 33 95 42 28 104 103 76 370 689 878 826 1122 1460 1334 1512 1806 1686 1716 1687 1725 1584 1507 1433 1793 1590 1502 1122 1026 1469 1429 1387 1684 1783 1732 1752 2034 1970 2123
371 398 52 117 234 380 130 163 141 33 83 164 123 91 144 156 63 69 151 284 492 957 1069 1221 1347 1567 1531 1328 1763 1852 1193 1664 1858 1616 1534 1487 1498 1289 1151 1493 1302 1238 1444 1500 1491 1837 1804 1236 1638
368 401 147 194 343 393 155 202 188 22 99 115 133 78 99 71 13 84 184 271 280 699 902 1007 1360 1435 1256 1560 1169 1182 1332 1386 1467 1373 1284 1363 1296 1466 1303 1437 1300 1498 1573 1430 1441 1340 1211 1453 1507
221 96 101 153 468 356 321 255 220 186 114 68 112 87 87 86 62 95 147 156 157 336 829 1084 1208 1323 1469 1424 854 1231 1231 1197 975 1093 1367 1298 1091 1417 1715 1296 1486 1367 1228 1396 1440 1224 1449 1584 1442
22 65 0 2 307 309 432 254 262 202 50 128 127 61 44 81 76 91 42 16 173 187 689 1016 1244 1457 1686 1557 1110 1118 1072 922 970 1062 1123 1134 931 1171 1185 1222 1140 1248 1386 1191 1105 1333 1413 1633 1461
0 0 0 0 3 449 411 404 124 194 27 91 210 222 234 169 99 50 6 69 147 267 592 678 819 1241 1507 1221 1355 1136 1055 952 855 971 1235 1169 796 1052 961 1137 1237 1321 1273 1209 1161 1437 1470 1725 1361
0 0 27 233 86 259 316 372 288 233 53 78 120 114 96 67 68 71 34 60 137 324 545 580 761 973 1306 1313 1059 878 868 875 1127 1047 1150 1208 867 891 1295 1325 1368 1244 1335 1585 1586 1339 1573 1246 1394
0 0 0 429 352 294 248 137 241 275 101 91 37 67 134 140 99 126 38 5 82 197 486 574 437 727 986 931 880 739 912 1121 1212 1102 1077 1240 1115 908 1266 1148 1101 1109 1296 1428 1480 1330 1454 1198 1202
0 0 0 309 518 494 422 278 271 470 251 169 70 78 36 79 118 153 80 16 21 136 330 499 598 543 770 981 675 840 1002 1098 1191 1142 956 1157 1096 1107 1192 1240 1005 1418 1464 1404 1043 1456 1470 1218 1203
0 0 0 30 624 553 540 342 409 354 242 542 286 154 104 76 123 150 157 31 21 27 298 465 659 612 812 810 820 748 954 1082 1211 1101 1064 891 1165 1189 1250 995 1295 1505 1346 1313 862 1495 1230 1158 1160
0 0 0 0 115 150 125 216 633 774 262 473 428 320 111 102 141 194 149 40 24 25 243 555 663 762 721 624 638 960 919 1056 1061 1166 1194 1028 1476 1119 1215 1155 1353 1438 1424 1323 1265 1210 1457 1118 1162
0 0 0 0 0 0 1 118 472 645 535 469 456 185 113 88 79 88 129 89 32 36 158 537 690 838 798 629 906 896 1038 1044 987 1232 1163 1278 1625 1510 1093 924 1325 1228 1198 1528 1554 1238 994 962 856
0 0 0 0 0 451 299 443 418 492 624 586 336 158 95 84 66 16 75 93 110 86 217 448 764 852 845 698 846 816 1082 1159 1092 1075 1164 1219 1563 1591 1565 1185 1570 1331 1266 1191 1353 1121 1496 958 852
0 0 0 0 0 0 307 29 330 484 625 553 707 364 231 131 81 14 15 26 116 174 287 382 678 868 876 932 822 1002 1006 996 1046 1377 1312 1300 1663 1766 1726 1695 1727 1518 1006 1201 895 1176 1218 1032 931
0 0 0 0 0 0 45 10 13 443 507 415 355 649 478 202 111 68 7 13 16 160 275 350 676 912 979 970 1249 1019 1198 1035 1225 1323 1572 1522 1912 1835 1872 1852 1861 1850 1528 1644 1847 1810 1566 1069 698
0 0 0 0 0 0 0 0 0 0 0 0 204 276 569 438 140 91 95 72 77 86 199 289 559 1001 890 966 1086 1155 1200 1107 1031 1325 1397 1351 1537 2027 2092 2014 2062 1712 1613 1518 1664 2083 1955 2037 1855
0 0 0 0 0 0 0 0 0 0 0 0 29 11 364 575 421 122 72 57 120 127 189 234 470 781 690 803 970 1109 1144 1376 1535 1643 1389 1457 1497 1582 2046 2237 2452 2421 1933 1800 1785 1949 2032 2004 1716
0 0 0 0 0 0 0 0 0 0 0 17 61 133 57 445 589 387 122 105 139 159 263 269 410 877 654 729 1103 1302 1188 987 998 1394 1148 1383 1364 1534 1955 2330 2175 2202 1989 1807 1850 1804 1764 1966 1855
0 0 0 0 0 0 0 0 0 0 0 0 9 24 108 342 258 557 427 175 193 208 300 359 561 727 608 639 986 1136 1198 1139 1085 1197 1385 1202 1531 1285 1884 2004 2276 2182 2197 2126 2041 1652 2325 2459 2237
0 0 0 0 0 0 0 0 0 1 2 1 5 8 13 124 498 546 714 264 266 253 286 310 389 662 927 691 786 755 717 863 1119 1268 1434 1405 1517 1746 1635 2067 2193 2310 2321 2252 2245 1879 1942 2190 2085
0 0 0 0 0 0 0 0 6 7 6 8 8 8 8 301 433 723 654 356 309 270 252 261 316 393 437 454 887 835 771 658 859 973 1252 1623 1808 1980 2034 2121 2128 2261 2334 2412 2477 2355 2104 2237 2338
0 0 0 0 0 0 0 0 1 7 1 3 5 4 7 3 164 526 648 330 338 278 248 229 340 323 343 564 629 658 810 756 663 808 922 1176 1651 1819 2073 2195 2270 2295 2328 2403 2446 2350 1953 2195 2026

GFSSGP_con_sbcape_078.txt.gz
CAPE
0 0 0 29 139 37 103 115 166 373 190 69 14 0 20 38 362 636 154 161 760 1001 1255 2014 2502 2159 1583 1868 2447 1978 2406 1824 1432 1423 1906 2172 1490 1939 2223 2159 2204 2259 2251 2337 2048 2298 2360 2366 2188
0 0 32 470 195 105 100 153 184 414 99 16 0 0 51 567 171 103 114 300 727 883 1130 1589 2587 2452 1664 1867 2428 1864 2315 1998 2242 2146 1665 1771 1841 1455 1992 2015 1952 2106 2194 2233 2189 2138 2015 2221 2332
0 1 501 490 358 89 61 274 444 180 1 33 4 397 369 516 60 14 110 355 684 914 993 2079 2656 2321 1844 1877 2444 1894 2251 2049 1740 1762 1844 1561 1609 1599 1765 1740 1873 2064 1926 2099 2259 2180 1878 2038 2163
14 241 414 675 137 58 36 163 84 2 93 215 169 491 273 225 26 131 164 373 691 883 1044 2004 2439 2270 2107 1930 2240 1864 2122 1884 1812 1814 1828 1661 1760 1762 1776 1747 1857 2031 2135 2210 2082 1838 1734 2037 2359
132 267 414 427 92 40 94 189 7 177 287 184 173 321 77 73 169 101 240 350 668 863 1215 1614 2677 2240 2154 2012 2010 1767 1966 1856 1645 1662 1661 1546 1642 1649 1665 1628 1820 1858 1998 1917 1933 1917 2054 2570 2394
381 372 397 158 35 90 88 155 372 316 536 256 361 456 234 224 72 124 255 497 733 966 1168 1501 2271 2155 2088 1916 1897 1908 1787 1538 1621 1645 1530 1538 1475 1345 1221 1540 1572 1780 1888 1874 1905 2023 2297 2507 2368
324 468 418 167 35 129 107 236 350 438 554 315 329 342 206 58 46 153 377 543 757 938 1078 1317 1614 2095 2031 1889 1778 1828 1757 1685 1444 1638 1561 1385 1492 1506 1379 1004 1642 1867 1900 1873 2108 2308 2370 2477 2328
437 702 373 300 103 78 194 67 263 271 253 141 354 283 139 90 69 157 384 580 857 939 936 1118 1280 1595 1450 1541 1652 1756 1617 1493 1368 1558 1411 1471 1230 1250 1143 1906 1947 1779 1858 1910 2102 2057 2265 2297 2093
447 557 195 349 49 105 79 35 181 76 94 135 361 168 35 66 83 185 453 659 849 866 705 546 669 1086 1558 1381 1698 1596 1612 1458 1562 1416 1417 1409 767 996 995 1721 1631 1827 1890 1826 2036 1983 1972 2204 2323
504 459 196 287 509 177 67 58 52 43 93 316 284 50 27 31 98 203 422 656 666 611 571 783 1074 1336 1362 929 1335 1403 1221 1361 1166 1128 1211 727 887 1195 902 1410 1512 1704 1703 1705 1913 1875 1430 1771 1495
646 340 105 235 704 340 232 46 91 48 389 548 417 79 42 21 62 274 383 449 357 444 434 714 1259 1266 1029 1486 966 717 840 1207 1291 1331 981 812 750 991 633 1159 1418 1462 1713 1478 1796 1630 1459 1751 1586
523 346 63 145 350 498 555 81 524 242 397 412 348 20 61 28 62 184 226 301 300 352 439 632 1181 1141 905 586 752 679 645 565 645 1035 1084 1098 613 782 874 1001 1332 1259 1270 1566 1399 1510 1943 1962 1875
327 209 2 0 270 273 554 397 250 91 210 265 141 43 22 35 67 113 122 130 93 248 482 712 1013 1284 923 750 866 720 569 412 573 700 962 676 675 1075 1084 1369 1274 1409 1435 1389 1528 1732 1998 1975 1714
132 93 0 0 42 261 494 532 173 234 336 136 66 94 72 58 63 121 64 15 75 167 464 745 930 1183 1011 1109 1220 1015 755 891 710 731 899 1016 657 1005 1193 1362 1349 1476 1374 1432 1573 1897 1833 1519 1689
21 0 5 25 0 143 586 632 456 302 351 165 124 96 106 108 75 42 39 0 63 214 458 663 736 840 1075 1248 1392 1013 927 950 1085 1211 1644 1443 1018 1493 1367 1245 1316 1446 1725 1834 1776 1556 1558 1261 1240
27 0 1 196 120 239 584 501 792 256 257 123 162 184 154 49 10 3 3 4 8 141 552 656 397 479 871 1172 1353 1012 951 1142 1201 1242 1384 1736 1805 1679 1588 1248 1137 1399 1442 1496 1391 1413 1105 1065 1019
30 177 4 339 550 712 661 503 544 359 122 119 32 6 0 0 26 105 11 13 0 143 530 717 655 399 559 1109 1100 1140 1399 1149 1223 1239 1211 1695 1718 1774 1662 1394 1311 1648 1422 1180 1156 1258 1108 1015 873
169 109 0 287 795 802 495 526 1015 184 206 102 52 70 1 54 184 340 243 26 0 75 328 589 721 579 617 901 1044 931 1006 1045 1193 1193 1263 1496 1648 1900 1649 1260 1548 1798 1289 1030 1218 1440 1280 1026 950
87 63 44 61 659 550 183 139 895 906 611 212 128 146 156 101 278 344 416 284 0 0 184 528 762 815 956 978 766 720 876 985 1047 1220 1590 1609 1661 1733 1893 1332 1784 1750 1369 1680 1544 1575 1523 640 956
0 0 2 0 0 0 0 9 356 760 797 794 658 508 511 217 207 339 413 414 10 0 162 563 842 991 1094 801 722 793 951 966 1042 1275 1635 1458 1697 2080 1712 1510 1539 1718 1291 1786 1778 1660 748 404 708
0 44 4 2 0 43 90 453 504 707 650 857 830 883 738 549 349 519 567 476 126 0 142 555 906 994 873 831 1252 1713 1568 1684 1433 1407 1529 1631 1744 1819 1903 1648 1500 1964 1938 1088 1999 1612 1656 481 1082
0 0 0 0 0 79 92 219 651 668 1055 652 717 820 846 674 558 556 591 559 356 120 97 505 1001 1010 1042 1389 1317 1488 1139 771 866 1144 1127 1570 1835 1724 1729 1858 1995 2150 1325 1508 1681 1344 1677 1877 567
4 0 0 0 0 0 0 82 185 610 539 743 754 496 345 697 550 533 554 505 416 313 301 474 996 1427 1004 1444 1407 1447 1508 959 1048 978 1900 1893 2295 1477 1561 1804 2019 2145 1804 2176 1681 1757 1996 1089 831
0 0 0 0 0 0 28 64 0 102 14 17 49 769 952 514 689 555 505 417 381 486 476 577 1044 1431 1669 1655 1768 1713 1434 1361 927 1082 1503 1485 1566 1757 1886 1523 1805 2006 1688 2190 1925 1630 2056 2029 1879
0 0 1 1 0 0 4 0 21 0 156 191 127 220 345 1150 776 703 649 515 470 492 581 721 1054 1535 1615 1649 1839 1892 1943 1745 1756 1879 619 1276 1301 1458 2401 2203 1703 1682 2115 2161 2025 2443 1855 1734 1104
0 0 0 3 0 0 0 6 0 44 105 151 212 352 27 818 1206 843 708 700 651 588 628 778 1001 1524 1670 1600 1751 1999 2096 1615 1417 1327 946 1042 1199 1402 1759 2554 1722 1779 1841 2069 2458 1528 1243 1688 1083
0 0 0 8 4 11 0 0 0 0 36 87 31 88 299 471 1128 1087 851 744 741 776 792 907 1125 1508 1596 1491 1664 1870 2082 1934 1190 1108 1290 1211 1442 1195 1830 2240 2174 1800 1797 1882 2253 1692 1840 1829 1888
0 0 0 0 1 5 0 0 17 0 4 7 7 12 201 560 882 1112 1147 846 772 814 898 1047 1184 1395 1631 1458 1477 1623 1732 1879 1767 1488 1431 1470 1158 1755 1469 2358 2363 2088 2264 2386 2516 1789 1881 2074 1842
0 0 0 0 0 2 12 18 1 6 6 9 10 11 22 121 641 828 836 1029 861 831 894 968 1146 1287 1543 1529 1463 1496 1486 1580 1719 1508 1445 1732 1529 1694 2188 2522 2414 2312 2223 2325 2855 2488 1912 2312 2042
0 0 0 1 0 0 21 26 7 7 2 4 8 9 10 12 7 5 100 904 1013 950 993 985 980 967 1186 1252 1580 1619 1961 1473 1321 1505 1386 1584 1777 1760 2231 2562 2653 1884 2067 2343 2809 2522 1827 2084 2018

GFSSGP_con_sbcape_081.txt.gz
CAPE
0 0 13 164 190 34 56 122 352 540 135 108 84 78 128 656 764 671 415 883 941 910 950 1504 2247 1586 2075 2276 1917 2047 1559 1355 1406 1685 1604 1496 2093 2269 2249 2262 2369 2453 2368 2246 2233 2272 2254 2194 2282
1 0 31 307 290 35 59 167 545 503 158 48 3 3 560 450 443 284 428 929 935 833 748 922 2385 1923 1950 2420 1902 2173 2022 2054 1836 1713 1879 1846 1490 2138 2142 2085 2347 2370 2387 2299 2126 2033 2375 2122 2346
41 11 305 554 598 99 342 349 460 73 28 25 154 294 657 71 159 275 573 743 694 928 697 1404 2460 1861 1861 2230 1891 1941 2057 1881 1816 1863 1650 1858 1730 1884 1857 2053 2220 2229 2225 2177 1986 2061 2298 2185 2028
4 44 361 873 139 10 210 502 143 10 134 39 310 409 347 65 149 336 547 679 637 812 1275 2084 2201 1757 1929 1990 1893 1952 1994 1802 1937 1909 1837 1937 1957 1919 1893 2068 2199 2159 2332 2159 1796 1868 2098 2231 2019
12 234 529 109 121 14 213 95 67 193 211 156 294 351 53 187 155 304 506 595 583 839 1218 1875 2480 2080 1922 2030 1883 1922 1975 1617 1851 1847 1754 1896 1716 1852 1845 1957 2102 2219 2025 2031 2058 2056 2345 2178 2072
368 703 427 231 101 109 230 94 254 196 117 347 348 252 195 257 161 308 410 449 674 702 772 1171 1932 2114 1953 1827 1865 1905 1636 1654 1621 1747 1658 1699 1609 1741 1831 1893 1906 2084 2036 1910 2011 2356 2457 2193 2187
246 893 501 268 230 219 455 384 524 241 187 361 467 275 251 205 206 281 357 533 524 882 743 1156 1511 1870 1810 1944 1871 1746 1660 1675 1762 1570 1414 1686 1641 1347 1576 1812 1958 1983 1902 2144 2270 2513 2426 2161 2073
522 917 556 248 503 326 467 410 449 262 634 360 525 113 142 196 198 369 470 495 644 522 574 1226 1110 977 1279 1486 1738 1639 1671 1473 1530 1437 1648 1532 1458 1492 1526 2218 1950 1814 1842 2068 2005 2211 2363 2080 1942
608 825 440 505 455 113 273 209 297 555 372 510 517 116 56 109 197 332 372 547 561 496 579 966 946 1156 1770 1454 1550 1638 1353 1498 1536 1209 1405 1721 1371 1240 1216 2291 2003 2023 2089 2132 2093 2181 2402 2289 2177
936 661 476 531 424 446 41 116 70 185 310 500 327 65 40 80 180 270 484 564 545 295 232 500 1050 963 1350 529 1475 1156 1066 1093 1216 1407 1675 1704 1325 904 755 1788 1933 1942 2054 2176 2115 2069 2328 2453 1902
780 308 305 704 555 273 89 10 44 65 397 581 189 93 62 49 130 183 316 289 246 292 597 932 1409 1859 1044 875 1252 1190 843 1177 1388 1726 855 530 831 685 813 1506 1577 1847 1998 1777 2032 1840 1831 1312 1212
730 451 225 673 532 293 194 82 89 145 545 580 247 82 50 82 60 87 157 182 184 272 402 1028 1013 1017 620 634 1054 428 645 587 696 564 702 798 579 825 2041 1407 1018 1425 1935 1566 1752 1601 1791 1658 1231
688 300 7 154 108 664 443 467 563 444 512 456 244 64 35 20 35 32 81 142 169 239 330 776 781 1026 701 1793 423 500 234 476 489 794 700 1220 1370 1831 1818 1808 1449 1592 1673 1298 1810 2347 2000 1804 1307
426 472 6 54 2 765 590 481 583 361 474 598 172 78 40 11 18 24 40 64 68 216 411 714 717 775 766 1819 1277 934 814 355 501 566 813 1010 1292 2144 1692 1999 2264 2095 2681 2113 2520 1743 3057 2165 1292
362 130 2 37 195 503 604 632 315 569 337 211 146 104 68 12 23 29 28 20 15 221 452 665 655 711 1166 1027 840 871 653 869 566 769 1234 1231 1312 1847 2618 1607 1459 1965 1744 2024 1698 1831 2119 1530 1072
323 237 128 92 145 452 526 570 720 756 485 283 139 68 77 48 41 30 19 8 12 160 505 640 335 531 895 1076 2018 1344 1268 1001 1971 776 911 1334 1682 1484 2123 1752 1652 1288 2502 1948 2252 2782 2276 1085 1570
241 251 150 209 317 577 672 729 372 625 373 342 102 120 91 75 30 9 12 8 4 197 551 578 477 387 877 1246 1095 1406 1877 1560 2347 1677 1640 1526 1725 1699 2373 1705 1565 1878 1658 1327 1273 1713 1359 1271 1237
185 205 152 264 561 562 366 554 953 380 396 195 111 67 72 29 18 19 8 12 0 167 514 645 495 452 974 1185 1166 1129 800 1553 1554 2059 1748 1749 2025 1909 2201 1382 1375 1858 1516 1395 1543 2858 1729 1054 1151
94 122 44 232 296 690 506 599 803 284 213 369 81 37 15 10 51 109 97 46 12 114 351 691 681 953 853 1018 781 481 532 877 1222 1619 1583 1574 1603 1833 1887 1951 1598 1636 1838 1754 1403 1526 1334 1474 377
52 156 68 95 149 618 308 603 1099 648 274 94 90 212 8 13 113 287 337 141 21 47 224 655 824 1044 1008 962 1256 421 1501 330 1568 1676 1530 1557 1747 1984 1737 1887 2123 1925 1525 1725 1575 2210 2151 108 1282
79 174 63 5 84 67 13 140 707 614 539 172 159 175 211 33 161 320 474 376 46 4 111 565 984 1191 1240 1217 836 1245 1646 1447 723 1581 1307 1643 1508 1719 1894 1783 2336 1838 2181 1574 1760 1487 1479 1750 478
55 73 35 49 6 84 106 337 345 937 620 585 605 495 656 393 168 299 426 466 111 0 146 540 992 1244 1093 1189 1919 2803 1252 612 799 1347 1902 2231 1697 1611 1667 1776 1833 2061 1721 1883 1709 874 2401 2451 1480
3 38 63 17 0 136 150 227 18 601 723 530 425 720 699 511 181 350 391 604 201 28 181 624 1118 1756 1986 1859 2433 1722 2138 1419 1380 1446 2436 2106 2311 1627 1350 1914 1938 2022 2105 2417 1675 1703 1796 1795 1303
4 58 60 37 5 37 30 91 49 193 750 803 415 737 557 369 567 483 524 671 268 156 100 438 1376 2183 1730 1533 1824 2122 1662 1927 2082 1268 1388 1802 1695 1541 1735 1596 1976 1954 1884 2141 1990 1872 1934 2019 2911
26 61 68 29 11 14 7 131 49 257 280 250 120 196 575 617 551 635 525 611 265 277 319 473 1229 1972 1855 1570 1747 1904 1855 1645 1828 1824 992 1350 1193 1626 2632 2123 2181 1830 2008 1957 2167 2289 2017 1970 1405
8 18 25 12 5 4 53 209 186 207 273 164 258 145 515 904 552 487 723 715 454 230 440 711 1310 1935 1913 1884 2731 2940 2440 1669 1207 1711 2200 1834 1422 1742 2919 2168 1867 1844 1838 1949 2127 1889 1853 2674 1602
8 7 1 42 46 31 116 152 139 138 178 49 56 413 741 204 1077 845 791 524 591 621 413 816 1462 1830 2068 1878 2682 2835 2868 2540 1779 2257 1900 1184 2643 1511 2082 1670 1821 1837 1855 1927 2274 1984 2596 2144 2167
0 3 9 6 61 57 135 150 212 74 90 11 8 36 360 1182 702 354 583 802 801 783 529 768 1150 1620 2054 2052 1985 2019 2166 2476 2364 1627 1875 1598 1760 1589 1103 1745 2546 2161 1806 2000 2355 2732 2529 2007 1841
0 0 18 49 57 120 109 296 166 43 14 8 9 9 9 24 220 270 393 829 515 1002 1013 966 1140 1462 1860 2039 2136 2204 2189 2041 2262 1964 1718 1872 1688 1796 1742 2147 2618 2254 2650 2240 3207 3078 2483 2330 2047
0 18 6 24 43 19 26 242 52 32 31 6 10 11 9 9 9 11 14 39 256 358 536 895 1089 1279 1606 1860 2656 1985 2438 2478 1883 2131 1901 1888 2362 1946 1998 2352 2327 2396 2046 2608 2670 2377 1788 1873 2204

GFSSGP_con_sbcape_084.txt.gz
CAPE
0 0 0 48 79 1 28 95 368 60 87 23 55 196 447 440 684 666 933 900 771 828 1042 1601 2546 2460 2057 2165 2177 1782 1348 1339 1742 1392 1606 2152 2149 2180 2654 2629 2266 2316 2492 2255 2279 2258 2269 2304 1965
0 0 8 571 308 0 81 18 541 274 38 16 321 327 229 236 260 805 829 757 653 429 382 777 2239 2402 2335 2215 1874 2353 2021 1859 1830 1767 1913 1666 2088 1900 2369 2195 2333 2267 2444 2363 2367 2329 2303 2116 2100
0 21 140 257 368 113 196 278 433 120 16 159 378 6 119 124 262 755 701 634 299 394 596 1220 2327 2307 2349 2468 2196 2135 2020 1817 2073 1878 1823 2168 2177 1989 2081 2202 2235 2214 2403 2126 2306 2372 2046 1840 1788
23 55 88 349 118 25 144 436 88 45 150 223 99 4 30 172 310 541 662 475 450 455 829 1974 2197 2083 1980 2227 2018 1995 2137 1899 2174 2069 2005 2255 2315 2033 2159 2132 2240 2352 1992 1991 1819 2200 2176 1771 1688
6 183 204 57 70 17 34 150 230 72 214 150 9 1 90 220 246 317 386 565 746 508 686 1514 2375 2333 2155 2162 1800 1758 1825 1716 1867 1784 2070 1954 1953 1991 2133 2244 2289 2109 2012 2149 2004 2282 1948 1840 1917
46 438 318 177 11 53 154 396 271 268 323 63 0 4 72 134 177 331 393 580 912 640 762 1189 1950 1921 1900 2011 1906 1798 1611 1724 1976 2199 2001 2037 2067 1982 2225 2096 2095 1956 1992 2024 2385 2185 1950 1948 1905
68 631 435 209 223 188 411 575 212 207 374 167 57 0 39 94 144 244 508 367 252 590 743 863 1337 1874 1944 1904 1759 1613 1914 1779 1771 1539 1919 1988 1979 1881 2001 2276 1958 1914 2058 2195 2343 2152 2012 1952 1851
470 697 404 242 333 280 510 494 765 406 348 179 56 0 3 118 167 191 281 239 494 407 552 1029 1366 1242 1144 1440 1633 1582 1539 1678 1412 1655 1617 1951 1750 1650 1923 2488 2513 2069 1987 2034 2351 2219 1964 1894 1793
282 649 532 282 352 574 535 480 384 789 323 382 174 0 0 30 265 189 151 480 248 604 625 794 1009 1180 1738 1593 1584 1518 1386 1397 1465 1505 1352 1598 1467 1347 1389 2337 2328 1894 2468 2022 2254 2349 2090 1889 1911
291 703 543 410 320 497 232 187 95 284 291 287 2 9 1 38 390 254 153 228 345 615 744 776 1031 1102 1190 525 1662 1712 1526 1534 1483 1288 1479 1443 1777 1192 1142 1954 2338 2052 2593 2245 2494 2583 1495 2378 1671
707 360 626 504 446 271 196 104 75 252 464 117 31 0 0 35 193 70 187 65 183 475 1056 884 1227 1421 1095 1328 1466 1294 1476 1345 1497 1758 1816 1758 801 1032 1263 1872 1820 2133 2000 1878 1759 2605 2084 1918 1944
303 509 783 584 327 98 103 51 100 147 644 150 38 8 3 10 59 288 290 169 684 655 995 468 773 322 1598 1227 1360 784 1027 913 1056 1598 745 1057 2000 1019 2101 1610 1413 1706 1228 727 1044 2197 2621 1894 1517
701 327 573 593 364 148 101 121 68 303 196 264 63 13 4 7 37 99 115 80 713 930 693 558 666 320 2567 1197 1166 815 615 861 423 717 1160 1501 1021 2358 1405 306 1419 783 1736 760 1011 1261 1109 1583 1826
401 347 74 160 556 395 183 360 317 512 420 388 102 13 9 6 32 69 86 77 76 663 397 676 1130 1453 1920 2823 2742 1976 619 911 1166 852 743 1815 2421 2637 630 1155 1279 1500 2632 1360 57 1537 2709 1162 1673
343 514 42 107 783 713 436 479 463 522 721 431 104 31 19 25 17 53 72 56 70 459 721 902 597 1053 1820 2172 1217 2391 1089 713 1070 1282 2088 2117 2223 1839 1012 446 1126 1639 3259 3010 1070 2408 1793 1841 1431
528 330 79 85 587 583 501 422 398 395 524 211 61 25 23 31 15 36 27 37 41 537 852 870 78 975 1230 1658 2121 445 257 684 1738 1471 1885 2560 2244 2353 2382 1144 1260 1978 1179 1942 652 2435 2092 1827 1931
354 293 163 124 405 608 571 348 500 292 239 141 64 29 25 24 31 47 13 19 18 677 952 1060 618 974 1268 1598 2475 366 602 516 1131 2193 1241 2631 2450 2018 2882 2229 1429 2781 882 2057 1456 1773 1751 1829 1106
58 79 56 163 468 606 637 458 480 452 227 176 66 30 45 32 29 15 7 24 16 463 937 1346 615 1897 2034 1996 1784 1667 887 870 1238 1830 2033 2817 2684 2604 2187 2611 2918 377 2523 2107 649 2265 1220 1846 231
61 90 143 62 1 641 750 661 380 651 393 194 40 60 56 56 41 10 19 19 22 277 840 1412 1444 2328 1945 2054 1759 1158 1594 1424 1432 1886 3068 1709 1646 2931 2724 2569 2822 783 2473 545 2825 2661 2772 2274 2408
6 9 107 32 63 258 683 628 637 487 288 221 113 56 80 56 37 55 35 31 27 355 804 1635 1666 1804 2150 1605 2224 2421 1697 1734 1628 1565 2740 2436 2400 2679 2574 1886 2343 1170 1388 2909 2626 605 2669 1852 2356
0 16 45 106 1 0 36 514 11 442 385 221 121 129 83 36 84 185 93 62 115 397 720 1452 1842 1612 1933 2257 2487 3213 2242 2079 2078 1833 2306 2283 2651 2971 1744 2328 2796 2256 2482 1964 2682 3083 1907 1960 2121
0 6 6 219 175 208 82 607 697 574 438 335 154 140 98 18 125 301 159 160 61 250 523 1374 2161 1682 1758 2576 2117 2999 2436 2189 1606 1792 2434 2720 2559 2713 2411 2935 2410 1651 993 758 2455 2255 1807 2782 2297
0 29 1 14 14 8 31 92 506 413 602 2 12 157 98 118 179 184 224 345 17 16 256 1154 2025 1908 1858 2683 2125 2584 2551 616 723 1745 2489 2627 3036 2915 2032 3190 3011 2569 1925 1237 2090 2690 3285 2368 1985
0 16 54 46 5 5 91 81 272 250 3 140 94 307 5 71 261 198 347 294 80 99 225 1007 1867 2261 2558 2154 2401 2643 2077 665 273 1129 1461 1953 2912 2612 3076 2951 3026 2590 717 403 3316 2830 2838 3020 3728
0 1 42 50 27 9 3 71 134 2 419 227 315 250 124 52 205 344 624 512 273 93 351 1281 2001 2278 2307 1850 2155 2740 2285 2646 1682 1879 749 1756 771 877 2067 2884 3355 2959 3003 2312 2854 3199 3082 3200 2923
0 0 56 36 17 15 2 104 122 0 306 422 358 495 46 101 603 286 677 618 809 108 386 1017 2112 2400 2244 2083 2446 2742 2962 2264 2110 2573 2954 902 734 1101 2077 2499 2815 3099 2666 2463 2836 3343 2915 3007 2795
11 0 39 62 35 27 322 223 222 120 138 163 252 643 546 832 945 591 656 594 944 226 570 1005 2047 2455 2597 2409 2724 3206 3107 3001 1650 2401 3142 2348 1880 838 2097 860 2608 2883 2890 2624 2726 2345 2982 2907 2842
17 0 8 14 45 87 450 335 273 277 186 57 50 38 4 13 539 316 268 89 989 382 653 1323 2143 2468 2513 2299 2659 2807 2998 3028 3092 3443 3352 3329 2717 1086 626 791 872 2971 2962 2755 2927 2486 2308 2705 3022
1 0 5 3 22 41 362 251 248 147 92 15 7 7 8 5 22 118 34 0 296 614 273 943 2135 2412 2591 2556 2542 2512 2635 2834 3110 2956 3291 2995 2890 1591 679 0 221 2626 3131 2811 2951 2352 2162 2200 2434
0 6 1 19 17 25 310 203 56 83 24 4 4 8 12 5 2 8 5 1 5 4 575 659 345 1597 2150 2350 2714 2713 2933 2561 2725 2857 2902 3271 3134 3149 2991 2354 2580 2872 2698 2540 2676 2751 2150 2319 2662

GFSSGP_con_sbcape_087.txt.gz
CAPE
0 0 0 7 65 12 43 95 206 71 126 78 168 133 238 446 275 355 416 639 883 1187 1478 1704 2497 1801 1561 1607 1400 1309 1176 1427 1307 1833 2148 2143 2195 2581 2587 2238 2278 2351 2841 2304 2267 2272 1885 1778 1899
0 0 0 40 78 23 74 85 163 321 152 21 5 160 454 573 566 570 522 638 883 1133 1182 1652 2440 2192 1764 1837 1680 1922 1784 1814 1681 1790 1920 2055 2043 2559 2274 2266 2138 2234 2780 2321 2298 2238 2095 1984 1777
10 0 15 64 91 42 88 143 396 293 109 3 10 14 311 423 539 392 387 354 278 238 717 1550 2302 2416 2173 2090 1974 1781 2009 1931 1812 1663 1708 1955 1934 2081 2228 2241 2225 2112 2259 2628 2215 1751 1674 1348 1158
0 13 52 62 16 57 120 134 266 18 0 0 0 3 226 362 261 260 131 80 200 399 910 2138 2015 1901 2008 1924 1830 1900 1884 1719 1780 1941 1982 2058 1967 2190 2109 2191 2197 1973 1758 2063 2158 1931 1556 1692 1868
0 63 89 70 33 24 138 334 175 46 2 0 0 46 209 180 121 163 71 261 596 698 983 1644 2358 2340 1881 1794 1759 1814 1790 1735 1705 2151 2018 2024 1915 2017 2135 2145 2123 2137 1962 2108 2052 1910 1766 2020 2108
0 102 177 65 24 102 124 182 38 5 1 0 0 19 83 173 79 73 143 124 637 743 961 1274 1849 1867 1944 1670 1545 1604 1602 1668 1789 1940 1759 1895 1973 2067 2130 1910 2049 2017 1617 2310 1956 1859 1785 1813 1991
3 215 281 1 29 184 393 425 400 3 0 0 0 0 36 153 243 424 428 97 265 781 870 1156 1326 1552 1758 1610 1507 1544 1584 1711 1700 1637 1665 1966 2002 2014 2019 1954 1962 2066 2199 2148 1890 1778 1851 1906 1897
77 280 134 84 143 162 408 414 847 150 13 0 0 0 11 42 101 115 193 327 341 566 778 979 1185 1226 1160 1236 1468 1649 1617 1488 1422 1617 1420 2082 1967 1941 1847 2317 2707 2134 2127 2220 1941 1719 1596 1598 1572
276 164 181 174 123 371 398 435 492 768 185 20 1 0 7 34 16 62 103 145 308 310 628 770 840 767 808 1017 1123 1314 1513 1338 1420 1382 1427 1719 987 1130 1519 2117 2585 2006 1980 2053 2152 1922 1802 1721 1680
240 104 188 245 343 511 410 415 218 198 161 93 3 13 30 67 133 34 34 134 344 391 571 545 691 659 690 951 863 804 787 682 670 698 931 646 733 841 1361 1791 2427 2097 1869 1903 2154 2335 2032 2209 1412
353 290 430 177 431 389 287 96 132 185 155 0 0 2 39 33 41 44 9 14 408 489 591 417 467 468 254 609 795 273 666 857 760 443 685 872 691 1159 1304 1519 1666 1507 1097 907 1208 1608 1118 1094 1413
532 301 436 420 310 176 170 108 120 549 456 50 1 0 48 26 37 31 11 275 210 218 334 458 575 524 555 525 535 300 509 709 419 978 528 467 455 722 976 1237 1163 561 672 369 865 1164 1755 1714 1747
5 104 454 337 160 137 46 124 261 154 292 149 3 1 60 54 53 49 56 185 392 434 311 259 215 203 512 746 435 311 622 234 216 234 365 738 388 805 315 476 974 850 200 557 45 302 1047 399 983
419 261 570 237 104 105 81 100 157 92 0 173 1 0 3 18 86 79 189 196 155 125 300 0 0 166 848 991 483 329 221 0 81 227 747 842 649 555 630 620 878 417 865 608 68 254 1164 689 678
330 326 133 481 230 199 187 120 243 94 9 178 4 0 0 23 85 25 184 396 156 83 234 145 349 686 1150 94 516 405 416 408 384 715 233 677 516 259 420 40 273 615 1118 588 688 702 1388 906 755
206 204 219 307 406 363 317 195 524 214 62 304 9 1 0 11 33 20 22 153 103 121 26 0 517 523 460 498 102 38 294 429 311 861 896 1307 674 428 435 333 560 838 264 1009 399 623 553 475 787
66 144 191 71 654 518 230 343 355 302 489 111 23 22 4 7 33 30 16 9 135 170 7 0 188 137 745 751 294 25 21 49 803 541 992 949 1110 918 1227 671 566 1260 635 895 963 671 813 868 375
2 116 84 44 598 388 171 54 142 376 300 141 27 27 19 8 22 21 11 9 160 236 160 207 262 106 208 865 367 214 128 519 874 806 1249 1447 1360 1279 876 1649 798 733 949 943 508 789 440 682 150
0 54 122 100 116 494 128 269 608 268 190 14 24 39 18 9 14 7 6 17 290 130 183 151 575 733 500 925 172 451 151 422 1129 1194 1193 802 588 1589 1428 1336 423 738 945 332 1501 1308 1466 1518 1247
0 1 65 121 151 78 0 109 519 425 187 24 48 40 18 3 5 0 0 6 183 97 163 743 828 612 552 709 714 653 716 643 834 1163 1365 795 948 1265 1427 1216 1119 716 815 1431 939 336 1229 854 539
0 0 0 112 163 21 3 140 309 509 286 140 193 120 150 14 1 3 0 11 44 173 340 662 575 684 582 606 866 1602 1016 1089 1175 1459 1153 1705 1601 1520 1088 1111 1089 343 675 682 754 1556 658 714 951
0 0 0 25 28 10 106 186 86 333 319 183 130 149 170 144 3 6 3 1 39 174 439 690 531 272 293 1009 497 913 547 708 518 739 1060 1121 1521 1734 1548 1315 1203 1340 434 186 690 1627 1233 247 636
0 1 91 106 57 178 29 275 98 225 294 279 129 130 69 86 19 6 31 5 86 140 387 912 568 298 220 904 1203 1097 524 174 247 1157 1084 1521 1535 1747 1428 1293 990 881 673 420 1058 1412 1392 1385 1867
0 0 58 40 49 39 14 51 244 236 406 338 130 192 119 101 19 64 57 54 83 116 292 974 667 613 417 1045 957 1014 860 191 245 568 989 852 1143 1209 1028 1696 1148 1162 647 160 105 1347 1544 1804 1515
0 0 0 1 0 0 1 69 151 264 448 97 30 141 13 5 31 35 62 146 19 52 288 450 1087 732 692 1054 743 1219 1095 770 532 860 384 890 614 441 522 1494 1480 1205 717 247 314 1584 1502 1978 1284
0 0 0 3 6 1 17 199 165 234 246 239 35 177 0 0 19 46 0 146 126 5 287 493 1009 1102 926 792 1014 1077 1219 998 715 851 476 1036 31 276 439 989 1216 1621 1122 1248 1424 1447 1568 1408 1516
0 0 0 0 1 10 374 158 124 119 123 245 269 101 0 0 0 0 0 98 319 26 313 559 896 1123 871 1078 1058 1504 1275 1233 1016 856 576 404 353 952 1282 731 1319 1380 1481 1084 1566 1361 1586 1545 1352
0 0 0 0 0 23 432 293 330 156 22 72 49 65 20 61 239 24 71 64 27 51 385 758 1062 1178 1256 1256 1342 1751 1699 1642 1595 1895 1705 1268 691 554 595 676 631 1266 1571 1480 1346 1075 1242 1316 1425
0 0 0 0 0 0 206 204 240 17 8 0 9 36 21 13 168 238 131 2 3 1 128 600 1032 1492 1633 1456 1502 1633 2070 1975 1970 1799 2008 1297 673 462 411 247 46 572 1364 1505 1465 1340 1123 1549 1265
2 0 0 0 0 13 232 158 55 0 0 0 0 17 2 5 2 42 11 36 36 1 5 21 26 249 626 1656 1758 1789 1880 2061 2205 2193 1955 1678 534 610 266 0 0 17 870 1658 1431 1374 1500 1289 1167

GFSSGP_con_sbcape_090.txt.gz
CAPE
11 0 0 0 59 6 3 27 47 48 81 80 0 8 0 0 11 57 58 413 847 1159 1194 1723 2384 1713 1445 1520 1413 1156 1173 1630 2210 2359 2237 2176 2177 2047 2217 2416 2303 2421 2653 2219 2012 1916 2050 1818 1627
0 0 0 20 63 8 0 59 137 74 45 106 177 286 147 173 251 258 520 765 1045 1134 1241 1680 2086 2011 1564 1230 1343 1978 1808 1630 1653 2187 2159 2180 2425 2276 2142 2245 2331 2415 2713 2355 2208 2146 2004 1994 1753
0 0 1 90 62 34 39 62 128 89 80 67 174 248 361 396 357 305 589 945 1039 996 1262 1386 1925 1784 1986 2047 1886 1666 1955 1866 1617 1917 1978 1984 2300 2373 2346 2241 2201 2407 2304 2294 1949 1931 1881 1458 1536
13 10 54 72 34 87 139 100 156 8 64 129 137 225 311 343 275 383 614 602 296 706 1095 2106 1961 1983 2122 1922 1839 1916 1866 1969 1939 1942 2043 2175 2258 2340 2255 2097 2095 2267 2421 1869 1624 1451 1659 1695 1242
0 34 15 48 20 67 109 97 100 8 80 120 130 208 193 167 230 234 87 85 334 717 1424 1592 2336 2044 1875 1882 1940 1908 1839 2005 2153 2147 2130 2099 2109 2221 2264 2130 2095 1984 2281 2216 1704 1835 2095 2140 1811
2 90 56 60 39 100 140 161 101 27 80 153 33 27 38 88 67 0 39 0 318 859 1293 1434 1975 1879 1796 1721 1805 1820 1765 1767 1888 2057 1942 1965 2128 2102 2104 2291 2272 2140 2278 1972 1838 2014 2120 2056 1986
8 104 148 10 62 31 174 455 7 17 11 6 5 18 24 42 8 52 295 128 358 936 1007 1215 1276 1451 1651 1566 1687 1749 1788 1837 1712 1806 1884 2049 2135 2044 2043 2420 1985 2161 2075 1834 1780 1820 1884 2023 1950
116 337 4 37 57 132 243 438 15 0 0 0 26 2 0 0 15 48 127 466 527 722 1044 981 1047 1084 954 1268 1557 1582 1515 1591 1176 1494 1789 2044 2051 2014 2027 2569 2782 2125 2003 1776 1721 1727 1747 1704 1701
234 232 90 115 68 129 354 215 558 36 0 5 0 0 13 142 60 38 138 330 420 641 807 891 922 815 717 766 1262 1411 1376 1381 1512 1248 1684 1800 1126 1315 1462 2397 2579 2029 2025 2026 1881 1694 1679 1725 1806
204 172 30 156 27 224 369 444 377 10 0 7 4 40 24 147 86 101 129 280 157 426 604 684 580 599 651 1069 798 775 753 569 684 764 961 620 565 996 1396 1935 2452 1815 1928 2134 2114 2109 1882 1860 1258
244 206 68 27 271 535 357 270 205 127 166 0 0 0 2 62 56 87 154 160 185 386 526 393 477 410 519 728 442 399 369 325 421 429 558 549 615 1188 1237 1370 1362 840 843 784 1079 1342 687 1208 1066
253 478 513 117 536 243 276 224 501 283 63 0 21 15 3 9 21 15 43 132 213 344 331 315 216 282 110 474 222 177 382 474 429 212 401 278 520 685 994 1073 712 667 768 678 500 865 1119 1548 1557
498 243 413 262 161 206 157 311 425 147 263 2 17 15 18 20 2 4 21 260 229 281 231 225 283 341 265 446 167 58 298 351 295 396 159 316 325 611 574 529 627 298 0 365 31 149 618 329 395
151 488 531 211 69 32 168 296 100 151 59 16 32 15 10 11 0 28 144 141 124 337 305 121 241 183 528 449 163 105 225 5 34 134 236 302 399 416 12 423 575 493 487 301 135 107 588 794 82
164 193 293 214 173 116 142 149 162 118 16 2 65 64 38 30 49 98 154 198 211 281 132 0 1 421 615 631 218 136 31 2 181 430 604 422 267 206 252 272 362 623 1050 587 295 511 966 796 321
211 336 258 189 176 218 47 87 117 97 54 148 8 30 38 39 103 221 224 199 137 172 0 0 648 456 319 389 173 180 183 119 372 181 506 279 187 154 177 0 212 571 663 668 276 587 541 281 396
0 149 136 268 378 283 241 28 158 155 100 79 1 14 9 62 95 213 225 59 157 23 0 145 235 203 110 54 80 79 91 301 358 323 768 483 532 541 687 264 470 331 317 506 652 468 464 680 236
0 22 101 139 409 318 145 119 475 114 157 153 5 12 4 11 31 204 129 73 138 0 0 84 11 238 466 21 88 0 229 545 537 255 736 607 839 1115 961 634 716 654 753 697 392 475 238 356 5
0 0 0 109 187 0 54 75 106 376 267 151 2 9 1 9 5 72 106 121 74 17 0 0 0 47 465 322 74 69 120 379 850 722 1052 1093 1017 1056 1140 1120 172 363 133 231 866 825 798 1138 593
0 0 50 261 3 0 0 4 0 157 246 204 40 23 3 7 9 18 117 112 118 16 71 155 0 93 321 439 108 263 272 350 717 887 903 516 563 1157 991 954 325 516 660 1151 820 315 614 414 302
0 0 0 317 3 10 4 0 4 116 176 83 123 46 10 1 0 2 136 96 65 0 154 207 274 200 201 459 411 843 510 656 852 948 1092 988 1088 1121 1293 942 717 156 261 330 505 986 385 603 456
0 0 0 214 77 9 0 23 28 190 285 172 153 182 105 8 0 2 118 112 23 85 267 326 391 217 169 339 449 790 709 538 490 709 655 1042 1325 1097 957 1065 921 943 221 192 199 1179 662 146 1060
0 0 0 192 24 21 2 125 41 151 343 140 139 157 63 45 79 0 36 133 99 72 406 302 298 185 148 633 747 374 383 140 358 609 923 775 918 1319 1300 966 568 618 266 19 558 1184 971 1197 1375
0 0 21 127 33 0 0 37 113 42 292 298 129 122 60 32 80 38 90 34 140 138 456 208 147 107 0 356 748 564 261 79 535 705 725 603 600 617 936 993 780 497 509 267 216 1126 1225 1199 1080
0 0 0 23 53 10 0 3 51 83 294 319 206 127 43 22 31 45 46 40 84 172 626 295 133 0 0 389 558 608 404 84 415 389 643 663 614 593 762 1158 884 811 317 23 0 1066 1186 1064 956
0 0 0 10 0 26 103 6 156 162 307 355 229 156 88 45 48 62 52 78 142 141 427 762 216 161 180 321 629 572 626 520 429 443 252 634 419 230 413 1068 1080 905 846 699 1033 912 1022 920 1042
0 0 0 0 0 0 124 55 53 111 204 98 31 185 97 43 21 41 25 95 116 92 218 652 628 283 275 359 476 498 789 624 546 580 178 722 358 52 365 488 981 1162 1085 613 1028 952 1179 1177 976
0 0 0 0 0 0 146 104 79 165 202 180 212 22 59 59 10 2 0 126 83 49 58 298 896 681 420 596 432 740 722 842 669 477 782 483 277 375 858 723 920 993 1098 924 878 999 716 1059 965
0 0 0 0 0 0 107 101 180 69 25 19 20 33 52 45 88 267 30 64 55 33 70 203 479 683 763 802 746 764 1107 1072 969 1117 1148 838 410 397 425 390 623 613 1045 1203 985 774 788 966 1018
0 0 0 0 0 1 145 190 35 0 1 8 23 6 3 2 21 127 71 73 32 41 38 55 143 193 193 218 507 895 1044 1216 1199 1143 1274 1153 599 282 167 174 79 67 473 947 1087 1004 1252 916 875

GFSSGP_con_sbcape_093.txt.gz
CAPE
60 0 0 0 1 0 10 42 36 50 1 0 0 0 0 22 12 1 0 0 843 1046 1389 1324 1977 1860 1516 1411 1417 1432 1999 1988 1933 2036 2224 2025 2079 2325 2313 2284 2167 2442 2494 1856 1825 1392 1607 1548 1509
0 0 0 3 6 0 1 72 112 171 77 0 21 62 173 257 285 74 348 770 945 986 1199 1699 2054 1535 1443 1243 1151 1165 1409 2018 2324 2093 2131 2133 2156 2363 2339 2325 2483 2374 2511 2014 2093 1892 1638 1522 1496
0 0 0 43 57 10 18 85 128 79 19 2 342 345 456 364 291 364 569 947 1051 1097 1287 1266 1759 1519 1377 1645 1955 1796 1513 1620 2151 2014 2254 2224 2190 2248 2418 2428 2472 2487 2241 2239 2090 2007 1658 1557 1451
0 1 76 54 27 64 81 110 149 78 97 203 268 228 360 325 363 632 823 1002 937 1090 1027 1522 1846 2050 1952 1780 1913 1961 1910 1611 1902 1997 2037 2303 2277 2236 2151 2399 2580 2424 1973 1954 2009 1817 1754 1322 1541
0 39 32 91 21 76 134 139 58 24 60 115 107 179 205 272 615 707 630 686 764 953 1428 1650 2327 2034 1984 1863 1993 1950 1964 2071 1986 2081 1939 2203 2284 2326 2211 2214 2191 2244 1907 1604 1941 1958 1706 1637 2362
31 52 1 53 33 119 152 236 254 102 131 75 74 63 80 285 402 239 243 386 752 1177 1388 1592 1983 1977 1965 1960 1943 1868 2037 2177 2118 2113 1988 2251 2317 2366 2384 2321 2153 2154 2082 1978 2060 1811 1781 1878 1868
1 22 62 47 94 146 140 242 207 95 54 9 0 7 49 109 3 15 10 238 850 1183 1150 1333 1483 1557 1740 1753 1821 1800 1806 1821 2053 2075 2108 2228 2284 2302 2439 2136 2013 2097 1844 1897 2019 2146 1894 1959 2059
62 88 43 31 137 69 186 280 46 69 65 0 0 15 58 2 2 69 2 269 701 869 1071 1040 1080 1262 1202 1202 1710 1798 1858 1667 1923 1968 2124 2173 2118 2237 2365 2700 2550 1898 1739 1705 1810 1873 1965 1905 1943
202 152 31 103 77 107 263 2 122 51 50 11 49 20 0 25 116 33 253 395 531 846 783 817 812 689 763 1167 1244 1409 1566 1343 1389 1687 2229 1549 1052 1646 1802 2342 2302 1966 1761 1691 1680 1678 1710 1849 1966
96 112 35 101 55 119 154 20 11 59 36 69 16 0 0 14 12 63 131 219 403 610 710 763 582 572 690 1121 856 550 793 752 887 929 730 593 789 1129 1716 1960 2116 2072 2042 2103 2054 1767 1804 1857 982
158 199 48 18 65 133 231 228 14 10 52 19 30 25 11 0 2 53 141 205 198 378 621 594 451 441 720 783 511 439 323 365 448 743 584 545 642 1168 1135 1061 1064 394 1007 846 946 1056 458 879 958
171 124 102 134 65 327 317 276 1 38 53 82 83 136 58 40 17 80 138 87 182 378 474 334 349 357 178 516 442 271 301 360 338 372 445 439 688 867 997 1019 684 618 480 200 454 680 747 1103 1400
292 259 451 253 352 361 182 344 152 300 28 47 47 141 93 59 53 110 95 78 187 347 341 305 228 267 159 419 174 111 305 464 377 279 322 383 433 571 684 625 477 271 24 315 108 154 382 636 118
353 239 385 184 172 152 263 131 99 30 29 26 43 74 65 48 39 37 102 184 203 229 217 163 180 199 161 277 106 53 211 182 184 322 163 306 370 412 182 451 578 491 405 371 185 38 662 672 1
424 438 278 135 75 187 98 197 1 37 37 46 42 37 9 0 22 46 187 205 178 192 161 135 175 145 221 267 106 79 146 0 66 122 256 368 410 147 97 400 417 425 906 647 330 429 552 218 126
323 392 170 287 250 120 13 59 166 48 16 39 30 11 0 0 25 76 187 119 144 154 88 72 361 257 325 346 112 88 42 51 213 329 431 360 280 214 57 3 84 488 597 623 177 302 488 235 262
18 261 126 305 225 167 37 26 141 85 19 37 40 24 0 4 74 108 183 146 161 71 15 0 229 264 257 148 66 94 98 119 193 251 306 312 219 225 244 18 372 261 453 307 525 413 226 474 217
0 4 120 141 281 164 87 2 101 93 25 98 13 39 3 8 106 182 236 129 89 14 0 70 95 41 0 10 0 25 122 176 172 324 447 362 445 678 876 455 339 413 592 467 631 560 287 176 44
0 0 0 375 94 5 8 30 134 129 136 133 14 0 0 37 178 206 188 148 94 0 0 0 40 121 21 1 0 41 195 272 446 154 549 608 660 1005 895 940 332 209 56 300 771 552 420 679 288
0 0 261 97 56 78 26 3 9 96 89 141 27 0 12 35 175 185 98 174 82 1 0 0 0 114 81 28 20 103 59 207 501 550 762 711 809 1012 969 694 106 354 599 855 813 675 180 172 178
0 0 119 120 6 16 17 0 0 6 141 146 35 74 11 4 140 132 91 127 83 3 0 0 0 39 209 102 116 377 348 393 669 671 730 514 366 919 1079 811 477 263 276 263 400 933 629 302 258
0 0 0 189 49 16 3 0 2 0 111 139 44 61 0 1 58 117 77 108 108 18 22 0 0 0 118 231 322 460 417 408 206 387 591 678 808 962 783 711 594 352 35 133 161 1059 362 261 852
0 0 0 142 17 2 0 11 6 82 140 108 102 102 47 0 9 78 111 102 71 42 85 75 43 1 98 218 288 290 197 161 163 347 670 382 633 1053 697 827 621 495 132 0 299 982 870 1073 1077
0 0 0 17 14 0 0 14 41 80 205 184 116 96 34 2 1 82 120 91 50 79 163 179 122 0 102 254 372 388 310 105 263 464 597 575 428 578 842 815 484 346 341 155 281 836 966 940 894
0 0 0 37 13 0 0 0 6 43 172 279 176 130 34 51 49 47 45 79 43 161 242 269 140 36 43 208 344 372 223 85 260 334 512 364 388 587 624 886 699 506 386 86 2 664 841 898 866
0 0 0 16 0 1 1 0 0 131 59 272 224 86 33 24 78 36 72 29 82 161 337 250 77 24 0 146 301 366 357 77 38 241 299 400 348 443 446 740 908 585 541 339 0 659 804 721 883
0 0 0 0 0 0 1 16 58 254 117 131 131 80 23 34 18 59 94 164 162 131 462 294 136 39 5 63 258 324 416 300 278 241 242 226 468 249 139 400 855 564 665 566 675 771 831 1034 843
0 0 0 0 2 0 3 16 28 200 194 91 16 28 7 3 5 40 49 123 112 56 129 435 357 189 132 72 155 305 432 487 321 260 423 241 361 242 99 401 465 770 961 924 471 811 686 575 696
0 0 0 0 0 0 0 0 115 68 50 75 0 46 12 13 20 2 64 79 36 68 152 248 471 479 360 325 220 253 405 495 580 471 476 647 376 240 350 603 539 631 726 809 715 603 659 667 743
0 0 0 0 0 0 0 10 2 13 0 0 2 7 33 37 68 64 38 42 25 60 68 111 187 179 139 155 375 515 498 626 678 527 710 898 841 204 297 286 268 331 367 634 927 921 898 807 732

GFSSGP_con_sbcape_096.txt.gz
CAPE
41 0 0 0 0 0 3 36 52 0 0 0 0 0 1 57 48 0 0 0 771 971 1204 1731 2108 1852 1741 1483 1643 2075 1795 2239 2286 2185 2141 2195 2099 2325 2283 2070 2039 1864 2155 1382 1298 1341 1488 1325 1473
0 0 0 2 7 0 0 63 82 42 0 0 1 34 221 205 201 0 48 467 872 1065 1197 1538 2041 1503 1335 1310 1228 1783 1905 1739 2064 2127 1958 1943 2146 2171 2048 1998 2192 2063 1946 1990 1844 1808 1777 1725 1537
0 0 2 15 34 17 42 165 118 13 0 0 327 366 386 234 11 133 418 763 858 1074 1275 1182 1399 1286 1144 1292 1452 1355 1691 1782 1987 1784 1885 2176 2134 2309 2311 2119 2365 2271 1925 2032 1770 1754 1645 1649 1721
0 3 47 29 0 18 99 140 15 0 0 258 292 311 263 177 191 463 762 784 910 1029 722 1295 1417 1489 1773 1810 1872 1657 1498 1878 2036 2108 2234 2275 2336 2351 2430 2387 2218 2211 2201 2101 1904 1801 1565 1626 1591
8 12 22 54 5 94 142 153 133 31 102 198 170 113 156 450 504 671 712 743 819 665 974 1441 1750 1713 1724 1699 1677 1882 1643 1874 2006 1952 2097 2017 2308 2240 2225 2402 1992 1858 1934 2070 1907 1801 1687 1974 2076
49 29 0 64 30 117 190 247 255 162 106 99 1 40 137 457 505 457 574 589 742 1060 1198 1484 1631 1672 1549 1524 1797 1736 1854 1866 1922 2036 2264 2375 2308 2260 2286 2275 2325 1933 1973 1919 1629 1842 1756 1777 1648
3 35 71 68 89 101 179 286 233 60 15 2 0 36 126 196 77 85 184 627 1006 1090 1077 1341 1359 1247 1493 1726 1826 1873 1888 1721 1989 2148 2232 2277 2031 2070 2183 2276 2165 1980 2007 1989 1856 2042 1926 2027 2044
75 84 44 45 118 98 189 141 41 12 0 0 0 0 57 0 0 13 252 570 778 909 970 953 1092 955 938 1299 1739 1729 1850 1666 1752 2056 2032 2258 2093 2106 2030 2533 2325 1900 1909 2014 2021 2072 2037 2021 2196
203 135 41 33 63 62 165 39 48 5 0 0 18 0 26 70 0 28 241 513 643 859 703 623 691 665 813 1121 1334 1383 1347 1468 1583 1683 1953 1389 1277 1676 1917 2423 2069 1783 1714 1774 1860 1821 1826 2108 2297
153 90 101 70 96 121 54 58 43 0 0 0 18 19 71 22 0 3 75 274 507 656 612 586 493 519 685 1122 501 509 751 707 814 738 598 666 905 1500 1937 2225 2288 2158 2074 1746 1574 1529 1734 1523 1069
159 87 52 59 33 129 78 45 35 20 0 0 0 19 38 3 0 0 0 117 294 442 661 510 389 350 576 547 342 310 224 359 566 539 497 564 993 1114 1200 1138 765 852 1282 968 960 953 1071 1067 1276
114 161 181 127 66 113 144 191 51 51 2 0 1 5 30 2 0 0 0 64 106 347 501 401 300 316 199 410 313 199 201 259 377 486 469 537 739 848 854 952 649 742 198 327 366 763 845 1098 1373
208 163 410 362 145 179 254 97 54 116 18 10 34 0 0 0 0 0 9 0 106 238 328 285 245 180 119 269 131 159 261 387 335 228 324 430 482 550 688 617 570 358 413 382 283 344 622 941 87
254 233 532 497 210 244 200 57 44 101 63 40 66 6 0 9 5 39 0 0 110 178 214 183 216 131 106 166 68 79 204 305 215 288 170 231 295 399 321 498 585 534 625 738 315 225 914 657 1
392 232 247 330 321 231 178 75 56 56 88 60 87 65 4 22 18 56 45 46 116 141 139 160 145 111 85 153 96 43 189 3 143 273 156 301 378 148 135 444 420 610 1091 812 462 636 515 382 217
366 153 124 176 162 90 51 105 189 91 74 90 65 92 29 1 21 51 74 96 113 109 114 108 310 140 101 113 49 46 44 2 130 160 217 397 362 203 189 86 228 433 581 612 688 580 679 397 506
6 118 94 226 205 92 21 147 120 57 62 87 55 61 31 0 7 45 138 87 76 82 59 72 115 141 176 133 17 44 8 61 166 242 319 306 296 310 236 57 470 806 611 643 693 579 372 597 332
0 12 67 138 259 127 31 25 62 58 68 79 56 40 9 17 43 93 216 95 77 41 0 5 69 111 115 64 0 18 24 72 110 318 333 334 466 545 700 448 532 544 745 606 902 975 767 767 760
0 0 12 184 176 72 59 17 55 35 47 40 34 8 0 35 60 105 198 187 74 4 0 0 72 18 17 17 15 65 116 160 215 217 589 521 627 964 745 678 560 415 307 713 530 507 1001 818 397
0 38 259 146 169 25 1 8 33 82 34 37 52 4 3 8 67 122 180 134 86 6 0 0 16 0 0 1 3 64 50 138 355 183 507 688 802 941 916 549 167 410 825 933 985 447 472 457 500
0 0 187 186 13 17 1 0 3 5 38 95 91 68 1 1 124 173 81 124 83 5 0 0 0 0 0 0 108 136 219 276 478 502 677 528 293 790 691 417 375 360 396 419 570 1052 745 815 729
0 0 143 111 8 0 0 0 0 0 71 82 55 22 10 20 160 144 99 101 79 18 0 0 0 0 0 0 173 246 173 210 170 310 527 667 630 898 1059 804 407 282 138 231 425 1152 308 836 1230
0 0 80 124 2 0 0 0 0 0 0 69 74 56 26 0 132 146 137 158 114 45 8 0 0 0 66 91 140 163 191 103 80 164 325 356 424 792 640 767 649 657 254 99 308 1142 1222 1418 1497
0 0 0 3 0 0 0 0 0 3 0 10 74 75 53 0 93 156 182 166 156 70 28 0 0 0 0 89 96 205 169 89 143 268 433 516 447 585 825 908 516 437 435 190 427 966 1126 1076 1052
0 0 0 37 21 0 0 0 0 14 41 35 127 72 36 1 12 139 133 116 143 83 71 40 0 0 0 99 171 169 213 131 87 222 340 411 405 534 601 892 532 376 384 325 105 801 983 1165 1172
0 0 0 1 1 0 0 0 0 84 78 148 169 108 61 0 17 118 91 61 60 86 150 165 43 0 0 5 155 158 84 85 97 125 298 376 362 460 480 717 842 615 502 166 32 484 912 890 1070
0 0 0 0 0 5 0 0 9 148 121 156 121 33 18 15 42 99 59 38 86 73 263 144 122 40 2 1 110 196 212 114 82 161 199 292 330 379 315 480 897 662 530 650 707 890 954 1207 1046
0 0 0 0 0 0 0 0 0 236 189 89 137 47 18 32 1 26 21 7 44 72 224 193 136 53 29 17 77 136 262 246 198 153 255 162 140 340 292 153 341 700 760 811 542 842 827 869 775
0 0 0 0 0 0 0 0 68 114 190 123 49 12 15 24 71 57 114 94 88 92 164 418 187 70 113 61 17 112 197 276 296 246 334 468 400 262 131 215 369 538 710 879 905 672 744 834 885
0 0 0 0 0 0 0 0 35 107 200 18 5 8 1 0 1 25 65 72 56 29 145 209 218 117 144 173 165 93 138 280 370 302 362 572 759 337 87 268 467 550 383 672 904 901 970 541 846

GFSSGP_con_sbcape_099.txt.gz
CAPE
0 0 0 5 25 48 132 198 103 0 0 0 0 0 10 280 98 0 23 364 652 855 1438 1601 2145 1780 1973 2121 1925 1696 1940 2059 2174 2120 2196 2149 2282 2207 2085 1994 2043 2002 1933 1591 1576 1662 1624 1770 1787
0 0 0 79 118 106 145 131 0 0 0 0 0 0 185 530 89 6 357 716 694 1035 1284 1466 1823 1559 1376 1404 1882 1698 1698 1956 2200 1965 2098 2149 2148 1895 2043 2163 2109 2416 2371 1943 1944 1888 1719 1501 1236
0 0 62 22 75 150 163 228 8 4 0 0 81 385 485 264 1 255 496 768 1017 1299 1447 1623 1477 1445 1208 1124 1250 1835 1623 1969 1877 2048 2172 2176 2113 2070 2120 2183 2193 2032 1947 1770 1872 1764 1659 1890 1947
0 34 110 30 24 54 222 264 25 0 7 401 170 423 267 127 220 488 684 814 1064 1278 822 1373 1209 1214 1548 1519 1539 1677 1734 2034 1884 1963 2092 2184 2128 2188 2173 2092 2182 2088 2106 1889 1817 1714 1726 1767 1759
16 39 89 1 9 98 201 189 0 0 36 397 336 125 66 576 695 601 689 713 976 639 843 1315 1841 1813 1790 1647 1552 1602 1894 1963 2097 1951 1946 1993 2197 1894 1828 2044 2073 2100 2159 1738 1917 1861 2032 2124 2340
103 54 30 23 9 145 239 293 29 36 226 142 116 21 237 618 551 641 614 841 492 486 978 1624 1844 1669 1592 1459 1713 1977 1881 1923 2046 2030 1996 1908 2016 2266 2100 2109 1833 2119 1929 1772 1979 1958 1915 1781 1938
35 57 7 71 71 93 206 318 166 175 167 38 7 9 291 206 515 629 720 536 463 1285 1362 1239 1416 1625 1539 1653 1496 1740 1898 1967 2200 2285 2081 2123 2053 2195 2053 2235 2021 2151 1819 1829 1998 1875 2008 2024 1748
26 138 96 92 86 74 203 216 114 72 63 0 0 12 56 70 443 712 513 465 615 991 1253 1420 1443 1360 1424 1318 1663 1870 1581 1766 2006 2014 2017 2023 2102 1989 2166 2449 2369 2045 1984 1927 2043 1991 2024 2102 2147
127 297 141 156 16 107 156 60 70 15 0 22 0 12 63 189 455 458 425 687 749 1189 1212 1310 1101 1342 1541 1390 1543 1618 1449 1762 1921 2062 1864 2270 2155 1681 1558 2262 1960 1865 1950 1922 1944 1727 1865 2187 2091
178 249 165 107 103 122 153 63 0 0 5 33 67 100 122 200 351 55 200 503 630 950 1105 1062 1012 1033 1099 1298 1732 1855 1509 1779 1925 1820 1988 1864 2215 2132 2175 2270 2357 2409 2093 1957 1830 1883 2058 1296 1581
225 140 94 62 53 164 83 16 0 0 0 0 91 88 100 120 0 0 0 402 479 694 829 1026 1076 1289 1065 1400 1355 1265 1171 1562 1555 1638 1587 1952 1859 2050 1765 1508 1410 1584 1556 1313 1205 1142 1270 1623 1696
163 145 104 18 40 106 58 30 0 0 10 0 18 76 57 0 0 0 0 112 449 596 786 827 833 1239 1262 1407 796 913 846 1007 1076 1379 1566 1658 1500 1526 1685 1523 1677 1403 1378 1542 1507 1629 1858 1937 1954
74 177 131 54 58 189 73 60 0 94 0 0 29 34 0 0 0 0 0 0 218 489 668 702 810 1059 1000 997 798 845 1047 1006 1099 1154 1355 1214 1284 1590 1601 1721 1516 1828 1653 1453 1478 1868 2049 1514 629
178 183 388 270 182 180 77 22 7 71 0 21 41 45 73 85 38 0 0 28 186 375 569 566 641 839 882 862 985 1108 1135 1158 1056 1075 1184 1353 1154 1720 1485 1620 1619 1838 1897 1796 1665 1954 1885 1258 1164
276 227 231 182 242 94 22 2 86 98 14 85 76 80 103 76 25 0 0 146 323 419 456 459 482 598 756 825 836 941 1150 925 1056 1131 1334 1289 1401 1514 1707 1670 1711 2159 2209 1930 1955 1850 1681 1355 1100
352 201 203 255 248 153 61 45 90 133 64 90 126 138 133 176 94 110 176 244 366 349 533 538 159 463 516 805 926 891 896 874 1157 1034 1171 1354 1503 1497 1444 1303 1670 1619 1828 1898 1984 1667 1712 1501 1447
92 174 156 391 240 187 3 26 160 157 114 138 155 164 162 222 244 307 305 434 450 526 665 682 713 852 883 1118 851 848 931 925 1004 779 1263 1430 1402 1212 1317 1153 1687 2102 1709 1942 1945 1562 1838 1924 1795
0 46 150 213 233 37 18 26 210 164 147 146 118 191 210 189 254 307 406 486 559 628 703 773 806 968 1171 1115 1042 962 736 1092 1234 1391 1359 1429 1348 1458 2145 1626 1888 1748 1854 1795 2146 2245 2120 1966 1878
0 0 159 397 188 133 104 149 180 146 136 109 154 188 188 179 191 292 422 475 551 586 620 730 829 1090 1084 1081 975 1091 940 1090 1268 1347 1539 1455 1726 1929 2231 1847 1882 1580 2067 2267 2024 1766 1999 1779 1975
0 122 241 295 217 146 115 130 212 191 164 91 137 150 163 111 179 197 365 425 526 568 567 693 862 1138 1131 1258 1161 1109 1167 911 1262 1392 1635 1773 1890 1963 2089 2186 1564 1850 2106 2443 2589 2496 1670 1848 1993
0 0 238 273 95 13 29 30 12 195 139 142 137 172 123 68 158 269 348 415 522 544 597 640 920 1161 1073 1110 1059 1134 1236 1260 1380 1427 1309 1882 1801 1830 2107 1879 1669 1989 1888 1660 2147 2350 2170 1887 1965
0 0 295 179 47 10 16 53 31 92 172 111 66 122 139 91 147 256 313 408 458 526 515 698 975 1067 868 933 1155 1499 1154 1477 1140 1495 1960 2215 1818 1697 1706 2067 1941 1897 1585 1803 1952 2152 2225 2312 1997
0 0 171 163 65 24 2 26 11 81 73 131 145 120 165 101 89 204 318 365 422 481 431 576 855 947 719 809 1234 1458 1357 1216 1319 1514 1958 2328 2033 2156 1757 2046 2059 2119 1583 1548 1787 2451 2560 2320 1936
0 17 90 24 26 1 0 0 88 47 94 47 78 97 166 137 93 203 318 328 461 425 321 409 743 846 968 821 1024 1486 1634 1489 1303 1482 1464 1555 1521 1839 2054 1988 2076 2068 1995 1681 1638 2466 2570 2376 2014
0 0 20 0 1 0 0 14 4 97 57 3 146 169 125 149 110 225 277 202 423 381 345 349 572 808 728 960 1002 1287 1422 1587 1589 1928 1449 1436 2468 1999 1776 2202 2373 1928 1952 1731 1652 2400 2351 2388 2102
0 0 15 23 2 0 24 58 81 95 248 101 46 255 200 148 76 212 314 231 459 421 412 440 502 705 568 769 1120 1366 1681 1201 1518 1644 1304 1364 1542 1382 1804 1879 2040 1937 1899 1618 1532 1591 1963 2119 1929
0 0 0 24 0 23 89 46 37 309 343 320 136 350 250 202 85 164 346 456 502 216 384 543 632 577 451 460 1000 1166 1188 1270 1293 1373 1417 1316 1575 1464 1533 1723 1688 2019 1888 1910 1831 1227 1987 2292 2349
0 0 0 0 11 9 0 59 49 507 479 583 530 342 263 216 110 204 163 166 214 240 309 417 599 610 490 432 774 902 1171 1277 1354 1409 1507 1470 1403 1492 1583 1503 1563 1851 1971 1986 1986 1880 2122 2172 2043
0 0 0 0 0 0 0 0 209 435 491 655 700 592 442 268 307 415 292 143 108 204 157 494 609 482 535 410 668 934 958 1374 1479 1390 1350 1622 1556 1621 1628 1528 1236 1260 1422 1772 2359 2279 1779 2074 2101
0 0 0 0 0 0 0 0 260 380 528 517 584 422 478 399 330 529 465 298 115 56 187 519 980 508 737 634 712 706 1076 1276 1414 1489 1501 1531 1433 1687 1645 1539 1713 1781 1674 1865 2103 2056 1908 2057 1902

GFSSGP_con_sbcape_102.txt.gz
CAPE
0 0 30 251 637 258 182 292 0 0 0 0 0 0 38 466 105 73 36 257 413 626 959 1398 1759 1771 2183 1967 1618 1922 2037 2256 2237 2183 2351 2234 2117 2111 2287 1773 1825 1921 1847 1832 1787 1797 1845 1678 1038
0 0 94 398 456 49 228 86 0 0 0 0 0 2 290 436 22 0 163 320 490 757 843 1183 1889 1553 1617 1958 1757 1857 1985 2176 2052 2211 2132 2170 1913 2078 2064 1698 1687 1901 1831 1632 1773 1765 1424 1675 1673
0 5 679 151 382 95 236 43 0 0 0 0 5 116 655 34 1 65 255 467 644 868 1144 1622 1491 1339 1144 1620 1933 1793 1931 1922 2100 2131 2211 1862 2061 2162 2232 2122 2099 1922 1913 1812 1808 1716 1860 1896 1842
6 350 492 70 179 293 274 13 0 0 0 143 306 500 62 0 149 218 452 659 964 1096 954 1075 1185 1186 1550 1264 1790 1880 2038 1737 1906 2146 2106 2085 2099 2177 2210 2173 2128 2032 1926 1856 1966 1891 1878 1870 2012
293 172 216 82 184 349 301 229 0 0 281 443 494 499 0 331 244 433 744 791 735 370 280 973 1700 1841 1844 1712 1676 1874 1897 2107 2208 2011 1885 2153 2040 2147 2137 1999 2104 2155 1960 1980 2009 1993 2236 2292 2400
132 163 79 136 150 400 474 75 0 10 591 521 377 25 282 432 457 683 541 389 119 203 929 1273 1713 1712 1648 1890 1769 1897 2001 2017 1890 2057 1951 1971 2234 2050 1951 2162 2242 1907 2022 2056 2004 2009 1937 1909 1499
102 43 22 135 278 489 484 34 20 150 332 377 183 30 416 347 619 596 547 139 63 373 948 1223 1513 1738 1691 1498 1949 1905 1966 1831 1933 1880 1985 2106 2087 1973 2010 2205 2157 1894 2075 2058 2010 2105 2126 1945 1769
106 387 32 197 374 291 412 368 377 359 386 169 57 77 355 428 549 645 361 59 624 695 754 988 941 1324 1178 1483 1830 1851 1892 1876 2132 1926 1973 1909 2093 2111 2020 2673 2420 1866 1985 2065 2007 1986 2210 2236 2312
63 547 447 318 294 513 432 317 264 217 187 94 113 11 295 501 533 424 34 138 358 649 831 674 950 1291 1380 1433 1744 1680 1834 2025 1956 1931 1829 1986 1458 1300 1664 2106 2036 2075 1933 1887 1704 1733 2046 2110 2277
360 577 370 388 147 505 306 313 182 216 237 140 39 110 244 431 446 12 20 155 411 594 595 629 791 869 1011 883 1501 1513 1390 1672 1633 1837 1251 969 1317 1712 1584 2040 2238 2202 1919 2020 1851 2100 1926 1435 1454
383 419 427 101 124 437 313 196 120 127 208 260 226 210 247 246 38 0 6 170 350 486 496 509 701 615 607 866 859 859 1253 1484 1853 1549 1084 1255 1338 1365 1110 1497 1669 1462 1608 1472 1515 1597 1512 1927 1762
317 435 132 82 220 329 281 112 26 4 47 125 117 95 59 24 0 0 29 200 303 427 354 283 395 645 614 674 388 495 1089 1112 1090 1279 1694 1751 1460 1461 1402 1468 1634 1576 1453 1780 1800 1700 2014 1745 1709
248 445 41 62 204 256 172 75 62 42 18 28 2 0 0 0 0 0 1 166 312 247 191 193 457 935 1144 819 360 522 802 1080 991 1111 1555 1473 1461 1789 1630 1804 1813 1767 1564 1550 1743 1924 1757 1387 1295
190 299 81 62 215 293 223 100 22 16 14 0 0 0 0 0 0 0 0 118 472 163 134 213 490 963 1064 1009 978 934 920 1091 859 1014 1466 1568 1462 1828 1632 1748 1670 1757 1643 1726 1880 2234 1398 1158 1075
255 472 321 183 487 81 139 130 138 0 0 0 2 2 0 0 0 0 21 80 282 139 141 404 632 991 1057 1153 1108 821 917 842 778 1017 1560 1680 1649 2082 1885 1787 1622 1898 2301 2387 2175 1758 1501 1071 1055
403 507 451 248 392 105 52 219 212 25 5 43 54 23 68 79 55 73 70 82 194 51 229 436 311 635 736 887 1126 920 804 787 855 1157 1462 1708 1964 2028 1809 1505 1549 1966 1905 1793 1561 1392 1114 1310 1226
534 523 243 382 222 74 0 126 79 162 41 93 175 155 163 232 184 232 184 212 213 244 356 377 412 369 799 1361 1069 1077 1390 1170 1172 1161 1400 1947 1793 1706 1616 1626 2066 2118 1710 1687 1327 1352 1360 1239 1210
298 189 233 259 131 6 3 35 67 209 121 121 209 220 174 216 319 454 347 325 284 432 466 527 498 843 1076 1250 1194 1046 1167 1342 1267 1259 1415 1750 1554 1741 1592 1760 2068 1928 1668 1647 1816 2479 1742 1139 1128
17 123 195 200 31 0 1 46 97 145 248 208 215 223 295 269 276 460 536 419 440 511 677 773 838 1308 1206 1016 834 982 859 1186 1265 1340 1732 1970 1820 1682 1748 1676 1969 1809 1808 2376 2120 1635 1699 1057 1391
177 293 436 221 173 187 94 98 124 95 124 161 172 224 215 221 286 388 564 562 445 603 719 1055 1097 1610 1513 1283 1248 988 832 886 990 1151 1660 1690 1807 1540 1711 2015 1667 1956 1863 2434 2658 2524 1315 1362 2133
0 106 321 344 205 147 3 3 148 102 107 122 137 191 227 269 214 362 529 635 642 559 764 1023 1295 1418 1677 1432 1759 1764 1625 1419 1454 1431 1214 1606 1709 1571 1602 1914 1863 2132 1777 1667 2129 2086 2669 1305 1997
4 19 141 399 230 103 117 50 11 225 264 56 12 141 266 298 359 287 421 671 715 740 694 880 1274 1303 1715 1983 1409 1540 1282 1544 1200 1481 1206 1194 1135 1378 1396 1875 1931 2174 1630 1994 1945 2024 2389 2662 1535
0 0 3 86 78 106 204 88 86 122 431 411 58 132 169 223 257 388 434 534 692 805 879 891 1375 1372 1115 1909 1522 1992 1027 916 1127 1287 1513 1218 1318 1462 1583 1644 2262 2289 1799 1933 1987 2167 2144 2010 1721
0 73 31 0 0 69 61 91 254 180 222 429 262 298 174 178 246 301 432 527 619 829 854 839 1488 1853 1508 1657 1688 1427 1104 1183 1145 1266 1231 969 1338 1065 1096 1223 1558 2072 1960 2205 1634 1836 1719 2750 2219
0 7 26 44 46 93 81 81 134 360 325 530 506 252 197 173 348 253 493 719 725 849 927 828 1302 1694 1673 1498 1379 1472 1082 1033 1270 1270 811 1408 1303 1147 1253 1463 1517 1523 1802 2018 1669 2390 1779 2027 2205
0 0 3 68 72 63 132 113 248 275 308 268 504 474 333 230 388 336 455 766 880 860 1010 831 1113 1465 1476 1318 1479 1620 1175 661 545 791 1371 884 1445 1128 1790 1366 1510 1641 1470 1939 2140 1971 1608 1686 1466
0 11 0 1 56 59 160 83 262 244 415 367 287 239 468 280 292 353 513 800 825 878 1076 999 1020 1321 1323 1109 1383 1278 929 934 1043 1013 1248 1239 1165 1682 1772 1786 1545 1707 1641 1933 2027 1508 2010 2211 2226
0 0 13 40 61 63 157 119 176 548 564 556 316 456 494 313 158 293 479 740 614 746 1023 889 1102 1303 1092 961 1065 1019 966 952 644 903 761 1164 1784 1843 2003 2047 1893 1519 1548 1465 1792 1484 1661 2143 1652
0 0 0 4 12 21 79 72 503 563 767 803 574 625 665 535 471 313 401 742 917 985 829 508 1101 1240 1130 935 815 871 928 742 1048 947 793 1097 956 1592 1799 2228 2115 1847 1679 1782 2204 2024 1577 1884 1538
2 0 0 0 0 2 44 194 638 857 978 996 1030 727 640 475 623 688 448 480 834 858 587 545 812 776 1063 927 1074 925 520 819 673 1037 853 1190 1079 1472 1404 1674 2286 1790 1291 1585 2038 1725 1211 1652 1328

GFSSGP_con_sbcape_105.txt.gz
CAPE
4 1 189 545 1129 774 197 11 2 0 7 10 11 53 340 372 195 181 173 426 546 632 681 1553 1763 1950 1670 1582 1798 1987 2308 2255 2241 2245 2226 2013 2034 1828 1820 1671 1770 1838 1791 1841 1699 1521 1036 874 1439
50 8 451 812 1133 179 68 0 0 0 0 0 0 150 221 95 15 120 383 505 547 470 743 1128 2068 1982 1987 1764 1945 2003 2112 2045 2218 2220 2150 2085 2100 1935 2141 1651 1882 1768 1915 1855 1509 1599 1797 1693 1335
136 68 879 338 875 139 61 3 0 0 0 8 9 269 46 0 30 138 377 413 851 1085 1357 1549 1453 1287 1745 1877 1745 1937 1956 2005 2123 2069 1955 2200 2211 2102 1985 1814 1863 1801 1648 1646 1852 1878 1840 1776 1383
139 634 570 228 301 110 41 1 0 0 0 168 415 0 0 84 126 240 307 623 917 1006 942 1226 1026 1159 1061 1908 1913 1988 1794 1993 2178 1914 2150 2066 2103 2160 2240 2073 1958 2033 2013 2036 2011 1969 1997 2134 1597
286 134 271 133 124 49 39 1 0 0 252 451 75 0 44 123 158 325 504 586 801 567 159 824 1837 1893 1709 1638 1904 1893 2154 2182 2029 1947 2023 2163 2096 2286 2270 2138 2059 2072 2093 2055 2044 2214 2164 2058 1393
184 190 21 175 195 92 225 11 0 107 357 600 28 68 154 133 322 486 619 602 179 198 703 1280 1839 1815 1821 1627 1916 2063 2014 1824 1951 2068 1997 2152 2194 2422 2254 2274 2014 2168 2108 2043 2018 1982 1875 1404 1194
57 109 145 145 413 395 104 13 33 419 423 189 2 117 118 330 329 182 138 41 219 725 835 1031 1504 1674 1719 2032 1893 2026 2045 1833 2212 2095 2252 2084 2128 2051 2307 2040 2070 2240 2083 2092 2142 2139 2091 1980 1842
170 256 368 255 383 338 98 50 53 195 219 231 47 139 221 351 154 181 27 64 361 424 849 979 1012 1057 1525 1455 1928 2004 2095 2051 1975 2006 2059 2216 2274 2183 2428 2442 2054 2099 2086 2043 2020 2206 2251 2375 1957
81 412 578 237 319 449 254 349 339 321 345 243 290 84 320 187 140 85 21 493 463 496 663 743 708 1462 2086 1472 1803 1867 2047 2298 2127 1865 1985 2538 1823 1606 1993 2279 2056 1965 1933 1803 1672 1830 2232 2321 2333
656 591 488 444 383 615 512 397 390 269 243 223 161 196 162 232 70 27 80 172 255 486 505 614 752 814 1294 714 1887 1420 1478 1874 1934 1780 1894 2441 1647 1285 1118 1764 1940 1722 1754 1689 1719 1962 2084 2392 2470
673 615 395 507 479 249 302 338 131 137 109 162 340 302 240 98 36 33 80 168 205 286 324 420 975 1108 757 776 778 964 1610 1546 1556 1119 923 1172 1120 1340 1052 1727 1764 1732 2217 1733 1992 2057 1977 964 1513
388 652 342 390 370 232 258 245 82 74 125 212 234 108 59 41 10 25 84 167 236 150 205 227 243 1074 443 353 501 727 1155 1333 813 1152 1495 1856 1705 1634 3042 1329 1303 2573 1261 1549 2028 1274 1586 1378 1167
439 447 111 96 289 383 211 82 78 57 123 137 100 38 13 9 4 32 81 142 170 155 170 176 356 1952 1278 487 242 987 1006 1399 894 1589 1777 2371 2166 1638 1997 2336 1993 1773 2291 1145 1345 1236 1196 1340 1128
316 453 362 320 585 274 172 62 11 3 89 89 40 7 0 5 5 24 60 68 109 122 129 203 907 1169 1183 605 706 663 925 919 1228 1428 1435 1829 1788 2489 1543 2285 1413 1732 2137 1443 1677 1803 970 942 750
455 365 251 139 355 285 263 91 32 8 14 4 10 3 6 4 4 8 44 130 245 124 149 414 637 617 581 661 763 1212 748 920 1188 1325 1603 1641 1935 2037 1838 1323 1813 2053 1745 2217 1720 1382 1298 784 761
572 211 249 132 386 230 404 129 20 29 23 3 8 11 9 17 12 12 16 51 165 150 253 298 431 361 428 775 1197 1265 1358 1045 1416 1016 1416 1785 2137 1860 2337 1919 1311 1336 1816 1496 1012 1175 715 872 1033
215 351 147 290 139 112 110 217 136 29 29 31 36 38 53 61 65 49 41 70 116 215 345 305 654 410 736 937 1463 1377 1495 1622 1106 1109 1798 1841 1874 1919 3264 2589 1889 2718 1616 1219 2029 545 2018 863 985
48 114 251 204 12 13 26 81 261 55 65 54 60 76 66 81 86 131 102 70 164 304 372 357 299 633 1879 1668 1565 1296 1694 1547 964 1622 1894 1773 1750 1782 2224 2010 1738 2882 2065 1472 1535 2880 1271 1284 1110
182 87 236 127 12 4 38 98 73 225 256 113 107 66 81 72 120 169 144 94 198 352 382 362 553 1048 1138 708 881 1322 1975 2055 2354 1930 1704 1712 1738 1844 2077 2419 1924 2468 2975 2416 2008 2032 1742 912 869
54 363 175 104 40 32 74 94 25 71 306 267 128 72 129 126 195 264 335 210 151 341 352 427 978 1154 1554 927 2982 2467 1425 1280 1430 1567 1593 2023 1623 1837 1672 2589 2198 2203 1881 2159 2554 2608 2148 910 839
104 181 107 61 124 98 79 31 82 66 99 230 262 156 176 171 112 311 386 331 315 356 505 691 1017 1290 1524 1745 2216 1771 1722 1937 837 1232 1437 1552 1605 1641 1989 2015 2534 1871 2621 2215 2610 1947 2435 1155 1009
35 296 178 19 170 25 54 18 17 95 128 105 89 161 170 142 124 242 342 411 260 453 465 982 1214 1498 1494 1778 2087 1886 1512 910 1825 1646 1758 1459 1481 1481 1618 1811 1961 2309 2950 3148 2391 2178 3518 3284 975
27 30 184 149 163 21 81 44 22 218 169 79 42 80 223 117 121 82 266 266 246 490 529 733 1442 1846 1691 1826 1588 1646 1758 1120 542 1551 2253 1966 1836 1402 1438 1754 1980 2085 2120 1987 2521 2075 2898 2336 2545
22 78 147 200 134 96 153 173 39 65 280 132 24 11 39 185 217 200 210 356 276 461 425 671 1298 2077 1411 1736 1674 1888 1879 2063 1491 1704 1749 1524 1282 1483 1405 1516 1798 1872 2476 1928 1726 2087 2099 2850 3643
121 264 186 119 98 100 107 126 233 173 159 347 257 21 7 159 124 219 145 329 648 732 790 514 1262 1575 1414 1617 1248 1399 1340 1261 1385 1193 1339 928 1161 840 1456 1622 1658 1595 1973 2244 1899 2137 2510 1917 2307
28 130 264 167 178 151 234 122 287 343 316 589 590 150 16 116 320 207 316 476 656 611 676 543 1230 1498 1520 1415 1474 1465 1327 970 707 1020 1994 1630 1179 1225 2077 1673 1498 1493 1883 1857 2183 1919 1397 2713 1726
16 79 112 196 12 74 148 307 303 450 349 402 632 626 238 298 64 138 265 605 639 696 766 1054 1252 1433 1372 1293 1536 1537 1296 1160 1412 426 1618 1777 1314 2120 1981 1380 1495 1533 1532 1784 2062 1784 2094 2298 2166
2 32 50 37 34 109 74 208 310 345 415 403 507 692 747 493 227 253 276 366 425 675 782 1084 1125 1213 1169 999 1030 1142 1088 1058 1063 1213 1216 454 1054 1233 2076 1596 1716 1811 1824 1914 2029 2296 2317 1920 1846
0 0 2 52 35 51 94 213 422 621 646 755 700 544 787 497 358 249 444 335 644 852 789 970 935 1615 1172 1055 950 833 661 586 781 599 708 974 948 1148 1403 1665 1708 1590 1898 1903 1978 2823 1968 1989 1772
2 0 0 13 27 22 52 443 683 632 595 721 645 579 879 665 475 242 289 579 1369 1304 1268 1254 1698 1262 1299 1194 1295 1124 955 689 523 649 647 1079 1234 1390 1430 1794 1654 1367 1691 1785 1978 2284 1278 1416 1507

GFSSGP_con_sbcape_108.txt.gz
CAPE
135 0 107 335 640 938 67 54 17 18 42 18 211 266 153 81 157 164 162 534 752 541 1034 1430 2188 1542 1774 1782 1999 2109 2149 2205 2110 2117 2419 2372 2253 1734 1775 1846 1805 1885 1759 1651 1262 969 1118 1684 1527
53 124 340 961 992 75 30 14 21 13 0 108 343 121 31 37 64 233 248 352 414 426 777 1205 2350 2295 1634 2023 1912 1908 2023 2179 2124 2137 2043 1945 2458 2506 2386 1878 1919 2214 2295 1662 1892 1778 1379 1228 1495
2 240 940 656 525 120 9 5 2 0 0 248 108 79 14 68 113 288 426 379 641 786 970 1625 1979 2190 1811 1768 1905 1958 1918 2120 1970 1971 2204 2138 2308 1806 1761 1711 1595 1589 1822 1823 1937 1975 1457 1340 1474
80 477 776 116 156 31 0 5 0 0 118 33 0 1 0 72 89 282 574 773 1070 1267 1029 1420 1410 1404 2015 1706 1867 1770 2007 1941 1978 2415 2387 2549 2407 2066 1973 1926 1904 1981 1941 1936 2054 2118 1789 1385 1279
88 118 64 134 154 10 8 0 0 67 357 1 0 3 48 74 375 641 707 825 740 373 202 1088 2107 1521 1802 1844 1954 1977 2049 2011 2462 2686 2653 2562 2244 2202 2064 2049 1957 2040 2010 2118 1964 2104 1434 1217 1030
113 151 43 127 55 21 6 0 35 207 501 136 1 5 29 223 369 301 375 416 90 201 842 1336 1998 1880 1843 1972 2106 1854 1867 2313 2860 2465 2140 2186 2504 2282 2292 2071 2220 1982 2049 2044 1921 1732 1391 1140 1142
53 91 26 162 55 209 10 9 121 309 103 20 3 3 34 181 94 260 386 413 401 594 782 1233 1398 1814 1967 1973 2109 2253 2431 2267 2141 2708 2582 2950 2505 2315 2280 2479 2371 2045 2071 2090 2090 2031 1907 1825 1364
192 120 276 154 159 77 6 74 205 290 101 43 10 8 150 93 242 80 469 219 348 674 1067 972 1352 1282 1344 1544 2036 1903 2394 2160 2025 2569 2552 2772 2550 2382 1997 2561 2572 2082 2044 2045 2153 2263 2320 2164 1921
94 340 408 143 120 35 44 344 209 281 203 51 101 53 49 66 52 16 363 489 687 707 745 865 1128 1489 2154 1960 1954 2112 2055 2187 2197 1926 2527 2206 1799 1682 1759 2460 2148 2078 2005 1892 2207 2380 2462 2401 2205
528 308 368 489 126 47 67 258 318 165 141 141 47 25 22 64 27 22 87 307 220 660 559 587 1010 1050 1260 989 1967 2207 2003 1659 1693 1835 1453 2605 1954 1776 977 1959 2270 1971 1839 2129 2627 2805 2486 2447 2263
209 153 189 464 271 146 204 207 165 77 242 129 169 0 35 48 26 47 351 384 347 204 393 329 1325 1182 1087 1744 1712 1670 1800 1885 1460 2362 867 2279 1248 1264 1301 1841 1624 1948 2447 1472 2020 2350 2077 2041 2105
186 371 101 272 251 298 77 48 74 58 108 126 139 0 15 31 14 57 104 47 220 364 370 291 186 1314 295 1332 1014 1526 1694 1454 1342 1746 3006 3100 1544 2329 1051 1275 1059 2732 2123 255 1108 2097 2127 1833 1049
239 430 213 223 446 207 74 31 99 92 220 130 144 18 0 28 24 65 67 113 38 260 395 654 1420 1944 1768 1072 832 1287 1350 1631 1451 947 1586 2714 1210 1611 1427 0 803 2373 1781 2045 2466 2599 1962 2059 1663
261 394 307 230 298 246 88 56 32 77 75 21 40 25 17 12 26 72 67 71 98 201 642 844 962 1497 1594 2513 2421 1036 1415 1706 1568 995 573 649 2566 2110 1866 1536 1872 1031 2904 2701 1506 2086 2070 1928 1158
499 530 279 438 546 537 222 60 33 20 53 41 41 21 24 10 34 50 45 47 55 179 866 711 898 740 1480 1825 2007 694 1240 1511 2043 1846 359 636 2799 3187 1798 1490 2155 2877 2741 2692 3004 2908 1812 1806 1578
518 329 209 65 251 286 309 99 28 30 52 34 32 15 26 20 21 35 36 82 84 183 901 807 245 511 784 1483 1650 1594 833 1269 851 1670 2312 2781 2627 2856 2564 2353 1388 2427 3389 3152 2812 3037 2294 1151 2271
336 96 230 121 61 103 234 131 43 47 53 29 15 19 21 38 28 23 39 145 213 418 556 523 874 374 1094 2366 1715 1088 2365 1480 2141 2174 2403 2737 2556 2320 1685 2487 2734 3330 2425 1255 1645 1870 2080 1995 1470
135 6 40 136 80 74 130 100 34 55 47 34 15 24 34 49 48 33 36 91 332 522 593 142 819 1024 1942 1498 2960 2526 1476 1969 1933 2181 1623 2692 2462 2175 2916 2626 3213 2190 2126 1586 2347 2969 2336 3262 1091
30 10 82 26 19 62 84 40 156 175 84 74 53 39 57 58 69 40 93 53 148 486 603 565 1311 1904 1029 1547 471 2293 649 2040 1783 1644 2742 3113 2853 2312 2915 3277 2746 881 864 3582 3521 3561 3255 3094 2662
164 157 122 60 114 65 70 91 67 83 168 119 144 77 64 63 79 83 56 76 44 547 809 1474 1189 1766 2076 1655 1305 1974 1884 1737 1964 2270 2792 2008 2492 2594 2799 2927 2055 1655 2779 3445 3727 3977 3816 2609 2119
31 94 63 54 105 85 79 15 62 49 41 38 163 201 98 141 61 112 193 44 126 509 904 1313 1703 1973 2321 1861 1590 2525 1230 2656 1690 1593 2388 2105 2253 2588 1247 2860 2028 2710 2965 3122 3808 3929 3532 3149 2256
217 179 99 30 134 52 41 46 3 5 27 37 96 136 113 80 156 166 155 97 153 533 608 1700 1956 1930 1773 1358 1844 828 2120 1471 1881 2512 2047 2682 2590 2368 2402 2515 2727 2965 912 1377 3767 3210 3635 3393 3311
125 260 157 204 111 39 59 35 119 36 11 2 33 58 76 26 79 138 65 264 222 222 599 1323 2106 2023 2339 1014 2631 2036 2200 529 652 787 1166 2639 2962 2418 2134 2979 2682 3097 2634 2569 3518 3187 3702 3483 3679
176 258 88 23 86 193 120 106 3 46 29 0 2 0 26 133 79 127 112 129 475 199 536 1396 2151 2141 2151 1960 1665 1948 952 431 968 431 673 2042 1908 2285 2917 2076 2873 3161 3045 2090 2647 3688 3367 3345 4128
53 189 207 233 294 140 113 127 79 70 58 20 0 4 30 88 76 99 185 304 254 184 494 1232 1889 1840 2187 2124 1775 2079 2329 1153 339 676 760 108 1089 1082 2963 3486 2776 2711 2693 2814 2827 3270 3208 3309 3139
1 79 120 52 119 48 7 97 210 80 88 65 45 19 10 15 18 210 150 220 304 437 191 1267 2018 1816 1824 2034 2409 2457 1847 2052 1349 845 662 0 164 348 1904 2817 2810 2937 2882 3080 2853 3093 2763 2972 3094
7 38 60 65 3 51 107 64 179 89 142 187 193 96 22 57 0 95 153 148 148 826 542 445 1970 2199 2009 1889 2180 2481 2523 1712 2618 1314 582 107 322 470 977 2140 2764 2758 2330 2942 2711 2885 2468 1806 922
9 9 23 11 113 126 32 3 153 471 478 773 431 240 153 28 43 262 174 85 116 481 533 253 757 1835 1877 1768 1849 1775 1980 2112 2458 953 269 32 40 351 40 271 2536 2645 2199 2202 2931 2159 1748 2141 2372
0 0 0 7 13 15 21 41 268 310 597 564 973 433 249 59 47 451 393 382 42 80 176 590 1425 1787 1614 1627 1608 1895 1522 1729 1894 1957 1421 0 225 718 13 1524 2394 2266 2147 2091 2576 2507 2614 2030 2749
0 0 2 0 1 2 15 222 233 228 199 309 464 666 274 262 534 382 432 691 362 322 776 401 1255 1474 1321 1034 1791 1946 1604 1346 1451 1929 1563 2329 2368 2868 2261 2490 2630 2679 2523 2580 2703 2296 1986 1517 1932

GFSSGP_con_sbcape_111.txt.gz
CAPE
137 52 2 387 472 591 48 35 81 102 136 64 10 34 41 70 55 35 112 321 385 784 1027 1285 2319 2073 2037 2066 2331 2206 2150 2024 1903 2497 2580 1813 1864 1989 2065 1836 1790 1692 1752 654 943 1636 1547 1516 1569
0 9 37 769 363 104 14 17 7 166 94 4 24 37 37 49 71 169 365 380 701 928 1074 1668 2165 2311 2036 2121 2042 2005 2114 2091 1955 2099 2662 2062 2134 2233 2248 1711 1484 1503 1935 1931 1569 1103 1288 1426 1516
0 71 416 404 172 88 1 2 0 49 97 11 21 35 88 80 110 208 374 292 564 759 1216 1675 2493 2352 2165 1991 1868 2096 2072 1999 2092 2134 2404 2213 1741 1605 1572 1611 1881 1980 1937 1876 1696 1197 1315 1370 1454
0 230 110 11 119 251 3 0 0 14 1 0 0 0 111 157 192 506 868 653 727 1003 1329 2116 2205 1759 1760 1858 1979 1994 1964 1968 2140 2171 2220 2009 2031 2006 2019 1982 1899 1843 1929 1913 2002 1252 1130 1015 954
0 17 3 22 111 6 0 0 26 5 10 1 0 89 286 286 265 201 375 739 493 540 726 1017 2123 2164 1942 1940 2068 2149 2017 2080 2141 2197 2160 2161 1980 1954 2037 1986 2167 2087 1908 1894 2005 1151 1088 906 889
4 17 33 70 81 6 0 56 25 9 9 2 0 156 214 360 470 566 569 51 49 553 1156 1055 1925 2026 2277 1879 1971 2088 2126 2186 2260 2333 2358 2278 2077 1936 2550 1946 1826 1810 1838 1748 1465 1212 1005 909 902
91 0 0 99 110 2 50 157 138 15 8 0 0 104 125 87 157 189 81 53 647 905 1129 1360 1266 1450 1940 2394 1854 2032 2254 2148 2047 2363 2293 2206 2092 2011 2177 1920 1981 2042 2059 1997 1786 1553 1351 1141 799
59 20 126 233 210 30 92 177 19 0 0 0 4 41 0 90 50 87 119 255 451 799 997 1020 1185 1451 1516 1758 1970 1989 1980 2155 2303 2279 2280 2656 2239 1989 2116 2689 2571 2111 2161 2132 2089 1975 1921 1649 1282
140 87 133 130 146 53 202 243 515 95 12 5 16 1 0 72 74 44 21 150 496 701 686 826 1039 1055 1191 1519 1685 1864 1937 1928 2212 2135 2145 2590 1728 1551 1803 2122 2440 2080 2015 2115 2129 2178 2174 2211 2184
214 123 152 293 360 241 235 267 71 91 65 40 10 0 14 78 156 249 345 370 242 319 706 675 965 1134 1149 1204 1573 1607 1652 1130 886 336 858 1271 1307 979 1411 1942 2164 1967 1858 1809 1944 1683 1904 2451 1917
348 82 29 1 201 245 275 301 144 136 47 43 0 0 2 11 35 50 63 262 162 215 476 464 652 836 561 1032 1259 1386 1267 1249 311 0 0 899 688 497 100 1060 1382 1476 1614 90 779 30 428 1195 1742
216 125 39 0 72 48 345 399 129 138 23 13 11 0 1 0 27 52 32 45 49 155 213 406 654 379 781 1046 1149 913 1189 1029 857 593 989 1073 85 0 0 408 740 760 184 0 530 542 451 1236 1343
268 6 2 23 1 41 336 219 148 146 42 9 0 8 0 0 14 49 54 60 1 92 50 109 424 397 125 421 997 919 945 869 292 533 485 505 215 169 85 0 441 0 621 657 523 758 928 1003 765
361 153 50 93 204 498 179 83 192 169 68 22 5 0 8 2 31 17 4 17 0 156 260 604 597 814 1187 723 821 784 772 543 145 127 290 268 444 449 156 0 442 206 679 731 647 939 1330 1177 436
291 406 332 365 540 311 446 91 94 74 55 5 0 0 6 2 21 22 1 0 151 267 315 304 243 409 959 456 348 84 491 756 190 0 0 0 237 1168 487 858 738 705 1300 1277 1590 1467 1642 406 621
539 273 146 218 503 92 305 126 48 42 13 4 0 4 5 5 24 28 8 4 127 78 16 95 99 257 222 703 715 471 629 849 686 27 1 3 1237 1728 1294 1569 1150 1108 1186 1025 1251 1480 1462 658 573
61 53 0 19 133 12 115 45 58 69 23 13 0 10 5 19 29 27 11 0 84 49 68 105 64 50 196 491 976 515 428 270 678 1077 1455 1358 1240 1898 796 1021 1532 1422 1490 1078 635 1087 761 694 682
85 15 1 11 68 87 125 122 138 48 27 29 1 7 7 12 3 17 26 9 0 170 93 95 79 0 568 636 1424 886 841 1051 1474 1264 1206 1470 936 1632 1691 1975 195 0 134 1612 2301 1902 1804 1855 1105
51 23 73 34 78 74 70 119 150 104 68 24 9 9 14 4 0 0 23 10 0 0 90 292 158 771 319 448 296 398 566 656 1131 979 1268 1222 1205 1298 1767 1683 0 0 232 781 2170 2092 2002 2226 1472
159 46 4 49 22 27 26 47 63 82 79 108 113 12 24 24 0 1 11 7 0 0 0 377 477 542 58 574 524 857 704 1055 1210 1285 1384 1194 1599 1309 1505 1397 460 335 1005 1931 2050 2385 2584 1842 844
130 83 22 21 1 24 72 22 2 57 47 52 56 123 60 30 11 2 7 4 0 39 226 310 565 253 837 792 932 735 333 1136 892 776 1179 1288 1484 1277 1078 1507 949 830 908 849 2020 2451 2283 2495 1938
190 124 82 38 0 0 37 40 0 4 11 26 39 34 63 75 33 17 6 0 21 131 350 210 452 455 743 674 709 538 450 399 504 479 942 1029 1380 1387 1119 1376 1555 1073 918 1067 1779 1790 2196 2348 2321
125 23 150 32 3 28 15 50 6 0 1 0 4 5 59 40 30 39 7 0 45 194 205 451 517 565 591 415 997 415 310 230 367 495 400 484 1521 1422 1304 1118 1165 1536 1366 1160 1585 2171 1836 2079 2347
298 307 130 77 29 12 9 34 1 3 0 0 0 0 31 32 33 37 29 37 37 73 251 537 588 559 629 107 807 534 276 98 145 228 303 255 413 840 993 1479 1579 1172 1317 1301 1444 1738 1370 2034 1798
164 76 2 62 63 61 3 32 63 13 10 0 0 0 0 16 28 33 30 34 65 78 202 857 682 534 712 569 702 553 565 169 120 6 169 90 9 328 214 636 1141 1219 1141 1232 1496 1441 1168 1763 1500
199 177 116 17 47 73 92 63 44 11 36 4 0 0 5 50 54 36 41 38 86 96 390 671 741 743 687 568 636 537 644 437 208 234 259 0 0 57 231 346 1082 1012 1336 1236 1571 1169 1680 1080 1084
0 103 34 24 7 1 62 15 227 75 71 66 8 0 0 4 35 69 55 111 86 93 580 961 774 575 917 887 970 663 576 300 315 288 134 6 0 2 225 365 750 1093 1341 1155 1297 1385 1060 1078 456
27 12 0 2 78 48 52 22 166 94 55 53 58 0 0 0 0 21 51 70 178 120 377 1136 1036 664 637 1059 869 835 831 627 182 91 34 0 0 0 153 372 284 1023 863 647 1158 961 563 1087 930
0 0 0 0 0 13 130 31 79 0 50 15 37 65 1 0 0 0 24 78 60 144 409 710 970 1178 906 961 793 960 1024 757 173 338 119 0 0 11 55 105 180 1033 678 1024 1109 1009 796 1103 987
0 0 0 0 0 0 9 41 12 9 110 56 2 14 31 12 0 0 75 80 151 244 226 393 272 820 883 841 752 823 809 810 787 591 122 0 0 40 119 10 888 898 883 1040 657 844 1449 918 823

GFSSGP_con_sbcape_114.txt.gz
CAPE
159 132 68 252 213 298 12 66 80 108 52 41 55 70 19 53 5 1 5 81 103 584 960 1598 2394 2187 2247 2244 2207 2089 2007 1956 2050 1739 1823 1810 1952 1953 1899 1954 1930 1302 1135 1763 1757 1378 1684 1594 1400
0 55 135 318 130 0 33 69 63 32 49 28 61 74 73 124 176 146 127 314 787 862 896 1537 2374 2312 2180 2198 2321 2153 2007 2027 2083 1711 1927 2023 2018 1916 1798 1721 1178 1541 1594 1256 1306 1528 1606 1597 1507
0 210 357 75 98 54 0 119 11 0 43 74 71 87 84 185 207 247 255 684 810 1032 1414 1449 2279 2444 2000 2149 2163 2142 1904 1983 2082 2025 1838 1702 1797 1998 2027 1839 1931 1726 1397 1115 1208 1415 1479 1603 1366
0 163 31 55 77 260 3 34 16 25 48 104 130 142 125 139 249 291 516 709 819 1253 1292 2151 2087 2104 1929 2076 2040 2083 2010 2138 2041 2102 1865 1821 1650 1612 1651 1810 1864 1834 1797 1882 1149 1262 1262 1174 1276
0 41 11 53 116 32 20 11 2 0 84 171 115 146 193 435 318 241 476 872 1151 1196 1453 1934 2399 2081 1949 2083 2126 2040 2071 2225 2231 2185 2046 1973 2018 2139 2154 1983 1958 1968 2112 2044 1161 1095 910 966 1269
46 0 31 46 57 19 25 0 10 49 143 252 159 131 165 242 458 656 685 767 766 725 915 1551 2192 2087 2102 2131 2121 2190 2203 2331 2317 2129 2064 1918 1945 2107 2024 1879 1914 1762 1767 1590 1164 1074 896 904 965
20 0 2 61 135 63 16 0 9 60 65 82 70 138 128 121 117 344 161 173 644 998 959 1228 1568 1728 2119 2084 2245 2243 2187 2391 2126 2241 2166 2229 2124 2067 1914 1938 1957 1879 1758 1603 1361 1135 948 867 786
71 8 29 134 146 113 218 76 8 40 42 74 76 126 48 142 446 14 75 705 960 1138 1264 1045 1159 1534 1564 1752 2129 2187 2110 2255 2346 2312 2289 2134 2212 2131 2081 2545 2371 1980 1920 1818 1745 1748 1875 1883 1556
164 116 106 172 230 138 116 40 85 35 67 29 69 53 80 98 35 57 365 416 820 945 980 984 1178 1225 1318 1477 1766 2026 2303 2306 2506 2415 2420 2280 1290 1618 1616 1999 2119 2006 2030 2062 2085 2235 2180 1973 1986
162 116 95 112 127 185 55 190 42 2 9 27 3 63 84 34 31 174 279 381 587 641 771 792 968 952 1327 1685 1461 1309 1520 1464 1411 1417 1517 994 856 1091 1443 1715 2056 2008 1844 1821 2029 2213 2143 2725 1986
168 53 1 1 26 98 121 37 49 16 41 1 3 45 46 4 5 171 287 387 357 486 678 643 903 839 766 1388 1223 1229 886 672 41 39 400 922 548 59 28 632 661 709 1436 0 405 700 329 871 1240
69 0 5 2 0 28 105 157 89 83 36 3 4 49 60 103 215 224 172 139 139 404 566 633 627 682 479 980 1033 949 1009 511 233 188 389 515 0 0 0 296 164 243 412 20 9 226 110 504 950
10 19 2 2 0 27 72 463 177 101 29 4 1 37 57 48 54 66 98 114 180 161 298 453 372 264 645 899 711 588 767 470 609 567 589 169 0 0 0 56 74 238 12 321 67 332 556 845 1286
97 4 4 14 51 377 334 178 60 52 17 2 0 0 0 3 7 3 55 2 5 21 91 179 147 310 357 488 707 519 279 150 221 334 385 386 336 69 205 0 0 15 146 474 653 747 665 644 280
42 45 28 134 225 412 303 101 56 27 4 0 0 0 0 41 34 27 15 0 0 0 209 159 309 671 420 481 500 454 321 62 1 0 43 12 469 477 394 3 0 561 360 1158 1177 1468 988 1064 351
8 176 207 169 145 119 195 90 67 14 2 9 0 0 4 31 31 17 7 28 32 66 80 73 260 359 171 248 59 114 498 345 71 0 0 4 1102 901 469 639 514 652 1132 1227 1016 769 996 520 345
13 25 1 10 81 30 122 46 114 49 20 29 0 0 2 20 14 1 20 86 54 0 0 0 0 16 144 353 315 101 359 428 323 43 76 458 968 1358 1084 1278 408 609 565 1178 1013 1163 653 462 522
51 11 2 9 64 80 56 32 121 52 52 25 0 1 0 21 6 3 72 10 0 2 0 0 0 0 22 283 968 157 432 454 569 735 1022 1066 954 1747 1695 1635 238 0 657 994 1828 1527 1577 1195 587
62 40 48 43 79 83 54 42 41 91 80 22 0 1 12 15 3 15 8 0 0 0 0 0 0 25 261 329 386 321 393 733 720 926 842 1237 913 1106 1213 1132 0 364 1317 1476 1510 1911 2304 1110 541
157 20 4 17 139 119 44 55 34 37 76 59 92 2 5 0 17 11 0 0 50 13 0 0 4 134 68 186 314 184 489 475 684 878 1058 1130 1232 1263 1535 1000 551 723 1127 1046 1708 1769 2033 1842 940
170 104 11 42 4 27 33 12 3 2 50 39 45 63 8 1 0 1 0 0 0 0 60 0 119 0 78 395 555 243 393 693 600 642 675 998 1119 1076 1116 1070 958 752 520 700 1370 1590 1925 1751 1453
171 144 115 32 1 0 38 1 0 0 0 26 20 18 38 9 19 4 0 0 0 0 82 64 82 101 437 550 479 174 156 360 283 316 447 734 1038 933 1029 1159 1119 771 902 950 1480 1658 1647 1677 1607
60 222 126 25 34 13 0 0 0 0 0 9 8 12 47 5 0 0 0 0 0 9 56 76 64 218 301 280 264 231 193 99 187 212 317 424 409 922 881 744 1159 1176 826 900 1061 1266 1580 1503 1573
111 248 114 26 24 9 0 16 11 0 1 3 9 10 16 11 0 0 0 7 7 127 78 116 45 316 158 212 372 272 147 171 197 159 222 219 49 306 417 761 856 826 929 1008 1055 1090 1243 1340 1362
223 71 56 19 5 3 2 11 18 3 0 7 4 1 4 46 2 0 0 34 41 87 305 129 0 269 91 132 328 252 119 43 30 99 45 96 3 232 253 397 752 880 891 972 1128 962 699 1096 1147
204 43 30 35 27 50 78 28 22 16 0 0 0 10 2 43 42 2 0 49 57 85 343 268 150 119 156 150 335 224 260 106 62 17 58 12 0 72 119 418 702 647 899 615 1118 675 1126 626 579
308 221 65 19 7 9 61 16 56 31 0 0 0 0 0 0 21 18 8 13 52 77 315 303 274 162 168 137 250 222 279 210 146 84 16 0 0 0 22 361 451 559 692 788 893 822 892 805 281
133 51 9 0 59 21 67 56 70 45 40 0 2 7 0 13 64 65 56 58 28 77 285 508 337 286 257 160 301 214 200 213 95 56 94 0 0 0 0 185 372 323 725 677 677 734 385 763 615
0 0 0 0 0 10 51 14 48 35 71 129 44 10 0 13 76 67 77 103 56 99 321 552 470 277 359 420 447 276 231 186 79 8 0 0 0 0 0 54 42 200 601 538 794 660 485 731 659
0 0 0 0 0 0 1 0 24 24 31 98 150 156 0 15 6 15 91 102 95 263 556 668 657 400 293 618 385 278 249 184 0 0 38 51 0 0 0 15 56 104 541 612 508 516 1304 702 501

GFSSGP_con_sbcape_117.txt.gz
CAPE
301 73 99 259 104 1 25 26 72 0 2 1 0 17 28 116 3 0 0 2 56 187 785 1730 2079 1982 2118 2206 2126 2057 1955 1434 1863 1759 1615 1777 1841 1897 1672 1929 1907 1802 1656 1408 1562 1538 1549 1550 1538
17 100 164 285 8 1 27 40 93 23 47 14 77 10 91 110 189 35 30 103 177 561 938 1629 2523 2315 2126 2220 2292 2099 2114 1569 1817 1748 1706 1866 1901 1738 1782 1195 821 1008 1620 1442 1780 1786 1663 1663 1567
0 365 273 28 36 0 30 8 49 58 49 68 106 92 151 209 79 44 189 358 844 908 1127 1588 2127 2234 2165 2314 2233 2134 1904 1853 1877 1863 1750 1731 1641 1296 1219 2157 1813 1436 1167 1390 1628 1700 1673 1495 1701
4 187 38 49 37 19 11 10 58 87 128 126 95 149 152 149 226 345 477 813 898 1181 1345 1730 2041 2005 2023 2258 2206 2112 2060 2154 2113 1870 1712 1717 1774 1958 1925 2000 1899 1963 1678 1271 1494 1649 1533 1490 1902
0 34 33 64 42 21 12 11 33 118 181 138 79 130 302 404 397 652 735 875 1151 1352 1517 1699 2221 1949 2174 2000 2169 2148 2075 2127 1943 1906 2009 1950 1934 1909 1823 1799 1918 2038 2149 1258 1208 1279 1240 1476 1720
17 8 23 52 5 20 14 20 97 184 210 175 131 171 234 281 496 553 878 1142 1223 1341 1582 1772 2099 1971 2126 2168 2168 2185 2176 2294 2255 2173 2116 2168 2161 2260 2253 2041 1854 1868 2021 1289 1185 1084 1094 1266 1253
0 10 30 29 17 33 31 98 169 191 179 183 132 179 166 317 552 763 855 929 785 956 1187 1622 1809 1998 2220 2189 2201 2251 2142 2083 2221 2244 2077 2204 2189 1983 1942 1957 1933 1847 1731 1517 1326 1199 1212 1294 1111
16 41 96 61 49 35 42 72 104 85 115 162 162 186 169 135 560 212 228 542 851 898 1156 1202 1334 1664 1544 1841 2254 2110 2282 2277 2337 2257 2188 2130 2028 2000 2094 2387 2171 2005 1976 1922 1839 1780 1790 2058 1798
104 61 78 75 106 137 42 44 17 62 121 118 160 129 135 334 37 174 654 918 1067 1247 973 943 1280 1196 1131 1493 1934 2131 2255 2320 2286 2081 2118 2188 1317 1576 1696 2110 2128 2111 2223 2300 2288 2155 1928 1833 2000
131 4 106 118 133 186 16 44 49 29 48 127 73 151 266 316 13 465 671 846 930 1010 965 974 1049 1087 1276 1718 1407 1304 2030 1800 1723 1713 1376 871 810 1236 1489 1979 2454 2458 2315 2107 2271 2173 2303 2035 1856
199 0 28 15 62 91 286 46 52 26 71 71 102 130 191 20 158 396 487 632 631 750 882 886 813 921 1142 1186 1072 1077 728 585 324 584 771 801 526 178 277 560 600 527 1317 284 3 91 11 246 565
76 67 25 32 39 97 86 118 22 11 36 62 84 67 79 32 187 262 406 431 482 669 716 671 750 805 505 1093 894 889 640 0 0 0 245 316 0 0 16 254 157 31 265 344 0 154 219 344 433
123 14 8 28 61 71 64 159 100 44 16 43 61 33 43 54 190 263 266 257 341 568 559 657 558 551 491 873 757 686 814 208 306 307 495 58 0 0 0 32 28 119 3 174 407 435 519 550 479
82 53 14 23 45 84 316 362 382 53 25 62 37 7 13 81 158 103 160 147 350 260 375 417 381 286 458 581 625 544 430 346 427 399 378 115 11 0 84 13 0 9 129 314 535 708 545 495 373
134 83 18 134 137 79 188 120 49 24 28 65 57 36 63 98 15 116 184 146 148 75 117 243 220 204 295 300 379 364 137 134 98 294 245 184 389 388 403 44 96 432 611 944 769 683 941 618 269
51 61 64 80 38 79 100 46 43 7 5 16 0 11 0 3 48 118 117 56 7 38 95 79 321 374 206 266 231 260 100 0 0 0 0 15 837 740 426 412 809 748 978 949 796 564 623 364 246
50 62 9 47 13 111 88 58 57 8 0 8 0 0 0 28 53 63 31 22 0 41 0 91 118 97 136 48 42 65 259 252 3 0 4 314 1252 885 674 906 496 151 565 1161 1470 1065 377 357 219
68 74 21 64 45 116 33 73 97 22 14 0 0 0 0 5 0 11 12 1 0 0 0 4 1 33 121 153 14 73 151 193 278 269 474 867 1017 1203 1228 765 3 28 839 1439 1527 1341 1253 420 277
92 73 62 50 59 76 16 46 87 40 61 13 0 0 0 1 0 14 12 81 23 0 0 0 0 5 100 344 244 219 313 524 422 613 844 921 799 1100 1184 20 0 638 1123 1393 1711 1634 1555 1011 310
113 102 56 68 122 111 52 34 60 11 75 53 25 0 0 0 1 18 14 0 0 6 0 0 0 21 78 59 130 39 288 302 388 677 714 714 873 1230 1153 781 375 618 627 1179 1429 1451 1420 1130 532
130 120 44 64 5 16 57 54 49 20 29 54 13 3 0 1 0 0 0 0 0 0 0 0 0 10 44 92 332 116 347 428 476 538 483 587 799 986 1169 819 637 558 318 931 1150 1297 1351 1098 314
203 132 59 36 8 0 28 0 1 1 1 2 7 0 0 0 10 27 8 0 0 0 0 0 0 0 67 186 228 200 217 285 225 186 381 537 725 631 922 936 807 648 684 949 1388 1186 1140 1012 885
74 143 50 3 17 0 5 2 0 16 5 5 0 0 0 0 0 0 16 17 1 2 0 0 0 42 250 275 123 74 111 84 73 126 217 365 383 642 1026 675 826 791 608 822 949 1054 995 1155 622
214 72 23 6 0 0 1 9 0 0 0 0 0 1 0 0 0 0 16 29 4 6 10 0 0 80 108 170 118 102 102 83 153 115 190 211 93 319 441 753 697 667 594 757 879 676 1090 916 1097
188 52 29 19 15 0 4 7 1 2 0 0 0 0 1 0 1 0 0 2 2 0 4 0 0 82 41 226 143 111 63 83 92 72 85 112 57 189 223 428 690 616 614 685 768 653 517 797 852
114 38 36 2 20 10 51 7 3 0 0 0 0 2 0 13 1 6 13 27 28 63 1 79 0 107 10 90 194 156 46 18 8 8 4 8 33 59 77 242 440 577 641 323 676 559 858 516 491
305 118 8 3 4 15 63 54 2 19 9 0 0 5 15 16 0 12 20 55 63 88 92 66 0 20 73 2 112 99 120 102 54 17 0 3 3 0 0 296 383 503 468 595 592 519 688 577 172
213 88 85 6 42 22 30 55 61 62 12 5 6 10 4 0 11 2 8 60 80 94 185 128 48 0 75 54 87 76 135 145 86 54 10 0 0 0 0 170 264 307 346 602 489 522 355 424 250
0 1 0 0 0 3 30 26 11 33 7 0 1 5 8 1 20 9 10 52 79 130 193 210 176 89 80 56 95 120 129 122 39 0 0 6 0 0 0 0 127 115 419 443 327 455 387 312 479
0 0 0 0 0 0 0 0 1 33 11 50 27 24 0 0 12 35 42 77 59 91 147 245 302 197 193 165 120 172 150 144 58 0 0 0 0 0 0 0 23 0 266 217 303 437 686 567 391